[[{"header":{"parameterUnit":"m.s-1","parameterCategory":1,"la1":30.6,"la2":29.2853,"lo1":-89.7004,"lo2":-87.6739,"dy":0.0162,"dx":0.0183,"nx":112,"ny":82,"refTime":"2023-05-25T18:00:00:Z","depth":0,"parameterNumber":2,"parameterNumberName":"U-component_of_WINDS"},"data":[0.0,0.0,0.0,0.0,0.0,0.0,0.0,0.0,0.0,0.0,0.0,0.0,0.0,0.0,0.0,0.0,0.0,0.0,0.0,0.0,0.0,0.0,0.0,0.0,0.0,0.0,0.0,0.0,0.0,0.0,0.0,0.0,0.0,0.0,0.0,0.0,0.0,0.0,0.0,0.0,0.0,0.0,0.0,0.0,0.0,0.0,0.0,0.0,0.0,0.0,0.0,0.0,0.0,0.0,0.0,0.0,0.0,0.0,0.0,0.0,0.0,0.0,0.0,0.0,0.0,0.0,0.0,0.0,0.0,0.0,0.0,0.0,0.0,0.0,0.0,0.0,0.0,0.0,0.0,0.0,0.0,0.0,0.0,0.0,0.0,0.0,0.0,0.0,0.0,0.0,0.0,1.8118,1.9435,2.0288,2.0163,1.9804,1.8951,1.7563,0.0,0.0,0.0,0.0,0.0,0.0,0.0,0.0,0.0,0.0,0.0,0.0,0.0,0.0,0.0,0.0,0.0,0.0,0.0,0.0,0.0,0.0,0.0,0.0,0.0,0.0,0.0,0.0,0.0,0.0,0.0,0.0,0.0,0.0,0.0,0.0,0.0,0.0,0.0,0.0,0.0,0.0,0.0,0.0,0.0,0.0,0.0,0.0,0.0,0.0,0.0,0.0,0.0,0.0,0.0,0.0,0.0,0.0,0.0,0.0,0.0,0.0,0.0,0.0,0.0,0.0,0.0,0.0,0.0,0.0,0.0,0.0,0.0,0.0,0.0,0.0,0.0,0.0,0.0,0.0,0.0,0.0,0.0,0.0,0.0,0.0,0.0,0.0,0.0,0.0,0.0,0.0,0.0,0.0,0.0,0.0,0.0,0.0,0.0,0.0,0.0,0.0,0.0,0.0,1.762,1.9679,2.0376,2.0626,2.0505,1.994,1.9043,1.7914,0.0,0.0,0.0,0.0,0.0,0.0,0.0,0.0,0.0,0.0,0.0,0.0,0.0,0.0,0.0,0.0,0.0,0.0,0.0,0.0,0.0,0.0,0.0,0.0,0.0,0.0,0.0,0.0,0.0,0.0,0.0,0.0,0.0,0.0,0.0,0.0,0.0,0.0,0.0,0.0,0.0,0.0,0.0,0.0,0.0,0.0,0.0,0.0,0.0,0.0,0.0,0.0,0.0,0.0,0.0,0.0,0.0,0.0,0.0,0.0,0.0,0.0,0.0,0.0,0.0,0.0,0.0,0.0,0.0,0.0,0.0,0.0,0.0,0.0,0.0,0.0,0.0,0.0,0.0,0.0,0.0,0.0,0.0,0.0,0.0,0.0,0.0,0.0,0.0,0.0,0.0,0.0,0.0,0.0,0.0,0.0,0.0,0.0,0.0,0.0,0.0,0.0,0.0,1.7377,1.8382,2.0323,2.0641,2.0652,2.0376,2.0031,1.9161,1.7802,1.73,0.0,0.0,0.0,0.0,0.0,0.0,0.0,0.0,0.0,0.0,0.0,0.0,0.0,0.0,0.0,0.0,0.0,0.0,0.0,0.0,0.0,0.0,0.0,0.0,0.0,0.0,0.0,0.0,0.0,0.0,0.0,0.0,0.0,0.0,0.0,0.0,0.0,0.0,0.0,0.0,0.0,0.0,0.0,0.0,0.0,0.0,0.0,0.0,0.0,0.0,0.0,0.0,0.0,0.0,0.0,0.0,0.0,0.0,0.0,0.0,0.0,0.0,0.0,0.0,0.0,0.0,0.0,0.0,0.0,0.0,0.0,0.0,0.0,0.0,0.0,0.0,0.0,0.0,0.0,0.0,0.0,0.0,0.0,0.0,0.0,0.0,0.0,0.0,0.0,0.0,0.0,0.0,0.0,0.0,0.0,0.0,0.0,0.0,0.0,0.0,0.0,0.0,1.8354,1.895,2.0482,2.0701,2.0586,2.0172,2.0001,1.9284,1.7752,1.725,0.0,0.0,0.0,0.0,0.0,0.0,0.0,0.0,0.0,0.0,0.0,0.0,0.0,0.0,0.0,0.0,0.0,0.0,0.0,0.0,0.0,0.0,0.0,0.0,0.0,0.0,0.0,0.0,0.0,0.0,0.0,0.0,0.0,0.0,0.0,0.0,0.0,0.0,0.0,0.0,0.0,0.0,0.0,0.0,0.0,0.0,0.0,0.0,0.0,0.0,0.0,0.0,0.0,0.0,0.0,0.0,0.0,0.0,0.0,0.0,0.0,0.0,0.0,0.0,0.0,0.0,0.0,0.0,0.0,0.0,0.0,0.0,0.0,0.0,0.0,0.0,0.0,0.0,0.0,0.0,0.0,0.0,0.0,0.0,0.0,0.0,0.0,0.0,0.0,0.0,0.0,0.0,0.0,0.0,0.0,0.0,0.0,0.0,0.0,0.0,0.0,0.0,1.8674,1.9192,2.0259,2.0601,2.0586,2.0172,1.9777,1.9131,1.8186,1.6944,0.0,0.0,0.0,0.0,0.0,0.0,0.0,0.0,0.0,0.0,0.0,0.0,0.0,0.0,0.0,0.0,0.0,0.0,0.0,0.0,0.0,0.0,0.0,0.0,0.0,0.0,0.0,0.0,0.0,0.0,0.0,0.0,0.0,0.0,0.0,0.0,0.0,0.0,0.0,0.0,0.0,0.0,0.0,0.0,0.0,0.0,0.0,0.0,0.0,0.0,0.0,0.0,0.0,0.0,0.0,0.0,0.0,0.0,0.0,0.0,0.0,0.0,0.0,0.0,0.0,0.0,0.0,0.0,0.0,0.0,0.0,0.0,0.0,0.0,0.0,0.0,0.0,0.0,0.0,0.0,0.0,0.0,0.0,0.0,0.0,0.0,0.0,0.0,0.0,0.0,0.0,0.0,0.0,0.0,0.0,0.0,0.0,0.0,0.0,0.0,0.0,0.0,1.8949,1.9514,0.0,2.0667,2.0529,2.0255,1.9777,1.9018,1.8037,0.0,0.0,0.0,0.0,0.0,0.0,0.0,0.0,0.0,0.0,0.0,0.0,0.0,0.0,0.0,0.0,0.0,0.0,0.0,0.0,0.0,0.0,0.0,0.0,0.0,0.0,0.0,0.0,0.0,0.0,0.0,0.0,0.0,0.0,0.0,0.0,0.0,0.0,0.0,0.0,0.0,0.0,0.0,0.0,0.0,0.0,0.0,0.0,0.0,0.0,0.0,0.0,0.0,0.0,0.0,0.0,0.0,0.0,0.0,0.0,0.0,0.0,0.0,0.0,0.0,0.0,0.0,0.0,0.0,0.0,0.0,0.0,0.0,0.0,0.0,0.0,0.0,0.0,0.0,0.0,0.0,0.0,0.0,0.0,0.0,0.0,0.0,0.0,0.0,0.0,0.0,0.0,0.0,0.0,0.0,0.0,0.0,0.0,0.0,0.0,0.0,0.0,1.8571,1.9108,1.9676,0.0,2.0578,2.0456,2.0074,1.9583,1.8941,1.7888,0.0,0.0,0.0,0.0,0.0,0.0,0.0,0.0,0.0,0.0,0.0,0.0,0.0,0.0,0.0,0.0,0.0,0.0,0.0,0.0,0.0,0.0,0.0,0.0,0.0,0.0,0.0,0.0,0.0,0.0,0.0,0.0,0.0,0.0,0.0,0.0,0.0,0.0,0.0,0.0,0.0,0.0,0.0,0.0,0.0,0.0,0.0,0.0,0.0,0.0,0.0,0.0,0.0,0.0,0.0,0.0,0.0,0.0,0.0,0.0,0.0,0.0,0.0,0.0,0.0,0.0,0.0,0.0,0.0,0.0,0.0,0.0,0.0,0.0,0.0,0.0,0.0,0.0,0.0,0.0,0.0,0.0,0.0,0.0,0.0,0.0,0.0,0.0,0.0,0.0,0.0,0.0,0.0,0.0,0.0,0.0,0.0,0.0,0.0,0.0,0.0,0.0,1.8636,1.9153,1.9608,2.0242,2.0284,2.0146,1.9871,1.936,1.8707,0.0,0.0,0.0,0.0,0.0,0.0,0.0,0.0,0.0,0.0,0.0,0.0,0.0,0.0,0.0,0.0,0.0,0.0,0.0,0.0,0.0,0.0,0.0,0.0,0.0,0.0,0.0,0.0,0.0,0.0,0.0,0.0,0.0,0.0,0.0,0.0,0.0,0.0,0.0,0.0,0.0,0.0,0.0,0.0,0.0,0.0,0.0,0.0,0.0,0.0,0.0,0.0,0.0,0.0,0.0,0.0,0.0,0.0,0.0,0.0,0.0,0.0,0.0,0.0,0.0,0.0,0.0,0.0,0.0,0.0,0.0,0.0,0.0,0.0,0.0,0.0,0.0,0.0,0.0,0.0,0.0,0.0,0.0,0.0,0.0,0.0,0.0,0.0,0.0,0.0,0.0,0.0,0.0,0.0,0.0,0.0,0.0,0.0,0.0,0.0,0.0,0.0,0.0,1.8964,1.9608,2.0037,2.0268,2.067,2.0812,2.0424,1.9702,1.9146,1.8504,0.0,0.0,0.0,0.0,0.0,0.0,0.0,0.0,0.0,0.0,0.0,0.0,0.0,0.0,0.0,0.0,0.0,0.0,0.0,0.0,0.0,0.0,0.0,0.0,0.0,0.0,0.0,0.0,0.0,0.0,0.0,0.0,0.0,0.0,0.0,0.0,0.0,0.0,0.0,0.0,0.0,0.0,0.0,0.0,0.0,0.0,0.0,0.0,0.0,0.0,0.0,0.0,0.0,0.0,0.0,0.0,0.0,0.0,0.0,0.0,0.0,0.0,0.0,0.0,0.0,0.0,0.0,0.0,0.0,0.0,0.0,0.0,0.0,0.0,0.0,0.0,0.0,0.0,0.0,0.0,0.0,0.0,0.0,0.0,0.0,0.0,0.0,0.0,0.0,0.0,0.0,0.0,0.0,0.0,0.0,0.0,0.0,0.0,0.0,0.0,0.0,0.0,1.9092,1.9904,2.0392,2.0447,2.0953,2.109,2.0589,1.9971,1.9352,1.8783,0.0,0.0,0.0,0.0,0.0,0.0,0.0,0.0,0.0,0.0,0.0,0.0,0.0,0.0,0.0,0.0,0.0,0.0,0.0,0.0,0.0,0.0,0.0,0.0,0.0,0.0,0.0,0.0,0.0,0.0,0.0,0.0,0.0,0.0,0.0,0.0,0.0,0.0,0.0,0.0,0.0,0.0,0.0,0.0,0.0,0.0,0.0,0.0,0.0,0.0,0.0,0.0,0.0,0.0,0.0,0.0,0.0,0.0,0.0,0.0,0.0,0.0,0.0,0.0,0.0,0.0,0.0,0.0,0.0,0.0,0.0,0.0,0.0,0.0,0.0,0.0,0.0,0.0,0.0,0.0,0.0,0.0,0.0,0.0,0.0,0.0,0.0,0.0,0.0,0.0,0.0,0.0,0.0,0.0,0.0,0.0,0.0,0.0,0.0,0.0,0.0,0.0,1.9299,2.0229,2.0802,2.0759,2.1032,2.1126,2.0764,2.0239,1.9641,1.8877,0.0,0.0,0.0,0.0,0.0,0.0,0.0,0.0,0.0,0.0,0.0,0.0,0.0,0.0,0.0,0.0,0.0,0.0,0.0,0.0,0.0,0.0,0.0,0.0,0.0,0.0,0.0,0.0,0.0,0.0,0.0,0.0,0.0,0.0,0.0,0.0,0.0,0.0,0.0,0.0,0.0,0.0,0.0,0.0,0.0,0.0,0.0,0.0,0.0,0.0,0.0,0.0,0.0,0.0,0.0,0.0,0.0,0.0,0.0,0.0,1.6151,0.0,0.0,0.0,0.0,0.0,0.0,0.0,0.0,0.0,0.0,0.0,0.0,0.0,0.0,0.0,0.0,0.0,0.0,0.0,0.0,0.0,0.0,0.0,0.0,0.0,0.0,0.0,0.0,0.0,0.0,0.0,0.0,0.0,0.0,0.0,0.0,0.0,0.0,0.0,0.0,0.0,1.9928,2.067,2.1137,2.1117,2.1568,2.1715,2.1471,2.1032,2.0578,2.0199,1.9405,0.0,0.0,0.0,0.0,0.0,0.0,0.0,0.0,0.0,0.0,0.0,0.0,0.0,0.0,0.0,0.0,0.0,0.0,0.0,0.0,0.0,0.0,0.0,0.0,0.0,0.0,0.0,0.0,0.0,0.0,0.0,0.0,0.0,0.0,0.0,0.0,0.0,0.0,0.0,0.0,0.0,0.0,0.0,0.0,0.0,0.0,0.0,0.0,0.0,0.0,0.0,0.0,0.0,0.0,0.0,0.0,0.0,0.0,0.0,0.0,1.6272,0.0,0.0,0.0,0.0,0.0,0.0,0.0,0.0,0.0,0.0,0.0,0.0,0.0,0.0,0.0,0.0,0.0,0.0,0.0,0.0,0.0,0.0,0.0,0.0,0.0,0.0,0.0,0.0,0.0,0.0,0.0,0.0,0.0,0.0,0.0,0.0,0.0,0.0,0.0,0.0,2.0554,2.1176,2.1507,2.1569,2.195,2.2064,2.1785,2.1465,2.1138,2.0884,2.0301,0.0,0.0,0.0,0.0,0.0,0.0,0.0,0.0,0.0,0.0,0.0,0.0,0.0,0.0,0.0,0.0,0.0,0.0,0.0,0.0,0.0,0.0,0.0,0.0,0.0,0.0,0.0,0.0,0.0,0.0,0.0,0.0,0.0,0.0,0.0,0.0,0.0,0.0,0.0,0.0,0.0,0.0,0.0,0.0,0.0,0.0,0.0,0.0,0.0,0.0,0.0,0.0,0.0,1.7723,1.8383,1.8935,1.8735,1.8939,1.9453,1.7832,1.7073,1.6807,0.0,0.0,0.0,0.0,0.0,0.0,0.0,0.0,0.0,0.0,0.0,0.0,0.0,0.0,0.0,0.0,0.0,0.0,0.0,0.0,0.0,0.0,0.0,0.0,0.0,1.6936,1.6684,0.0,0.0,0.0,0.0,0.0,0.0,0.0,0.0,0.0,0.0,0.0,0.0,2.12,2.1744,2.2083,2.2318,2.2436,2.2397,2.2162,2.19,2.1613,2.1342,2.1097,2.0857,0.0,0.0,0.0,0.0,0.0,0.0,0.0,0.0,0.0,0.0,0.0,0.0,0.0,0.0,0.0,0.0,0.0,0.0,0.0,0.0,0.0,0.0,0.0,0.0,0.0,0.0,0.0,0.0,0.0,0.0,0.0,0.0,1.4611,1.4914,0.0,0.0,0.0,0.0,0.0,0.0,0.0,0.0,0.0,0.0,0.0,0.0,0.0,1.7624,1.8029,1.8529,1.8423,1.7904,1.8499,1.871,1.8499,1.8643,1.8819,1.8851,1.8744,0.0,1.7547,1.6969,0.0,0.0,0.0,0.0,0.0,0.0,0.0,0.0,0.0,0.0,0.0,0.0,0.0,0.0,0.0,0.0,0.0,0.0,0.0,0.0,0.0,0.0,1.6484,1.6869,1.686,1.6927,0.0,1.7037,1.728,1.7632,1.7492,0.0,0.0,0.0,0.0,0.0,0.0,0.0,2.193,2.2602,2.2991,2.3354,2.3715,2.3572,2.3006,2.2859,2.2561,2.2135,2.1473,2.1112,2.1234,2.0604,0.0,0.0,0.0,0.0,0.0,0.0,0.0,0.0,0.0,0.0,0.0,0.0,0.0,0.0,0.0,0.0,0.0,0.0,0.0,0.0,0.0,0.0,0.0,0.0,0.0,0.0,0.0,0.0,0.0,1.4956,1.5486,1.5956,1.6258,1.6236,0.0,0.0,0.0,0.0,0.0,0.0,0.0,0.0,0.0,1.8011,1.824,1.8335,1.8072,1.9005,1.9192,1.8758,1.946,1.9706,1.9652,1.9603,1.9679,1.9765,1.9532,1.929,1.8932,1.7973,1.7413,1.7157,0.0,0.0,0.0,0.0,1.6488,1.6379,1.6879,1.6895,0.0,1.7056,0.0,0.0,0.0,0.0,0.0,0.0,0.0,0.0,0.0,0.0,0.0,1.8036,1.818,1.8287,1.8534,1.8438,1.8337,0.0,1.8303,1.8474,1.8988,0.0,0.0,0.0,0.0,2.1586,2.2527,2.3052,2.3475,2.3596,2.3596,2.3534,2.3426,2.3224,2.3063,2.2925,2.2549,2.2286,2.2008,2.1371,2.0893,0.0,0.0,0.0,0.0,0.0,0.0,0.0,0.0,0.0,0.0,0.0,0.0,0.0,0.0,0.0,0.0,0.0,0.0,0.0,0.0,0.0,0.0,0.0,0.0,0.0,0.0,0.0,0.0,1.6088,1.6408,1.6864,1.7331,1.7331,0.0,0.0,0.0,0.0,0.0,0.0,1.7466,1.7604,1.7944,1.8644,1.9054,1.9055,1.8555,1.9538,1.9792,1.9319,2.0372,2.0609,2.0355,2.0492,2.0589,2.0464,2.0157,1.9959,1.9822,1.8827,1.8308,1.8153,1.7782,1.7616,1.7572,1.7739,1.7658,1.7632,1.8162,1.8162,1.7959,1.8053,0.0,1.7155,1.6476,0.0,0.0,0.0,0.0,1.6846,1.7622,1.8026,1.8446,1.9011,1.9205,1.9257,1.9598,1.9481,1.9269,0.0,1.9017,1.9328,1.9808,0.0,0.0,0.0,0.0,2.2402,2.323,2.3686,2.3993,2.4117,2.3917,2.3856,2.4014,2.365,2.356,2.3536,2.344,2.3206,2.277,2.208,2.1485,2.109,0.0,0.0,0.0,0.0,0.0,0.0,0.0,0.0,0.0,0.0,0.0,0.0,0.0,0.0,0.0,0.0,0.0,0.0,0.0,0.0,0.0,0.0,0.0,0.0,0.0,0.0,0.0,0.0,0.0,1.7111,1.81,0.0,0.0,0.0,0.0,1.6785,1.7282,1.7658,1.7719,1.8101,1.847,1.8712,1.9315,1.9808,2.0143,2.0472,2.0373,1.9738,2.1061,2.1046,1.9921,2.1042,2.1088,2.0301,2.0512,2.0245,1.9656,1.9381,1.9197,1.9233,1.8781,1.8843,1.9136,1.8957,1.8859,1.8859,1.8905,1.8905,1.8935,1.9269,1.8736,1.7781,1.6864,1.6183,0.0,0.0,1.6398,1.6661,1.7503,1.7986,1.8324,1.8855,1.9115,1.9127,1.9407,1.9776,1.9923,0.0,1.9339,1.9261,1.9527,0.0,2.1089,2.1145,2.2432,2.3509,2.4007,2.4592,2.5175,2.5432,2.5533,2.5312,2.5087,2.4754,2.4388,2.4023,2.36,2.3424,2.3359,2.2557,2.1912,2.1509,2.0572,0.0,0.0,0.0,0.0,0.0,0.0,0.0,0.0,0.0,0.0,0.0,0.0,0.0,0.0,0.0,0.0,0.0,0.0,0.0,0.0,0.0,0.0,0.0,0.0,0.0,0.0,0.0,0.0,1.8356,1.8924,0.0,1.8011,1.8192,1.8217,1.7745,1.8248,1.8611,1.8948,1.9377,1.971,2.0005,2.0424,2.0586,2.0586,2.0579,2.0461,2.0115,2.069,2.0557,1.9773,2.0441,2.0427,1.9905,1.9987,2.0012,1.9911,2.0046,1.9823,1.9509,1.9487,1.9562,1.9569,1.9882,2.0106,2.0101,2.0323,2.0033,1.937,1.8434,1.7711,1.699,1.6634,1.6324,1.6319,1.683,1.7225,1.7613,1.8084,1.8465,1.9007,1.9362,1.9575,1.9828,2.0233,2.0368,2.0575,2.0882,2.0255,1.9905,2.0658,2.074,2.1161,2.2244,2.3087,2.3672,2.3981,2.466,2.5123,2.4994,2.5016,2.493,2.4843,2.4704,2.4517,2.4436,2.4268,2.3953,2.3376,2.3299,2.295,2.218,2.1865,2.1677,0.0,0.0,0.0,0.0,0.0,0.0,0.0,0.0,0.0,0.0,0.0,0.0,0.0,0.0,0.0,0.0,0.0,0.0,0.0,0.0,0.0,0.0,0.0,0.0,0.0,0.0,1.8769,1.9201,1.9737,1.9711,1.9018,1.9127,1.9117,1.8846,1.8964,1.9318,1.9707,1.9979,2.0186,2.041,2.0781,2.0875,2.089,2.0644,2.0398,2.0152,2.0644,2.0345,1.9775,2.0112,2.0112,1.9898,1.9775,1.9723,1.985,2.0106,2.006,1.9893,2.0369,2.0479,2.0477,2.0794,2.09,2.0658,2.0755,2.0336,1.951,1.8197,1.7503,1.7055,1.666,1.6553,1.6727,1.7051,1.7526,1.792,1.8307,1.8875,1.9414,1.9762,2.0251,2.0662,2.0943,2.1157,2.1383,2.1611,2.1141,2.0877,2.1661,2.175,2.2073,2.2863,2.3544,2.4012,2.413,2.476,2.5186,2.4949,2.4975,2.4894,2.4817,2.47,2.458,2.449,2.4237,2.4029,2.344,2.3517,2.327,2.2823,2.2863,2.2659,2.1998,0.0,0.0,0.0,0.0,0.0,0.0,0.0,0.0,0.0,0.0,0.0,0.0,0.0,0.0,0.0,0.0,0.0,0.0,0.0,0.0,0.0,0.0,0.0,1.7761,1.8721,1.9406,1.951,2.0436,2.0585,1.946,1.9725,1.9971,1.9963,1.9469,1.943,1.9998,2.0078,2.0003,1.9698,2.0234,2.0657,2.1009,2.0755,2.0361,2.0106,2.0729,2.0585,1.9699,2.0358,2.0459,2.0211,1.985,1.9559,1.9292,1.955,1.9976,2.0322,2.132,2.1675,2.1704,2.1704,2.1222,2.0618,2.0241,1.9863,1.9498,1.89,1.841,1.8042,1.7067,1.6997,1.707,1.6827,1.7044,1.7518,1.7981,1.8838,1.9701,2.0192,2.0908,2.151,2.151,2.2007,2.2263,2.1703,2.1654,2.1961,2.2199,2.3126,2.368,2.3092,2.4025,0.0,2.4459,2.5056,2.554,2.5502,2.5574,2.5504,2.5169,2.4779,2.447,2.4127,2.3724,2.3562,2.3546,2.3129,2.3029,2.331,2.3331,2.2942,2.2143,0.0,0.0,0.0,0.0,0.0,0.0,0.0,0.0,0.0,0.0,0.0,0.0,0.0,0.0,0.0,0.0,0.0,0.0,0.0,0.0,0.0,0.0,1.8157,1.8925,1.9595,2.0297,2.0924,2.0781,2.067,2.0515,2.0172,1.9933,1.9963,1.9776,1.9711,1.9918,2.0092,2.0104,1.9813,2.0429,2.0649,2.0573,2.0241,2.0253,2.031,2.0156,1.9902,1.9499,1.9761,1.9774,1.9641,1.9641,1.9585,1.9695,2.0086,2.0396,2.076,2.0588,2.0849,2.1243,2.123,2.124,2.1122,1.9824,1.9437,1.9311,1.7999,1.7564,1.7618,1.7282,1.7261,1.7347,1.7378,1.7776,1.8175,1.8304,1.9195,2.0106,2.0534,2.116,2.1805,2.2295,2.2542,2.2717,2.2781,2.2794,2.2802,2.2485,2.2731,2.3156,2.3561,2.3877,0.0,2.4067,2.4496,2.4716,2.481,2.4893,2.4937,2.5111,2.4735,2.4579,2.4486,2.4306,2.4188,2.3924,2.3958,2.3888,2.3757,2.3367,2.3044,0.0,0.0,0.0,0.0,0.0,0.0,0.0,0.0,0.0,0.0,0.0,0.0,0.0,0.0,0.0,0.0,0.0,0.0,0.0,0.0,0.0,0.0,1.7824,1.845,1.9613,1.9932,2.0255,2.0729,2.0323,2.0187,2.0288,1.9949,1.9878,2.0055,1.9735,1.9615,1.9733,1.9757,1.9843,1.9857,2.0246,2.0441,2.0575,2.0182,1.9989,2.0002,1.9695,1.9314,1.9078,1.9172,1.9374,0.0,1.9364,1.9591,1.9881,2.0148,2.0476,0.0,0.0,0.0,0.0,0.0,2.0631,2.0475,1.9628,1.9148,1.8853,1.7803,1.7598,1.7599,1.7475,1.7658,1.7809,1.7744,1.8207,1.8713,1.8605,1.9547,2.0545,2.0831,2.1557,2.2293,2.2645,2.2979,2.3255,2.3145,2.3273,0.0,2.2953,2.3044,2.3326,2.3522,2.3824,2.4071,2.394,2.4357,2.4721,2.4567,2.4723,2.4996,2.4864,2.4743,0.0,0.0,0.0,2.429,2.3926,2.4348,0.0,0.0,0.0,2.4436,2.4049,0.0,0.0,0.0,2.441,2.4598,0.0,0.0,0.0,0.0,0.0,0.0,0.0,0.0,0.0,0.0,0.0,0.0,0.0,0.0,0.0,0.0,1.8387,1.8695,1.9879,1.9721,1.9653,1.9707,1.9543,1.9449,1.9365,1.9326,1.9555,1.9959,1.9499,1.9341,1.9597,0.0,0.0,0.0,0.0,2.0042,2.0724,2.0197,1.9807,1.9417,1.952,1.9137,1.8513,1.8874,1.9123,1.937,1.937,1.9527,1.9977,1.9977,2.0245,2.0823,2.1219,2.1214,2.0863,2.0185,1.9805,1.9448,1.9252,0.0,0.0,1.8171,1.8069,1.7841,1.7841,1.8142,1.839,1.7959,1.8476,1.9101,1.8885,1.9948,2.1106,2.1106,2.2071,2.2983,2.279,2.3414,2.384,2.3283,2.3402,2.3624,2.3187,2.3505,2.3728,2.3222,2.3865,2.4342,2.3936,2.4534,2.496,2.4502,0.0,0.0,2.4671,2.4575,2.4573,2.4192,2.4092,2.4118,2.4069,2.4547,2.4775,2.4668,2.5703,2.6153,2.5724,2.6461,2.7013,2.7345,2.6022,2.5996,0.0,0.0,0.0,0.0,0.0,0.0,0.0,0.0,0.0,0.0,0.0,0.0,0.0,0.0,0.0,1.7928,1.834,1.8713,1.9274,1.9074,1.912,1.9749,1.9188,1.8923,1.9255,1.8897,1.8616,1.8868,1.8857,1.8798,1.9183,1.9055,1.9172,1.9681,1.9865,2.0039,2.0178,2.0191,2.0167,1.9957,0.0,0.0,1.9027,1.9212,1.9405,1.9652,1.9379,1.9769,2.0521,2.0245,2.0269,2.0695,2.0835,2.0699,2.0368,2.0014,1.9807,1.9558,1.9125,1.8665,1.8424,1.8161,1.8272,1.8573,1.8573,1.8638,0.0,1.8605,1.8853,1.9144,1.909,2.0203,2.1368,2.1368,2.22,2.3092,2.3261,2.3381,2.343,2.3381,2.3369,2.3441,2.3174,2.3178,2.3116,2.3298,2.3523,2.3606,2.3642,2.3915,2.3958,2.3956,2.4148,2.4266,2.4559,2.4731,2.478,2.4558,2.4474,2.4577,2.4796,2.4842,2.5213,2.5953,2.537,2.537,2.6049,2.6092,2.6353,2.6836,2.706,2.749,0.0,0.0,0.0,0.0,0.0,0.0,0.0,0.0,0.0,0.0,0.0,1.6593,0.0,0.0,1.7754,1.8378,1.8276,1.8179,1.8312,1.8079,1.8239,1.8865,1.8487,1.8387,1.8485,1.8396,1.8281,1.8506,1.8539,1.8582,1.8703,1.8714,1.8854,1.9262,1.9692,1.997,2.011,2.0407,2.0335,1.991,2.0071,1.974,1.9164,1.9457,1.9539,1.9646,1.9646,1.9854,2.011,2.011,2.0249,2.0388,2.0804,2.0581,2.0197,2.0197,1.9865,1.9424,1.9273,1.9071,1.8758,1.8616,1.8778,1.8972,1.8972,1.9047,1.9122,1.9004,1.9219,1.9478,1.9359,2.0219,2.1284,2.1437,2.2187,2.2972,2.326,2.3562,2.3647,2.3647,2.3696,2.3707,2.3573,2.3372,2.3367,2.3367,2.3527,2.3645,2.3653,2.405,2.4323,2.4145,2.4233,2.4482,2.4753,2.4952,2.5024,2.5155,2.4923,2.4865,2.5299,2.531,2.5629,2.6135,2.6067,2.6491,2.7159,2.6983,2.725,2.7933,2.8105,2.8288,0.0,0.0,0.0,0.0,0.0,0.0,0.0,1.592,1.6235,1.7086,1.7204,1.7368,1.8238,1.8194,1.8244,1.8825,1.8191,1.7562,1.7551,1.738,1.7566,1.7877,1.7817,1.7795,1.7766,1.7927,1.8121,1.8358,1.8369,1.839,1.8573,1.8433,1.8573,1.9133,1.9401,1.968,2.011,2.0388,2.0281,1.9793,2.0215,1.9941,1.9244,1.953,1.9634,1.968,2.011,1.997,1.968,2.011,2.0145,2.0215,2.0886,2.0757,2.0074,2.0509,1.9998,1.9471,1.9659,1.9435,1.9155,1.9155,1.9187,1.9219,1.9219,1.9348,1.9456,1.9273,1.9521,1.979,1.9564,2.0222,2.1111,2.1517,2.2206,2.3064,2.3368,2.3695,2.384,2.3852,2.4147,2.4145,2.4302,2.4078,2.3778,2.3454,2.3667,2.387,2.3732,2.4582,2.4952,2.4331,2.469,2.5003,2.5168,2.5219,2.5473,2.5707,2.5278,2.5285,2.5638,2.5872,2.6043,2.6221,2.6826,2.7394,2.7956,2.7784,2.8147,2.9022,2.8598,2.8494,1.3224,1.3812,1.465,1.5218,1.5639,1.6022,0.0,1.6744,1.6927,1.7054,1.782,1.8546,1.8672,1.8864,1.8741,1.8316,1.8082,1.7832,1.7434,1.7356,1.7367,1.7478,1.7673,1.7776,1.8024,1.7873,1.7863,1.811,1.8132,1.8356,1.8843,1.8573,1.8714,1.9541,1.9262,1.9413,2.011,2.011,2.0098,2.0074,2.0491,2.0201,1.9507,1.9495,1.9657,2.011,2.0388,2.0388,2.011,2.0527,2.0531,2.0474,2.1162,2.0955,2.023,2.0619,2.0405,1.9692,1.9715,1.9435,1.9155,1.9155,1.9295,1.9456,1.9456,1.9478,1.9488,1.9467,1.965,1.979,1.9564,2.0462,2.1559,2.1658,2.2461,2.3324,2.3644,2.3828,2.384,2.4332,2.4467,2.4602,2.492,2.4837,2.4468,2.3947,2.3833,2.3856,2.3883,2.4515,2.4643,2.43,2.4864,2.5569,2.6241,2.6055,2.6008,2.6111,2.5727,2.5623,2.5981,2.608,2.6493,2.7407,2.6486,2.6656,2.7583,2.6634,2.7001,2.824,2.7943,2.8129,1.3535,1.4027,1.4615,1.5047,1.5472,1.6048,1.6593,1.6938,1.7181,1.785,1.8389,1.8651,1.8642,1.8481,1.8312,0.0,1.7803,1.7566,1.7283,1.7432,1.7328,1.7057,1.7497,1.7792,1.7895,1.8035,1.8175,1.8282,1.8293,1.8336,1.8703,1.8433,1.8573,1.8854,1.9122,1.9541,1.9831,2.0249,2.0388,2.0388,2.0665,2.0527,2.0249,2.0249,2.011,2.011,2.011,1.997,1.9831,2.0249,2.0403,2.0521,2.1222,2.1195,2.0842,2.1024,2.0444,1.985,2.0147,1.985,1.9553,1.985,1.9767,1.9704,1.9704,1.9704,1.9704,1.9704,1.9768,1.9822,1.9725,2.0147,2.0792,2.1601,2.2275,2.2993,2.3939,2.4332,2.4652,2.4811,2.513,2.5276,2.5448,2.5332,2.527,2.519,2.4531,2.4207,2.4071,2.4676,2.4966,2.4933,2.5338,2.5698,2.5811,2.5943,2.6012,2.6012,2.5695,2.5589,2.5637,2.5667,2.5966,2.6483,2.6364,2.6617,2.7416,2.7281,2.7605,2.8364,2.8364,2.8581,1.3635,1.4195,1.4644,1.4986,1.5592,1.62,1.6662,1.7055,1.7579,1.8208,1.8582,1.8668,1.8404,1.8175,1.7995,1.7851,1.7763,1.7475,1.7245,1.737,1.7234,1.6933,1.7286,1.7591,1.7658,1.8121,1.8433,1.8433,1.8433,1.8433,1.8433,1.8498,1.853,1.8671,1.929,1.9712,1.9795,2.0355,2.0599,2.0665,2.0665,2.0665,2.0665,2.0665,2.0527,2.0121,2.004,2.0064,2.0075,2.0298,2.0627,2.0732,2.1366,2.1412,2.116,2.1268,2.0759,2.0296,2.0597,2.0447,2.0307,2.0597,2.0447,2.0156,2.0145,2.0038,2.0081,2.0016,2.0092,2.032,2.0189,2.0406,2.0735,2.1866,2.2471,2.3116,2.4393,2.4811,2.513,2.5289,2.5594,2.5911,2.5911,2.5911,2.5977,2.5999,2.5445,2.473,2.4363,2.4837,2.529,2.5795,2.5912,2.5956,2.5883,2.6061,2.6165,2.5923,2.579,2.5681,2.548,2.544,2.5598,2.5994,2.6154,2.6571,2.7265,2.7463,2.7938,2.8502,2.8716,2.8731,1.3135,1.3956,1.4707,1.5206,1.5839,1.6588,1.6862,1.7491,1.8113,1.7748,1.8105,1.8431,1.8022,1.8033,1.7995,1.7851,1.7895,1.7795,1.7591,1.7339,1.7203,1.7193,1.6995,1.6992,0.0,1.8024,1.8433,1.8433,1.8433,1.8433,1.8433,1.8649,1.891,1.9337,1.957,2.0025,2.0486,2.0486,2.0638,2.0665,2.0665,2.0665,2.0665,2.0665,2.0527,2.0133,2.0802,2.104,2.1064,2.1341,2.1317,2.1261,2.1714,2.1408,2.0854,2.1417,2.136,2.1071,2.1071,2.1071,2.1071,2.1071,2.1071,2.106,2.0597,2.0613,2.0757,2.0513,2.0791,2.1212,2.1046,2.1425,2.1935,2.2877,2.3237,2.3648,2.4907,2.513,2.5289,2.5753,2.5753,2.5911,2.6386,2.6386,2.6293,2.5999,2.5945,2.5718,2.5144,2.512,2.5667,2.6838,2.6677,2.6517,2.6969,2.6939,2.6648,2.5913,2.6156,2.6182,2.5758,2.5607,2.591,2.6668,2.5922,2.6085,2.7172,2.685,2.7171,2.8232,2.8409,2.8578,1.3363,1.4026,1.4752,1.5412,1.5821,1.6309,1.692,1.7041,1.7163,1.7289,1.7356,1.7241,1.6697,1.6801,1.6805,1.6676,1.7139,1.7619,1.7662,1.7497,1.7297,1.6995,1.7026,0.0,0.0,0.0,0.0,1.8196,1.8347,1.8433,1.8433,1.8932,1.9206,1.9349,2.0009,2.0437,2.0922,2.1205,2.134,2.1496,2.122,2.1081,2.1081,2.0804,2.0527,2.0121,2.0623,2.0754,2.0769,2.0838,2.1209,2.1462,2.1607,2.157,2.1602,2.2013,2.196,2.181,2.1522,2.1372,2.1071,2.1372,2.121,2.0748,2.0597,2.0624,2.0813,2.0724,2.1243,2.1601,2.1597,2.1551,2.1797,2.2768,2.308,2.361,2.4869,2.5289,2.5753,2.607,2.6228,2.6228,2.6386,2.6386,2.6293,2.5999,2.5785,2.5751,2.5702,2.5745,2.6129,2.6716,2.6716,2.6716,2.6865,2.6566,2.6224,2.5977,2.591,2.5663,2.5211,2.5152,2.5185,2.5321,2.5166,2.5322,2.6239,2.6445,2.6922,2.7796,2.779,2.8118,1.3953,1.4593,1.5167,1.572,1.5968,1.6043,1.6562,1.6583,1.6498,1.6412,1.6338,1.6085,1.5361,1.5442,1.5742,1.59,1.6504,1.7029,1.7506,1.736,1.7192,1.7109,1.7078,1.7036,0.0,0.0,0.0,1.8078,1.8304,1.8433,1.8573,1.9162,1.958,1.9776,2.0612,2.1246,2.1481,2.1777,2.2013,2.176,2.1484,2.1346,2.1207,2.0943,2.0665,2.04,2.0623,2.0766,2.0769,2.0838,2.1221,2.1619,2.1619,2.1716,2.1897,2.2162,2.2198,2.2138,2.1936,2.181,2.151,2.181,2.151,2.106,2.1151,2.1204,2.142,2.142,2.1745,2.2229,2.2292,2.2152,2.2294,2.3031,2.3465,2.3934,2.5187,2.5753,2.607,2.6228,2.6228,2.6386,2.6228,2.6228,2.6319,2.6146,2.5945,2.5899,2.6003,2.6129,2.6281,2.671,2.6558,2.642,2.642,2.6058,2.5778,2.5671,2.5396,2.5166,2.4894,2.4843,2.4828,2.4837,2.485,2.5199,2.5905,2.6281,2.6747,2.731,2.7643,2.7762,1.4691,1.5473,1.5937,1.6108,1.6022,1.6084,1.5903,1.6028,1.5792,1.5047,1.5187,1.5073,0.0,0.0,1.4821,1.5615,1.564,1.6104,1.7381,1.7056,1.7005,0.0,0.0,0.0,0.0,0.0,0.0,1.8078,0.0,1.8573,1.9005,1.9459,1.9915,2.0544,2.1678,2.2117,2.2169,2.2443,2.2319,2.1949,2.1923,2.1634,2.1232,2.122,2.1081,2.0702,2.0943,2.1064,2.1112,2.1341,2.1595,2.1848,2.1836,2.1824,2.186,2.2126,2.2066,2.1885,2.215,2.2247,2.2259,2.2259,2.2259,2.2307,2.2118,2.2212,2.2412,2.2424,2.2623,2.2934,2.314,2.3068,2.3283,2.3864,2.4384,2.4918,2.5687,2.607,2.6228,2.5911,2.607,2.6228,2.5911,2.607,2.6386,2.6386,2.6386,2.6343,2.6099,2.6183,2.6336,2.6613,2.6336,2.6044,2.6017,2.5528,2.5101,2.479,2.4995,2.5015,2.4723,2.4514,2.4664,2.497,2.5155,2.5422,2.5944,2.6488,2.6822,2.7044,2.7579,2.7934,1.5014,1.5491,1.5679,1.5727,1.5643,1.5604,1.5366,1.4925,1.443,1.4162,1.3781,1.3335,1.2907,1.3013,0.0,1.4288,1.5179,0.0,1.7058,1.7518,0.0,1.7695,0.0,1.7513,1.7712,1.7884,0.0,0.0,1.8304,1.8649,1.9249,1.9836,2.0497,2.1061,2.1655,2.2186,2.2468,2.2754,2.2968,2.3245,2.2519,2.2151,2.1925,2.1445,2.1192,2.0955,2.0822,2.1112,2.1619,2.1088,2.1006,2.11,2.1198,2.1126,2.0876,2.1426,2.1631,2.1619,2.1885,2.2102,2.2259,2.2259,2.2109,2.1857,2.2118,2.2212,2.2412,2.2424,2.291,2.3524,2.3418,2.3345,2.3418,2.383,2.4061,2.4459,2.5066,2.5594,2.607,2.6228,2.6386,2.6386,2.6228,2.607,2.607,2.6386,2.607,2.6017,2.6343,2.6517,2.6558,2.65,2.6401,2.632,2.5885,2.5506,2.5261,2.5097,2.4924,2.4826,2.4552,2.4641,2.4529,2.4172,2.4889,2.5225,2.5163,2.6105,2.6843,2.7044,2.7237,2.7552,1.535,1.5656,1.5812,1.5654,1.5426,1.5121,1.4654,1.408,1.3447,1.2824,1.2534,1.2064,1.1451,1.1682,1.2337,0.0,0.0,0.0,1.7099,1.7675,1.8047,0.0,1.8121,0.0,1.8046,1.825,1.8401,0.0,1.866,1.9063,1.9633,2.026,2.0915,2.1388,2.2056,2.2576,2.2911,2.3021,2.3094,2.3285,2.2802,2.2383,2.2086,2.1782,2.1383,2.1233,0.0,2.1281,2.1667,2.1209,2.1126,2.1329,2.1474,2.1342,2.1317,2.1764,2.1824,2.1848,2.1993,2.2138,2.2259,2.2259,2.2109,2.2007,2.2269,2.2519,2.2734,2.2877,2.343,2.4111,2.3684,2.3854,2.4135,2.3804,2.4356,2.4756,2.4773,2.5276,2.5753,2.5766,2.5766,2.5594,2.5766,2.5753,2.5911,2.607,2.6175,2.6254,2.6587,2.6613,2.6573,2.6241,2.6213,2.6157,2.5641,2.5263,2.5037,2.4851,2.4825,2.4674,2.4527,2.4662,2.4674,2.4515,2.5136,2.545,2.5248,2.6223,2.6773,2.689,2.7236,2.7569,1.5661,1.5744,1.5924,1.5698,1.5119,1.4586,1.3948,1.3372,1.2618,1.1505,1.1362,1.1132,1.018,1.0485,1.1449,1.3159,1.3797,1.4833,1.7234,1.7725,1.8012,1.8433,1.8616,1.867,1.8498,1.8659,1.8799,1.8975,1.9283,1.9735,2.0032,2.0869,2.146,2.1679,2.2411,2.2986,2.3145,2.3166,2.3047,2.2767,2.2714,2.2448,2.2038,2.2001,2.1738,2.1523,2.1498,0.0,2.1571,2.1462,2.1595,2.186,2.1788,2.1921,2.215,2.215,2.2162,2.2162,2.2198,2.2211,2.2211,2.2247,2.2259,2.2307,2.2724,2.2992,2.3198,2.3495,2.4058,2.443,2.4,2.4439,2.497,2.416,2.4798,2.5594,2.4811,2.5276,2.5753,2.5289,2.497,2.4811,2.513,2.5435,2.5594,2.5753,2.6281,2.66,2.66,2.6613,2.6334,2.5964,2.5844,2.5788,2.5686,2.5288,2.4923,2.4778,2.4661,2.4661,2.4625,2.4661,2.4826,2.5133,2.5868,2.6007,2.5694,2.6749,2.7058,2.6965,2.7304,2.7812,1.5692,1.5555,1.5281,1.5147,1.4652,1.4042,1.3362,1.2505,1.1594,1.1061,1.034,0.9917,1.0334,1.0108,1.0696,1.3403,1.4062,1.4995,1.7254,1.8004,1.8293,0.0,1.8466,1.8552,1.8702,1.8756,0.0,0.0,2.0129,2.0546,2.0546,2.1067,2.1531,2.2239,2.2472,2.2551,2.2845,2.2793,2.2907,2.3187,2.2644,2.2396,2.2468,2.1932,2.1795,2.1788,2.1571,0.0,2.2078,2.1402,2.127,2.1361,2.1222,2.1222,2.1159,2.1462,2.1619,2.1643,2.186,2.1933,2.1969,2.2186,2.2259,2.2457,2.3015,2.3285,2.3661,2.3649,2.4215,2.4748,2.3684,2.4281,2.497,2.4492,2.4811,2.5289,2.5594,2.5911,2.6228,2.6228,2.5911,2.5594,2.5594,2.5117,2.497,2.5753,2.5646,2.5366,2.5366,2.637,2.7014,2.6613,2.6488,2.6392,2.6035,2.5792,2.5483,2.5145,2.5009,2.4866,2.4637,2.4854,2.4866,2.4802,2.6067,2.6386,2.5694,2.7278,2.7759,2.7304,2.7812,2.8136,1.5423,1.529,1.4894,1.4568,1.3899,1.3119,1.2506,1.1539,1.0697,1.0301,0.9886,0.9766,0.9965,0.9929,1.0592,1.2805,1.3367,1.4337,1.6583,1.7402,1.7887,1.839,1.8541,1.8659,1.8767,1.8896,1.9213,1.9892,2.0581,2.0969,2.0966,2.1538,2.1917,2.2362,2.2385,2.2607,2.2924,2.2613,2.2688,2.3271,2.255,2.2279,2.2538,2.2116,2.1971,2.2054,2.18,0.0,2.2223,2.1691,2.1716,2.1733,2.1788,2.1764,2.1579,2.1885,2.2032,2.2203,2.2325,2.251,2.2682,2.2806,2.2707,2.2731,2.3154,2.3631,2.4086,2.41,2.4726,2.5371,2.4617,2.5071,2.5607,2.497,2.497,2.5289,2.5753,2.5594,2.5435,2.5435,2.5117,2.4798,2.4798,2.4652,2.4652,2.5289,2.5564,2.5814,2.5974,2.6384,2.6598,2.5987,2.5931,2.5924,2.6392,2.583,2.5558,2.5707,2.5337,2.5192,2.5059,2.518,2.5349,2.5719,2.6487,2.6732,2.6592,2.7409,2.7643,2.7487,2.7812,2.7981,1.5386,1.5158,1.4941,1.4309,1.3416,1.2422,1.1663,1.0769,0.9913,0.9491,0.9518,0.9642,0.9552,0.9867,1.0699,1.2229,1.2833,1.3846,1.6155,1.6849,1.7442,1.8422,1.867,0.0,1.8928,1.9112,0.0,2.0296,0.0,0.0,2.165,2.2138,2.2408,2.2408,2.2593,2.2696,2.2942,2.2563,2.2662,2.3143,2.2434,2.2181,2.2372,2.2288,2.2299,2.2247,2.2042,0.0,0.0,2.1981,2.2029,2.2259,2.2198,2.236,2.2408,2.2408,2.2707,2.3005,2.3005,2.3154,2.3438,2.3451,2.3302,2.3005,2.3451,2.3983,2.438,2.4618,2.5295,2.5859,2.5322,2.5898,2.6228,2.5448,2.5289,2.5448,2.5594,2.5117,2.4811,2.4652,2.4332,2.4012,2.4012,2.4332,2.4652,2.497,2.5628,2.6239,2.6573,2.6239,2.584,2.5314,2.534,2.5744,2.6738,2.6007,2.5762,2.6236,2.5763,2.5433,2.5433,2.5604,2.5945,2.6613,2.6796,2.7135,2.7487,2.7487,2.7487,2.7487,2.7487,2.7643,1.5605,1.5644,1.5517,1.4475,1.3205,1.1962,1.107,1.0063,0.9296,0.884,0.8871,0.9076,0.9534,0.9854,1.0694,1.2665,1.3419,1.457,1.6368,1.7156,1.7949,1.867,0.0,0.0,1.9391,1.9741,2.0307,2.1014,0.0,0.0,2.267,2.2843,2.2856,2.2856,2.2806,2.2852,2.2663,2.2574,2.273,2.2939,2.2526,2.2409,2.2519,2.2256,2.2093,2.2259,2.2235,0.0,0.0,2.1981,2.2029,2.2235,2.2005,2.235,2.2856,2.2856,2.3005,2.329,2.329,2.3438,2.3438,2.3896,2.3748,2.3438,2.3896,2.4436,2.4892,2.4866,2.5594,2.6228,2.5251,2.574,2.6228,2.5911,2.607,2.607,2.5289,2.5435,2.5594,2.513,2.4652,2.4492,2.4492,2.4492,2.4652,2.497,2.5461,2.5792,2.5951,2.5792,2.5779,2.5753,2.5987,2.6423,2.7241,2.6682,2.6465,2.677,2.6273,2.5763,2.5433,2.6286,2.6443,2.6103,2.6965,2.7487,2.7487,2.7487,2.7487,2.7487,2.7487,2.7487,1.5043,1.5157,1.4893,1.3733,1.2669,1.1763,1.0735,0.9822,0.9117,0.921,0.9128,0.9289,0.9821,1.0104,1.0665,1.2021,1.2384,1.3327,1.545,1.595,1.6786,1.8484,1.8628,0.0,0.0,0.0,2.0489,2.1349,0.0,0.0,2.2856,2.2856,2.3005,2.3154,2.3286,2.3318,2.3413,2.3078,2.308,2.3407,2.2845,2.2448,2.237,2.2281,2.2117,2.2029,2.2325,0.0,0.0,2.2558,2.2755,2.2992,2.288,2.2905,2.3154,2.3154,2.3438,2.3748,2.3748,2.3896,2.4193,2.4341,2.4193,2.4219,2.4552,2.4882,2.5238,2.5577,2.5909,2.6386,2.5911,2.607,2.6386,2.6228,2.607,2.5911,2.5594,2.5289,2.497,2.4811,2.4332,2.4012,2.4012,2.4468,2.4839,2.4996,2.559,2.6108,2.6096,2.5911,2.5911,2.607,2.6013,2.63,2.7241,2.6543,2.6155,2.677,2.6116,2.5763,2.5763,2.6103,2.6613,2.6965,2.7304,2.7643,2.7981,2.7643,2.7643,2.7981,2.7643,2.7643,1.4192,1.4379,1.4285,1.3036,1.2316,1.1603,1.0541,0.9726,0.9208,0.9417,0.9485,0.9644,0.9989,1.0324,1.0827,1.1592,1.1942,1.2904,1.4908,1.5375,1.6269,1.8328,0.0,1.8812,0.0,2.0262,2.0866,2.1798,0.0,0.0,2.2856,2.2856,2.3005,2.3302,2.3408,2.3611,2.3637,2.3393,2.3248,2.35,2.2936,2.2628,2.2319,2.2438,2.2276,2.1981,0.0,0.0,0.0,2.3088,2.3273,2.3438,2.3438,2.3451,2.3587,2.3587,2.3896,2.4193,2.4193,2.4341,2.4636,2.4636,2.4636,2.469,2.4997,2.5224,2.5451,2.5745,2.6106,2.6386,2.6386,2.6386,2.6386,2.6386,2.6228,2.5911,2.5753,2.5276,2.4811,2.4492,2.4172,2.4037,2.3949,2.4603,2.5188,2.5397,2.6022,2.6558,2.6667,2.6414,2.6202,2.652,2.6305,2.6405,2.7255,2.6454,2.6242,2.6783,2.6116,2.5763,2.5933,2.6103,2.6613,2.7304,2.7474,2.7812,2.8136,2.7812,2.7643,2.7981,2.7643,2.7812,1.3481,1.362,1.3655,1.2731,1.201,1.1302,1.0278,0.9857,0.9446,0.9096,0.9518,0.9896,0.9611,1.0504,1.1361,1.1521,1.2639,1.3814,1.5106,1.5882,1.701,0.0,1.8664,1.9061,2.0203,2.1207,2.181,2.2259,0.0,0.0,2.2856,2.2856,2.2856,2.2856,2.329,2.3171,2.2637,2.3054,2.3038,2.2873,2.2873,2.2763,2.2612,2.2624,2.2493,0.0,0.0,0.0,0.0,2.329,2.3438,2.3438,2.3438,2.3587,2.4044,2.4044,2.4193,2.4636,2.4636,2.4636,2.4636,2.4636,2.4636,2.469,2.4997,2.5077,2.5144,2.5438,2.5945,2.6386,2.6386,2.6386,2.6386,2.6386,2.6386,2.6228,2.5911,2.5753,2.5594,2.4652,2.4492,2.4418,2.419,2.4889,2.5651,2.5918,2.6777,2.7268,2.7255,2.7001,2.6814,2.6814,2.7081,2.7268,2.7268,2.6968,2.6783,2.6796,2.6273,2.5933,2.5433,2.6286,2.6796,2.6796,2.7304,2.7812,2.8136,2.7812,2.7487,2.7487,2.7487,2.7812,1.2449,1.2682,1.265,1.1977,1.1491,1.1165,1.0435,1.0038,0.9812,0.997,1.0087,1.0188,1.0491,1.0788,1.1343,1.1973,1.2923,1.4017,1.5208,1.6283,1.7519,1.8696,1.9588,2.0416,0.0,0.0,2.181,2.2259,0.0,0.0,2.2408,2.2558,2.2707,2.3302,2.3408,2.352,2.3339,2.3445,2.3532,2.3487,2.3205,2.2873,2.2624,2.2526,2.241,0.0,0.0,0.0,0.0,2.4044,2.4193,2.4193,2.4193,2.4341,2.4341,2.4341,2.4488,2.4636,2.4636,2.4636,2.4636,2.4636,2.4636,2.4649,2.4743,2.4917,2.5144,2.5424,2.5798,2.6092,2.6092,2.6239,2.6386,2.6386,2.6228,2.5911,2.5753,2.5594,2.5289,2.497,2.4652,2.4579,2.5013,2.5539,2.5867,2.5956,2.6618,2.7,2.6816,2.6698,2.673,2.6841,2.6941,2.7165,2.7281,2.6968,2.6796,2.6796,2.6116,2.5775,2.5933,2.6103,2.6443,2.6783,2.6965,2.7304,2.7643,2.7643,2.7487,2.7487,2.7812,2.7968,1.1296,1.1683,1.1764,1.122,1.1189,1.103,1.0336,1.0111,1.0144,1.0353,1.0494,1.0647,1.0871,1.1283,1.1668,1.2107,1.2961,1.3909,1.4822,1.6124,1.7345,1.8818,0.0,0.0,0.0,2.1793,2.196,0.0,0.0,0.0,2.2259,2.2259,2.2558,2.3005,2.3171,2.3271,2.3168,2.3456,2.3607,2.3607,2.3169,2.2859,2.2777,2.2664,0.0,0.0,0.0,0.0,0.0,2.4488,2.4636,2.4636,2.4636,2.4636,2.4636,2.4636,2.4636,2.4636,2.4636,2.4636,2.4636,2.4636,2.4636,2.4636,2.4636,2.4836,2.5117,2.5304,2.5558,2.5785,2.5785,2.5999,2.6226,2.6226,2.6148,2.607,2.607,2.5753,2.5607,2.5448,2.5046,2.505,2.5664,2.5767,2.5981,2.6262,2.6762,2.6981,2.6799,2.6848,2.7033,2.6848,2.7,2.6978,2.7126,2.6865,2.6613,2.6783,2.5945,2.5604,2.5763,2.5763,2.6103,2.6443,2.6613,2.6783,2.7487,2.7487,2.7487,2.7487,2.7812,2.7968,0.0,1.0582,1.082,1.0701,1.0857,1.0773,1.0013,1.0162,0.0,1.0164,1.0778,1.1215,1.1008,1.1685,1.2271,1.2107,1.2973,1.3825,1.4316,1.5501,1.7101,0.0,2.0303,0.0,2.1088,2.18,2.2259,0.0,0.0,0.0,2.2259,2.2247,2.2247,2.2259,2.2693,2.2853,2.2624,2.3025,2.3313,2.3354,2.2933,2.2808,2.3057,2.3057,0.0,0.0,0.0,0.0,0.0,2.4488,2.4636,2.4636,2.4636,2.4636,2.4636,2.4636,2.4636,2.4636,2.4636,2.4636,2.4636,2.4636,2.4636,2.4636,2.4636,2.4823,2.505,2.505,2.5264,2.5491,2.5504,2.5732,2.5959,2.5985,2.6199,2.6386,2.6386,2.6386,2.6228,2.5911,2.5667,2.5638,2.5918,2.5853,2.5961,2.6575,2.7135,2.7304,2.6796,2.7394,2.7556,2.7057,2.707,2.707,2.7044,2.6449,2.6273,2.6783,2.5945,2.5433,2.5433,2.5433,2.5604,2.6103,2.6116,2.6651,2.7513,2.7513,2.75,2.7487,2.75,2.7838,0.9153,0.0,0.9978,0.9914,1.0066,1.0237,0.0,1.0302,1.0419,1.0569,1.0731,1.0905,1.1229,1.1688,1.2181,1.2732,1.3853,1.4792,1.4798,1.6541,0.0,1.9857,2.081,2.1378,2.1378,2.1921,2.2259,0.0,0.0,2.2259,2.2259,2.2078,2.2054,2.2259,2.2319,2.2459,2.2624,2.2536,2.2928,2.3661,2.295,2.296,2.3793,2.3201,2.3239,0.0,0.0,0.0,2.4488,2.4488,2.4636,2.4636,2.4636,2.4636,2.4636,2.4636,2.4636,2.4636,2.4636,2.4636,2.4636,2.4636,2.4636,2.4636,2.4636,2.469,2.4743,2.5039,2.5256,2.5389,2.5769,2.604,2.6012,2.6239,2.6333,2.6386,2.6386,2.6386,2.6228,2.5911,2.5667,2.5638,2.5918,2.5853,2.5793,2.6236,2.6613,2.6965,2.6796,2.7253,2.7459,2.7556,2.7407,2.7291,2.707,2.6449,2.6103,2.6273,2.5775,2.5433,2.5433,2.5433,2.5433,2.5604,2.6485,2.7101,2.7285,2.7984,2.8036,2.7487,2.805,2.8193,0.8884,0.939,0.9936,0.9833,1.0067,1.0297,1.0244,1.0288,1.0412,1.0547,1.0833,1.1181,1.1609,1.195,1.2407,1.3448,1.4205,1.4826,1.5812,1.7232,1.8685,2.0134,2.0871,2.139,0.0,0.0,0.0,0.0,0.0,2.2109,2.2259,2.2126,2.2262,2.2558,2.2443,2.2506,2.2802,2.2806,2.3227,2.3968,2.3393,2.3259,2.3849,2.3408,2.3344,0.0,0.0,0.0,2.4422,2.4289,2.4396,2.4623,2.4489,2.4516,2.4636,2.4636,2.4636,2.4636,2.4636,2.4636,2.4636,2.4636,2.4636,2.4636,2.4636,2.4636,2.4636,2.4931,2.4905,2.4943,2.554,2.5684,2.5825,2.6119,2.6293,2.6386,2.6386,2.6493,2.6587,2.6268,2.6022,2.5829,2.644,2.5774,2.5457,2.6054,2.6273,2.6494,2.6632,2.7225,2.7474,2.7422,2.7461,2.724,2.658,2.6355,2.6103,2.6103,2.5933,2.5604,2.5433,2.5433,2.5494,2.5615,2.661,2.7093,2.7059,2.8113,2.838,2.7878,2.838,2.8472,0.899,0.9605,1.0208,1.0019,1.0355,1.0628,1.0321,1.0441,1.052,1.0586,1.107,1.1677,1.2158,1.237,1.2955,1.4136,1.4304,0.0,1.7043,1.7729,1.8613,2.0122,2.0774,0.0,2.1764,2.1793,0.0,0.0,0.0,2.196,2.2259,2.2335,2.2472,2.2856,2.2655,2.2664,2.3031,2.3235,2.3506,2.4142,2.3746,2.364,2.3679,2.3679,2.3549,2.3471,0.0,0.0,2.4249,2.3915,2.4115,2.4609,2.4315,2.4382,2.4636,2.4636,2.4636,2.4636,2.4636,2.4636,2.4636,2.4636,2.4636,2.4636,2.4636,2.4636,2.4649,2.469,2.4703,2.477,2.5214,2.5358,2.5651,2.5945,2.6213,2.6386,2.6386,2.6587,2.6774,2.6653,2.6255,2.6223,2.6671,2.5744,2.5349,2.5896,2.614,2.6252,2.65,2.7012,2.746,2.7177,2.7302,2.6978,2.6165,2.6165,2.6178,2.6044,2.5982,2.5763,2.5433,2.5433,2.5566,2.582,2.6722,2.722,2.7109,2.8037,2.8561,2.8509,2.8561,2.8604,0.933,0.998,1.0481,1.0017,1.0474,1.0994,1.0762,1.0938,1.1193,1.1311,1.169,1.2104,1.2635,1.3233,1.3875,1.4509,1.5362,1.6499,0.0,0.0,1.8889,2.0171,0.0,2.145,2.1535,0.0,0.0,0.0,0.0,2.2259,2.2259,2.2129,2.2385,2.2843,2.2857,2.2976,2.3469,2.3288,2.3456,2.3834,2.3655,2.3891,2.4422,2.4127,2.4101,2.4342,0.0,2.4302,2.4529,2.3995,2.4115,2.4609,2.4315,2.4382,2.4636,2.4636,2.4636,2.4636,2.4636,2.4636,2.4636,2.4636,2.4784,2.5079,2.5079,2.5079,2.5133,2.5391,2.531,2.5227,2.5827,2.5972,2.5959,2.6253,2.636,2.6386,2.6386,2.6426,2.6374,2.5821,2.5766,2.5715,2.5334,2.5398,2.5385,2.5433,2.5971,2.6475,2.6525,2.7005,2.7152,2.719,2.6961,2.6714,2.6438,2.6795,2.6722,2.626,2.5675,2.5433,2.5433,2.5433,2.5566,2.582,2.6922,2.7584,2.7447,2.8758,2.911,2.8871,2.9123,2.9259,0.9453,1.0306,1.0974,1.0402,1.0816,1.1397,1.1397,1.1384,1.1478,1.1778,1.1989,1.2359,1.3264,1.3668,1.4334,1.5627,0.0,1.7865,1.877,1.8992,1.9448,0.0,0.0,2.1366,2.1667,0.0,0.0,0.0,0.0,0.0,2.2856,2.2755,2.3037,2.3438,2.3365,2.3418,2.3681,2.3549,2.3625,2.3768,2.3917,2.405,2.4168,2.4183,2.409,2.3928,0.0,2.4048,2.4155,2.3875,2.4115,2.4609,2.4315,2.4382,2.4636,2.4636,2.4636,2.4663,2.4823,2.4877,2.4903,2.5364,2.5459,2.5472,2.5769,2.5621,2.5513,2.565,2.5391,2.5184,2.5945,2.6007,2.6026,2.6319,2.6386,2.6386,2.6386,2.6507,2.6547,2.6528,2.6195,2.6096,2.6361,2.6029,2.5775,2.5763,2.6302,2.6748,2.6748,2.6785,2.6983,2.7272,2.7093,2.6782,2.6362,2.6735,2.6959,2.657,2.603,2.5651,2.5651,2.5518,2.5738,2.6178,2.7134,2.7797,2.7972,2.9132,2.9566,2.9285,2.9579,2.9566,0.9732,1.0584,1.1322,1.0891,1.1324,1.1927,1.1989,1.1992,1.212,1.2576,1.2647,1.2897,1.4018,1.4485,1.5132,1.6806,1.8105,1.8973,1.9193,1.9495,1.9929,2.0678,2.0931,2.1412,0.0,0.0,0.0,0.0,0.0,0.0,2.3438,2.3324,2.3581,2.394,2.3601,2.3601,2.3674,2.3661,2.3701,2.3768,2.4062,2.4128,2.3981,2.4209,2.4022,2.3541,2.3768,2.3875,2.3875,2.3794,2.4115,2.4609,2.4315,2.4382,2.4636,2.4636,2.4636,2.4676,2.497,2.5227,2.5268,2.5799,2.602,2.5963,2.6178,2.6057,2.5841,2.591,2.5691,2.5384,2.5838,2.6012,2.6119,2.6333,2.6386,2.6386,2.6386,2.656,2.6814,2.6945,2.6574,2.6452,2.7123,2.6639,2.6202,2.6202,2.6673,2.6856,2.6856,2.6672,2.6709,2.7115,2.7072,2.6723,2.6291,2.6729,2.6943,2.712,2.6399,2.6005,2.6005,2.575,2.6044,2.6598,2.7393,2.7882,2.823,2.9349,2.97,2.9486,2.978,2.9793,1.0242,1.085,1.1315,1.1617,1.2238,1.2668,1.2511,1.3135,1.382,1.4041,1.4129,1.4375,1.4734,1.5994,1.7159,1.8052,1.8937,1.9483,1.9784,0.0,2.0424,2.0967,2.1052,0.0,0.0,0.0,0.0,0.0,0.0,0.0,2.3438,2.3246,2.3379,2.364,2.3403,2.338,2.3367,2.3367,2.35,2.3768,2.4062,2.4329,2.4569,2.4596,2.4436,2.4142,2.4168,2.4168,2.4155,2.3888,2.4115,2.4609,2.4315,2.4382,2.4636,2.4636,2.4636,2.4676,2.497,2.5364,2.5664,2.5705,2.6154,2.6815,2.6514,2.6333,2.6168,2.6598,2.6279,2.5905,2.5945,2.6159,2.636,2.6386,2.6386,2.6386,2.6386,2.6413,2.6348,2.6331,2.6444,2.6553,2.6518,2.6506,2.65,2.65,2.6619,2.6604,2.6604,2.6592,2.6592,2.6641,2.6375,2.6303,2.658,2.6834,2.7148,2.7677,2.6958,2.6525,2.6525,2.6607,2.6796,2.6821,2.7444,2.793,2.793,2.9043,2.9499,2.9486,2.978,2.99,1.047,1.105,1.1601,1.192,1.2858,1.3593,1.3438,1.383,1.435,1.4778,1.5281,1.5708,1.6151,1.6686,1.7387,1.8605,1.9112,1.9602,2.0315,2.046,2.0731,2.1065,0.0,0.0,0.0,0.0,0.0,0.0,0.0,0.0,2.393,2.3865,2.3864,2.3798,2.3399,2.3327,2.3327,2.314,2.3193,2.35,2.3607,2.3808,2.4102,2.4289,2.4302,2.4209,2.4396,2.4369,2.4209,2.4275,2.4436,2.4623,2.4516,2.4543,2.4636,2.4636,2.4784,2.4972,2.5432,2.5527,2.5855,2.65,2.658,2.6532,2.7025,2.6752,2.657,2.6682,2.6471,2.6226,2.6226,2.6306,2.6386,2.6386,2.6386,2.6386,2.6386,2.6386,2.648,2.6613,2.658,2.677,2.689,2.7101,2.7059,2.6895,2.7132,2.7108,2.6778,2.671,2.6701,2.687,2.6785,2.6941,2.7218,2.7328,2.7558,2.8113,2.7471,2.7122,2.7121,2.7018,2.7145,2.7304,2.759,2.7984,2.814,2.9098,2.9392,2.9219,2.97,2.9913,1.0607,1.1107,1.1646,1.1992,1.3027,1.4102,1.4569,1.4974,1.5422,1.5925,1.6355,1.6613,1.6942,1.7029,0.0,0.0,1.9267,1.9847,2.0479,2.0665,2.0804,2.122,0.0,0.0,0.0,0.0,0.0,0.0,0.0,0.0,0.0,2.3981,2.3834,2.3634,2.334,2.322,2.3327,2.302,2.306,2.3474,2.3367,2.3527,2.3915,2.4209,2.4289,2.4222,2.4516,2.4476,2.4222,2.4516,2.4636,2.4636,2.4636,2.4636,2.4636,2.4636,2.4784,2.5133,2.5581,2.5841,2.6018,2.6815,2.688,2.6546,2.7054,2.6865,2.6572,2.6572,2.6398,2.6386,2.6386,2.6386,2.6386,2.6386,2.6453,2.6507,2.6413,2.6466,2.656,2.6667,2.6677,2.6935,2.742,2.7706,2.7759,2.7657,2.7864,2.7783,2.7421,2.7355,2.7194,2.7184,2.7208,2.7377,2.7739,2.792,2.8101,2.8655,2.8284,2.7826,2.781,2.7792,2.7732,2.78,2.8076,2.8287,2.843,2.9138,2.9379,2.9192,2.9686,2.9913,1.0632,1.0994,1.1446,1.1874,1.2845,1.4145,1.5805,1.6525,1.6938,1.7459,1.7303,1.6992,1.6689,1.7104,0.0,1.7999,1.9159,2.011,2.011,2.0388,2.0804,2.1207,0.0,0.0,0.0,0.0,0.0,0.0,0.0,0.0,0.0,2.3487,2.3327,2.3313,2.302,2.3006,2.3313,2.3006,2.3166,2.3754,2.3474,2.3634,2.4209,2.4502,2.4476,2.4222,2.4516,2.4476,2.4222,2.4516,2.4636,2.4636,2.4636,2.4636,2.4636,2.4636,2.4636,2.4676,2.5432,2.5977,2.6411,2.6709,2.6858,2.68,2.6485,2.6234,2.6129,2.6129,2.6243,2.6386,2.6386,2.6386,2.6386,2.6386,2.6613,2.6747,2.6453,2.6627,2.6747,2.6453,2.6867,2.7362,2.7655,2.8102,2.8426,2.8713,2.8655,2.8474,2.8474,2.8474,2.8294,2.7739,2.7727,2.7739,2.7739,2.8113,2.8655,2.9182,2.9182,2.8921,2.836,2.8683,2.8911,2.8617,2.8898,2.9045,2.9045,2.9339,2.9486,2.9486,2.978,2.9913,1.1381,1.151,1.1838,1.33,1.4265,1.5198,1.681,1.676,1.6799,1.7935,1.76,1.716,1.7601,1.7472,0.0,1.7871,1.8875,1.9565,1.9839,2.0407,2.0943,2.1496,0.0,0.0,0.0,0.0,0.0,0.0,0.0,0.0,0.0,2.338,2.3126,2.2699,2.2592,2.2592,2.2686,2.2592,2.2752,2.314,2.326,2.3634,2.4209,2.4289,2.4396,2.4516,2.4596,2.4583,2.4516,2.4596,2.4636,2.4636,2.4636,2.4636,2.4636,2.4636,2.4931,2.552,2.5764,2.5792,2.6087,2.6675,2.6528,2.622,2.6267,2.608,2.5841,2.5756,2.563,2.5819,2.5859,2.6228,2.644,2.664,2.676,2.6854,2.6974,2.7081,2.7108,2.7028,2.6994,2.7236,2.7735,2.7503,2.7548,2.8181,2.7758,2.739,2.739,2.739,2.739,2.7208,2.7208,2.7377,2.7739,2.8113,2.8655,2.9182,2.9541,2.9561,2.9189,2.9352,2.9219,2.8911,2.8991,2.9045,2.9045,2.9339,2.9486,2.9486,2.978,2.9913,1.1751,1.1907,1.2326,1.3915,1.4856,1.5886,1.7418,1.7688,1.7935,1.8715,1.824,1.7737,1.8042,1.7678,0.0,1.7518,1.8327,1.905,1.9426,1.9906,2.0525,2.1308,0.0,0.0,0.0,0.0,0.0,0.0,0.0,0.0,0.0,2.314,2.2979,2.2741,2.262,2.2606,2.2863,2.2499,2.2647,2.3046,2.3113,2.346,2.4035,2.4155,2.4369,2.4636,2.4636,2.4636,2.4636,2.4636,2.4636,2.4636,2.4636,2.4636,2.4636,2.4636,2.5079,2.5506,2.58,2.5946,2.6093,2.6546,2.6385,2.58,2.596,2.5662,2.5429,2.5312,2.5347,2.5531,2.57,2.607,2.6426,2.6613,2.6827,2.7014,2.7081,2.7268,2.7402,2.7281,2.7344,2.7354,2.7656,2.7541,2.7548,2.8017,2.7491,2.7194,2.7071,2.6701,2.6534,2.6892,2.6892,2.6892,2.7417,2.8144,2.85,2.8843,2.9495,2.9673,2.9486,2.9593,2.9513,2.9569,2.9325,2.9392,2.9392,2.9566,2.9659,2.9659,2.9833,2.9734,1.1911,1.2366,1.2815,1.4024,1.5127,1.6401,1.7882,1.8998,1.9691,1.9422,1.892,1.8442,1.8173,1.774,1.7292,1.7044,1.7796,1.8598,0.0,1.9329,1.9831,0.0,0.0,0.0,0.0,0.0,0.0,0.0,0.0,0.0,0.0,2.2806,2.3052,2.3324,2.3023,2.2996,2.3283,2.2736,2.2767,2.3207,2.2939,2.3126,2.3701,2.4048,2.4369,2.4636,2.4636,2.4636,2.4636,2.4636,2.4636,2.4636,2.4636,2.4636,2.4636,2.4636,2.4931,2.5373,2.5653,2.6093,2.6399,2.6385,2.6093,2.5653,2.5373,2.5024,2.4866,2.4892,2.5283,2.5714,2.574,2.607,2.6386,2.6386,2.6841,2.7188,2.6921,2.7321,2.7655,2.7362,2.7535,2.7676,2.7474,2.7797,2.8075,2.7839,2.7546,2.709,2.6783,2.6066,2.5901,2.677,2.6406,2.6406,2.6758,2.7635,2.8347,2.8374,2.896,2.9459,2.9486,2.9766,2.9972,3.0219,2.9958,2.9913,2.9913,2.9913,2.9913,2.9913,2.9734,2.9554,1.1992,1.2643,1.3397,1.5161,1.6883,1.8401,1.8932,1.9598,1.9944,1.91,1.853,1.8162,1.8033,1.7729,1.7292,1.7044,1.794,1.8619,1.8604,0.0,0.0,0.0,0.0,0.0,0.0,0.0,0.0,0.0,0.0,0.0,2.2846,2.2687,2.2576,2.2695,2.2669,2.2544,2.2353,2.223,2.238,0.0,2.2566,2.2848,2.3515,2.4004,2.4369,2.4636,2.4636,2.4636,2.4636,2.4636,2.4784,2.5079,2.4784,2.4784,2.5079,2.4784,2.5079,2.5653,2.58,2.58,2.5946,2.6239,2.596,2.5373,2.5239,2.489,2.4605,2.4827,2.4985,2.5152,2.5687,2.607,2.6386,2.6386,2.6841,2.7241,2.7188,2.7629,2.7963,2.7171,2.7019,2.7122,2.7234,2.6536,2.5973,2.5877,2.5896,2.5861,2.5395,2.5333,2.5391,2.536,2.5336,2.5336,2.5866,2.6394,2.7209,2.813,2.8517,2.9057,2.9988,2.9931,2.9887,2.9998,2.9887,2.9913,2.9913,2.9554,2.9362,2.9362,2.9015,2.8835,1.2039,1.29,1.3951,1.6211,1.7779,1.8878,1.9626,2.0011,2.0022,1.9372,1.8764,1.8346,1.7956,1.7686,1.7292,1.7044,1.7609,1.817,1.8422,0.0,0.0,0.0,0.0,0.0,0.0,0.0,0.0,0.0,0.0,2.2405,2.27,2.2549,2.2635,2.3028,2.2863,2.2708,2.258,2.2426,2.2452,2.2504,2.2517,2.2846,2.3584,2.3944,2.4155,2.4436,2.4436,2.4502,2.4636,2.4636,2.4784,2.4931,2.4636,2.4784,2.4931,2.4636,2.4931,2.5506,2.5506,2.5653,2.58,2.5814,2.552,2.5226,2.4931,2.4539,2.4224,2.4814,2.4791,2.4905,2.5674,2.607,2.6386,2.6386,2.6734,2.7094,2.7241,2.7509,2.7596,2.7226,2.7097,2.685,2.6448,2.5441,2.4685,2.4453,2.4316,2.4157,2.3785,2.3672,2.3662,2.3942,2.3743,2.3875,2.4452,2.4975,2.573,2.6748,2.7258,2.8069,2.9245,2.9362,2.9521,3.0055,3.0191,3.0093,2.9554,2.9362,2.9002,2.8462,2.8281,2.7933,1.1935,1.316,1.4602,1.6873,1.8039,1.8744,1.9753,2.0026,1.997,1.9436,1.9127,1.8615,1.8091,1.7577,1.7249,1.7033,1.7271,1.7725,1.8319,0.0,0.0,0.0,0.0,0.0,0.0,0.0,0.0,0.0,0.0,2.2133,2.2504,2.2538,2.2888,2.3465,2.3292,2.3134,2.3006,2.2734,2.2652,2.2552,2.2674,2.3098,2.3676,2.362,2.3808,2.4273,2.4273,2.4289,2.4556,2.4556,2.4596,2.4636,2.4636,2.4636,2.4636,2.4636,2.4784,2.5226,2.5226,2.5373,2.5653,2.5373,2.5092,2.5079,2.4636,2.4266,2.4124,2.4827,2.483,2.4982,2.5687,2.5911,2.6228,2.6228,2.6414,2.6653,2.7054,2.7241,2.7139,2.7071,2.6709,2.6036,2.5116,2.43,2.3709,2.3219,2.3052,2.2754,2.2526,2.2179,2.2097,2.2701,2.2319,2.241,2.3053,2.3581,2.4121,2.498,2.5687,2.6611,2.7721,2.8302,2.8811,2.9568,3.0082,2.99,2.9002,2.8822,2.8281,2.7377,2.7377,2.7015,1.1248,1.3453,1.5458,1.6317,1.758,1.8499,1.8717,1.922,1.9485,1.8264,1.8339,1.8489,1.809,1.7444,1.7044,1.7012,1.7271,1.7669,1.795,0.0,0.0,0.0,0.0,0.0,0.0,0.0,0.0,0.0,2.1767,2.1956,2.2476,2.278,2.3116,2.3135,2.334,2.3304,2.2677,2.2634,2.2792,2.3021,2.3271,2.3161,2.264,2.2984,2.3426,2.4249,2.4249,2.4282,2.4262,2.4262,2.4555,2.5079,2.4784,2.4784,2.5079,2.4784,2.4784,2.5226,2.5226,2.5226,2.5226,2.5226,2.4931,2.4636,2.4636,2.471,2.484,2.5338,2.5283,2.5238,2.574,2.5607,2.5448,2.5753,2.5633,2.5512,2.6334,2.6782,2.6773,2.5765,2.4578,2.3742,2.3457,2.2855,2.2444,2.2296,2.2342,2.2212,2.2,2.2131,2.2091,2.1842,2.1802,2.1885,2.2189,2.2347,2.2977,2.4013,2.4395,2.4963,2.5682,2.6772,2.7432,2.7335,2.873,2.9182,2.8655,2.7727,2.7003,2.6482,2.6106,2.6106,1.169,1.3021,1.4314,1.577,1.6806,1.7585,1.8307,1.8998,1.9228,1.8129,1.8149,1.8047,1.7152,1.7085,1.6915,1.6657,1.7096,1.7613,1.7851,0.0,0.0,0.0,0.0,0.0,0.0,0.0,0.0,0.0,2.1393,2.1672,2.224,2.2637,2.2928,2.3058,2.3179,2.323,2.2856,2.2856,2.2803,2.2835,2.2849,2.2791,2.2794,2.2998,2.3419,2.3817,2.3728,2.4195,2.4761,2.4616,2.4698,2.4966,2.482,2.4674,2.4688,2.4396,2.4649,2.4931,2.4931,2.4931,2.4931,2.4931,2.4784,2.4636,2.4636,2.4512,2.4488,2.4953,2.492,2.4723,2.5199,2.5435,2.5448,2.5435,2.5435,2.5646,2.5801,2.5801,2.5462,2.4472,2.3631,2.2891,2.2468,2.206,2.1873,2.1581,2.179,2.1758,2.1615,2.1703,2.1452,2.0781,2.0923,2.1194,2.1156,2.1459,2.1967,2.2845,2.2845,2.337,2.4406,2.5032,2.5595,2.6435,2.8106,2.8488,2.7739,2.7184,2.6458,2.5377,2.5195,2.5195,1.2048,1.2638,1.3266,1.4796,1.5644,1.6393,1.741,1.8224,1.8382,0.0,1.7666,1.7451,1.623,1.6571,1.6894,1.6549,1.7041,1.7474,1.7667,0.0,0.0,0.0,0.0,0.0,0.0,0.0,0.0,0.0,2.1094,2.1589,2.2341,2.2731,2.3106,2.323,2.3444,2.3319,2.3106,2.3068,2.2817,2.2369,2.2318,2.2416,2.2669,2.2875,2.3161,2.3311,2.3349,2.3909,2.4828,2.4624,2.4548,2.463,2.4698,2.4553,2.4209,2.4289,2.4409,2.4529,2.4609,2.4636,2.4636,2.4636,2.4636,2.4649,2.473,2.4499,2.4507,2.4866,2.4752,2.4596,2.5028,2.5289,2.5435,2.513,2.534,2.5455,2.5263,2.4886,2.4399,2.3506,2.29,2.2168,2.1822,2.1433,2.1107,2.1214,2.1209,2.1221,2.113,2.1168,2.0899,2.0318,2.0482,2.0571,2.0355,2.0431,2.0702,2.1353,2.1225,2.1757,2.2744,2.3083,2.3846,2.5171,2.6783,2.7275,2.664,2.6458,2.573,2.4646,2.4646,2.4646,1.1651,1.2375,1.2979,1.2969,1.4088,1.5311,1.5407,1.616,1.6783,1.6322,1.656,1.6597,1.5429,1.6237,1.699,1.6969,1.699,1.713,1.7518,1.7518,0.0,0.0,0.0,0.0,0.0,0.0,0.0,0.0,2.1147,2.1718,2.2952,2.3604,2.3852,2.3604,2.4169,2.4059,2.3106,2.316,2.2652,2.1614,2.1854,2.1857,2.159,2.1912,2.231,2.2996,2.3297,2.3349,2.3394,2.3674,2.3955,2.4235,2.4502,2.4449,2.4235,2.4516,2.4449,2.4262,2.4543,2.4636,2.4636,2.4636,2.4636,2.469,2.497,2.5251,2.5378,2.536,2.519,2.5092,2.513,2.4811,2.4652,2.497,2.5012,2.4951,2.4717,2.4472,2.4071,2.2955,2.1984,2.1302,2.1302,2.0617,2.0247,2.1015,2.0904,2.0705,2.1121,2.1168,2.1083,2.0866,2.0482,2.0034,1.9825,1.9616,1.9461,1.9266,1.9798,2.018,1.9968,2.1253,2.244,2.3188,2.4102,2.4947,2.5742,2.5183,2.4646,2.4107,2.4107,2.4291,1.0912,1.1347,1.173,1.2407,1.3069,1.3684,1.4523,1.5129,1.5545,1.5716,1.606,1.6189,1.5839,1.6172,1.6463,1.6151,1.6484,1.6914,1.7285,1.7152,0.0,0.0,0.0,0.0,0.0,0.0,0.0,0.0,0.0,2.219,2.3076,2.3743,2.4082,2.4295,2.4094,2.3598,2.2731,2.2539,2.2029,2.1235,2.0877,2.0876,2.1175,2.1619,2.2149,2.27,2.3419,2.3859,2.4024,2.4341,2.452,2.4657,2.496,2.487,2.4643,2.4461,2.4409,2.4489,2.4596,2.4636,2.4636,2.4636,2.4636,2.469,2.4997,2.4993,2.4862,2.4868,2.4617,2.4427,2.4283,2.4332,2.4529,2.4541,2.4462,2.4234,2.366,2.3405,2.3093,2.232,2.1822,2.1302,2.1302,2.1064,2.1087,2.1214,2.119,2.125,2.131,2.1357,2.1189,2.0494,2.0503,2.0421,1.9471,1.941,1.949,1.9297,1.9158,1.9105,1.9275,2.0062,2.1086,2.2111,2.2799,2.3828,2.5012,2.4818,2.4646,2.4118,2.4118,2.4291,1.0606,1.0852,1.1042,1.1805,1.2198,1.2563,1.3367,1.3959,1.4376,1.4724,1.5319,1.5642,1.5677,1.586,1.6021,1.586,1.636,1.679,1.703,1.7145,0.0,0.0,0.0,0.0,0.0,0.0,0.0,0.0,0.0,0.0,2.3698,2.4115,2.4393,2.473,2.4265,2.3532,2.2763,2.234,2.1659,2.0742,2.0257,2.0396,2.1045,2.1424,2.1965,2.2835,2.3579,2.398,2.4136,2.4596,2.4778,2.4904,2.5082,2.5049,2.4774,2.4448,2.4409,2.4502,2.4609,2.4636,2.4636,2.4636,2.4636,2.4716,2.5104,2.4921,2.457,2.4841,2.4535,2.4098,2.4123,2.4172,2.4258,2.4287,2.3833,2.3223,2.3235,2.3093,2.2686,2.2168,2.1884,2.1587,2.1587,2.1595,2.1462,2.1501,2.1297,2.1172,2.1414,2.1283,2.1169,2.0801,2.0819,2.0384,1.9682,1.9313,1.9159,1.9039,1.8778,1.8869,1.8923,1.9656,2.0649,2.1673,2.2485,2.3473,2.4646,2.4646,2.4474,2.4118,2.4291,2.4829,0.0,0.0,0.0,1.1124,1.1543,1.1947,1.1952,1.2554,1.3211,1.3706,1.4374,1.4869,1.4869,1.5257,1.5731,1.6204,1.6538,1.6786,1.6797,1.728,0.0,0.0,0.0,0.0,0.0,0.0,0.0,0.0,2.2259,2.3157,2.5056,2.4857,2.4782,2.5109,2.4887,2.4254,2.3092,2.2323,2.1403,2.0119,2.0023,2.0396,2.1032,2.1032,2.2002,2.3476,2.349,2.3537,2.3434,2.415,2.4596,2.4904,2.4795,2.4774,2.4802,2.4676,2.4462,2.4262,2.4543,2.4636,2.4636,2.4649,2.4649,2.4756,2.5344,2.5212,2.4868,2.5135,2.4811,2.4492,2.4504,2.4185,2.3824,2.4351,2.3132,2.2105,2.3093,2.3376,2.3031,2.2168,2.2172,2.2319,2.2329,2.1828,2.1521,2.2262,2.1029,2.0456,2.1423,2.1104,2.0998,2.1782,2.0846,2.0263,2.0254,1.9129,1.846,1.8452,1.8844,1.8922,1.8922,2.0208,2.1105,2.1869,2.3122,2.386,2.4118,2.4107,2.4118,2.4118,2.4646,2.5548,1.0086,0.0,0.0,0.0,0.0,0.0,0.0,1.2124,1.2576,1.3405,1.421,1.4757,1.4944,1.5321,1.5747,1.6071,1.6537,1.6952,1.738,1.7851,1.8178,0.0,0.0,0.0,0.0,0.0,0.0,0.0,2.3309,2.4364,2.531,2.5814,2.5766,2.5124,2.4991,2.4223,2.2708,2.2531,2.184,2.0786,2.0691,2.0979,2.1421,2.1894,2.2476,2.3168,2.3658,2.3941,2.4252,2.4701,2.5029,2.5342,2.5226,2.5333,2.5395,2.4891,2.4583,2.4529,2.4609,2.4636,2.4676,2.489,2.4957,2.5064,2.5651,2.536,2.4815,2.5028,2.4492,2.3888,2.392,2.3481,2.3119,2.2956,2.2234,2.18,2.2277,2.2341,2.2341,2.2514,2.2347,2.2329,2.2691,2.2663,2.2403,2.2283,2.1703,2.141,2.165,2.1507,2.1457,2.1606,2.1439,2.0995,2.0474,2.0089,1.9725,1.9587,1.9648,1.9831,1.9831,2.0552,2.1439,2.2191,2.2868,2.3497,2.4118,2.4463,2.4646,2.4646,2.556,2.6288,0.0,0.0,0.0,0.0,0.0,0.0,1.1166,1.1409,1.1941,0.0,1.3214,1.3784,1.4338,1.4831,1.5429,1.5908,1.6562,1.7149,1.7505,1.8163,1.8762,0.0,0.0,0.0,0.0,2.1639,2.2312,2.3121,2.4082,2.5038,2.5951,2.6405,2.6087,2.5088,2.4887,2.4128,2.2762,2.2421,2.1897,2.1215,2.1237,2.1489,2.1984,2.2168,2.2786,2.3434,2.3751,2.4142,2.4593,2.4789,2.5106,2.5423,2.5158,2.5324,2.5472,2.4877,2.4636,2.4636,2.4636,2.4636,2.4663,2.4836,2.489,2.4983,2.5451,2.5203,2.4739,2.4863,2.432,2.3722,2.3551,2.3001,2.2521,2.2414,2.165,2.12,2.1597,2.1721,2.2131,2.2663,2.2845,2.286,2.3321,2.3284,2.3013,2.2923,2.2317,2.1817,2.225,2.1915,2.1652,2.1967,2.1799,2.153,2.1144,2.0744,2.0503,2.0403,2.0833,2.0982,2.0896,2.1581,2.2327,2.2826,2.3284,2.3763,2.4463,2.4463,2.4829,2.5377,2.6288,2.7015,0.0,0.0,0.0,0.0,0.0,0.0,1.0585,1.1006,1.1511,0.0,1.2102,1.2811,1.3478,1.4207,1.4966,1.5802,1.6562,1.7189,1.7518,1.8468,1.9292,0.0,0.0,0.0,2.2085,2.205,2.256,2.3991,2.473,2.539,2.6323,2.6433,2.5897,2.4994,2.4272,2.3609,2.2897,2.2241,2.1846,2.1595,2.1654,2.2057,2.2676,2.2373,2.2905,2.4071,2.3638,2.3839,2.4598,2.4473,2.4789,2.5426,2.5031,2.5058,2.5221,2.481,2.4636,2.4636,2.4636,2.4636,2.4636,2.4676,2.469,2.4743,2.5037,2.5027,2.4842,2.4659,2.416,2.3598,2.3458,2.2654,2.1894,2.214,2.119,2.0402,2.1118,2.1514,2.1852,2.2765,2.3289,2.3504,2.3709,2.3581,2.3456,2.3676,2.2586,2.2,2.2808,2.2094,2.1782,2.2564,2.2191,2.1921,2.2104,2.1695,2.1395,2.1353,2.2019,2.2332,2.2117,2.2765,2.339,2.3688,2.3917,2.4217,2.4635,2.4474,2.5023,2.63,2.6833,2.7908,0.0,0.0,0.0,0.0,0.0,0.0,1.1464,1.2012,1.2671,0.0,1.3309,1.4108,1.4098,1.4875,1.5733,1.6185,1.6673,1.7365,1.8112,1.9289,2.0118,2.0471,0.0,0.0,2.278,2.3183,2.376,2.4244,2.4918,2.5377,2.5342,2.5092,2.4766,2.4172,2.3319,2.278,2.2635,2.2504,2.2372,2.2254,2.2795,2.3295,2.3658,2.3346,2.3493,2.4071,2.3164,2.3508,2.4569,2.3961,2.4452,2.5426,2.5031,2.5058,2.5221,2.481,2.4636,2.4636,2.4636,2.4636,2.4676,2.4917,2.4997,2.505,2.5344,2.5163,2.4672,2.416,2.3824,2.347,2.3007,2.224,2.147,2.1008,2.0501,2.0286,2.0852,2.1215,2.1601,2.2851,2.3465,2.3698,2.3741,2.3946,2.3825,2.3676,2.352,2.331,2.3577,2.3445,2.3332,2.3736,2.3561,2.3481,2.3262,2.3415,2.3467,2.3373,2.4037,2.423,2.3984,2.4258,2.4198,2.3996,2.3976,2.4204,2.4291,2.5023,2.5377,2.5742,2.7377,2.8294,0.0,0.0,0.0,1.0863,0.0,0.0,0.0,1.2006,1.2355,1.211,1.2614,1.3139,1.3579,1.4276,1.5068,1.5776,1.6439,1.7244,1.8047,1.9083,2.0014,2.0582,0.0,0.0,2.3197,2.364,2.3971,2.4192,2.4306,2.4318,2.4259,2.3749,2.3363,2.3275,2.2323,2.1923,2.2241,2.2236,2.2435,2.2736,2.3171,2.3728,2.4252,2.407,2.4101,2.4071,2.3393,2.3508,2.4072,2.3434,2.3905,2.4782,2.4834,2.4832,2.474,2.4622,2.4636,2.4636,2.4636,2.4636,2.4663,2.481,2.4863,2.489,2.5037,2.4762,2.444,2.4529,2.3968,2.3177,2.2888,2.2075,2.12,2.0732,2.0162,1.9915,2.0371,2.074,2.1132,2.2071,2.293,2.3753,2.3935,2.4032,2.4042,2.4207,2.4062,2.3852,2.4125,2.3993,2.384,2.3951,2.4054,2.4094,2.4239,2.4458,2.4789,2.4665,2.5348,2.5382,2.4949,2.4992,2.4823,2.4452,2.4404,2.4657,2.484,2.5377,2.5742,2.5936,2.7752,2.8655,0.0,0.0,0.0,0.0,0.0,1.2235,0.0,0.0,0.0,1.1809,1.1899,1.2226,1.3071,1.3741,1.4432,0.0,0.0,0.0,0.0,1.8457,0.0,2.0539,0.0,0.0,2.3244,2.3478,2.3586,2.357,2.3243,2.3048,2.2991,2.2328,2.209,2.2456,2.159,2.1474,2.216,2.2244,2.2497,2.3057,2.3504,2.3955,2.453,2.4686,2.4554,2.4304,2.3782,2.3666,2.3927,2.3189,2.3495,2.4158,2.4484,2.4607,2.4263,2.4569,2.4636,2.4636,2.4636,2.4636,2.4636,2.4636,2.4636,2.4663,2.4621,2.4376,2.4275,2.4912,2.4076,2.2928,2.2664,2.1821,2.0908,2.0568,1.9968,1.9545,2.0065,2.0478,2.0877,2.1413,2.2292,2.3321,2.3924,2.4118,2.4269,2.4732,2.4608,2.4398,2.4872,2.473,2.4546,2.4546,2.4725,2.4875,2.5195,2.5476,2.5692,2.589,2.6499,2.6401,2.5616,2.553,2.5299,2.5063,2.4969,2.5195,2.556,2.5742,2.5936,2.63,2.7752,2.8474,0.0,0.0,0.0,0.0,1.2804,0.0,0.0,0.0,1.3056,1.27,0.0,1.3891,1.4198,0.0,0.0,0.0,0.0,0.0,1.6615,1.7662,1.891,2.0393,2.0841,0.0,0.0,2.2988,2.2774,2.2237,2.201,2.1601,2.109,2.1208,2.1327,2.1696,2.1556,2.1806,2.2493,2.273,2.3004,2.3078,2.3918,2.4458,2.4627,2.4849,2.5084,2.4877,2.4025,2.4242,2.5287,2.3708,2.3553,2.4431,2.4371,2.4337,2.4263,2.4569,2.4636,2.4636,2.4636,2.4636,2.4636,2.4636,2.4636,2.4581,2.4796,2.4534,2.4238,2.405,2.3587,2.2954,2.1662,2.1299,2.1098,2.026,2.0204,2.0299,2.0497,2.0818,2.1102,2.1296,2.1539,2.2222,2.3342,2.3751,2.4269,2.4732,2.5185,2.5549,2.6045,2.6487,2.6669,2.6669,2.6647,2.6587,2.67,2.6766,2.6965,2.7297,2.7529,2.7431,2.6626,2.5892,2.5583,2.5686,2.5604,2.556,2.556,2.5924,2.63,2.63,2.7377,2.7546,0.0,0.0,0.0,0.0,0.0,0.0,0.0,0.0,1.3577,0.0,0.0,0.0,0.0,0.0,0.0,0.0,1.6271,0.0,0.0,0.0,1.8024,0.0,0.0,0.0,0.0,0.0,0.0,0.0,2.0181,1.9952,1.9387,2.0027,2.0604,2.1091,2.1644,2.2174,2.2553,2.2935,2.3163,2.3348,2.4203,2.451,2.4569,2.5293,2.5426,2.5069,2.4476,2.456,2.493,2.3608,2.328,2.3891,2.4022,2.4052,2.412,2.4422,2.4636,2.4636,2.4636,2.4636,2.4663,2.4836,2.489,2.501,2.5445,2.4868,2.4263,2.4357,2.375,2.283,2.2105,2.165,2.1312,2.0752,2.0666,2.0928,2.1233,2.1135,2.1201,2.15,2.1636,2.1935,2.2262,2.2992,2.3881,2.4911,2.5285,2.5928,2.6613,2.6874,2.7203,2.7245,2.7381,2.7497,2.7594,2.7814,2.8055,2.7998,2.7732,2.7499,2.7025,2.6549,2.6363,2.6271,2.5797,2.5924,2.6482,2.6118,2.6118,2.6664,2.7377,2.7365,0.9617,0.0,0.0,0.0,0.0,0.0,0.0,0.0,0.0,0.0,0.0,0.0,0.0,0.0,1.5743,0.0,0.0,1.6799,0.0,0.0,0.0,0.0,0.0,0.0,0.0,0.0,0.0,0.0,0.0,1.8707,1.8453,1.9233,2.0064,2.0781,2.1782,2.2352,2.2601,2.3149,2.3562,2.3598,2.4267,2.4595,2.4716,2.5574,2.5738,2.5333,2.4885,2.4925,2.5115,2.3579,2.3384,2.3834,2.3868,2.3768,2.3834,2.4422,2.4636,2.4636,2.4784,2.4837,2.4932,2.5066,2.5214,2.5277,2.5859,2.5268,2.4377,2.4579,2.3913,2.2785,2.2148,2.1821,2.1615,2.1435,2.1299,2.1343,2.1919,2.16,2.1452,2.1859,2.2034,2.1925,2.1698,2.2433,2.3528,2.4486,2.5251,2.5938,2.6884,2.7279,2.758,2.7843,2.7968,2.826,2.8528,2.8796,2.8726,2.8522,2.7943,2.7667,2.7432,2.7109,2.6992,2.6737,2.6025,2.6118,2.7027,2.6118,2.63,2.7027,2.7377,2.7196,0.0,0.0,0.0,1.3492,0.0,0.0,0.0,0.0,1.5267,0.0,0.0,0.0,0.0,0.0,1.6234,0.0,0.0,0.0,0.0,0.0,0.0,0.0,0.0,0.0,0.0,0.0,0.0,0.0,0.0,0.0,1.8454,1.907,2.0016,2.1203,2.206,2.2637,2.2637,2.3893,2.4184,2.3634,2.4291,2.4735,2.5153,2.5489,2.5758,2.5974,2.5405,2.5711,2.6498,2.3941,2.379,2.4824,2.409,2.3768,2.3834,2.4422,2.4636,2.4636,2.5079,2.5431,2.5623,2.5335,2.5337,2.5504,2.599,2.541,2.4579,2.4074,2.3563,2.2977,2.1641,2.164,2.1811,2.1475,2.1464,2.1686,2.1919,2.2141,2.2171,2.2024,2.2079,2.2232,2.201,2.2512,2.3101,2.3352,2.4668,2.5857,2.661,2.7816,2.8507,2.8753,2.9093,2.9384,2.9469,2.9351,2.9112,2.9072,2.867,2.8263,2.8017,2.7496,2.7275,2.7015,2.647,2.6482,2.7027,2.6482,2.6482,2.7027,2.7027,2.6482,0.0,0.0,1.1865,1.3383,0.0,0.0,0.0,0.0,0.0,0.0,0.0,0.0,0.0,0.0,0.0,0.0,0.0,0.0,0.0,0.0,0.0,0.0,0.0,0.0,0.0,0.0,0.0,0.0,0.0,0.0,0.0,1.8828,2.0032,2.08,2.198,2.2782,2.2902,2.3352,2.3518,2.329,2.4215,2.4532,2.4419,2.5482,2.5882,2.581,2.5298,2.5329,2.5535,2.3985,2.353,2.3969,2.3651,2.3735,2.4106,2.4422,2.4636,2.4636,2.4784,2.5256,2.5965,2.5553,2.5796,2.6316,2.6351,2.5557,2.4629,2.4134,2.3575,2.2808,2.2126,2.2161,2.215,2.2298,2.2347,2.2578,2.281,2.3041,2.3262,2.331,2.3473,2.3294,2.2915,2.3272,2.3895,2.4341,2.5162,2.6075,2.7433,2.8136,2.8719,2.9371,2.9637,3.0016,3.0267,2.9958,2.988,2.9866,2.9138,2.864,2.8042,2.7877,2.7467,2.7027,2.63,2.63,2.7027,2.63,2.63,2.7027,2.7027,2.6664,0.9605,1.0697,0.0,1.3534,1.4528,0.0,1.6326,0.0,0.0,0.0,0.0,0.0,0.0,0.0,0.0,0.0,0.0,0.0,0.0,1.7617,0.0,0.0,0.0,0.0,0.0,0.0,0.0,0.0,0.0,0.0,0.0,0.0,1.9636,2.053,2.1725,2.2466,2.2571,2.3021,2.3112,2.311,2.3915,2.4265,2.4508,2.5319,2.5716,2.5767,2.5257,2.5206,2.5405,2.3985,2.3662,2.3714,2.3525,2.3863,2.4364,2.458,2.4983,2.5226,2.4931,2.5554,2.624,2.5992,2.6156,2.6594,2.652,2.5766,2.4806,2.4714,2.3892,2.3019,2.267,2.2631,2.2492,2.2643,2.2805,2.3009,2.351,2.3694,2.407,2.458,2.4635,2.4514,2.4285,2.433,2.4429,2.4504,2.4943,2.603,2.7561,2.8074,2.8698,2.9808,3.0354,3.0623,3.0973,3.0959,3.0629,3.0342,2.9798,2.9256,2.8552,2.8207,2.8025,2.7488,2.6382,2.62,2.7121,2.62,2.6118,2.6845,2.6845,2.6845]},{"header":{"parameterUnit":"m.s-1","parameterCategory":1,"la1":30.6,"la2":29.2853,"lo1":-89.7004,"lo2":-87.6739,"dy":0.0162,"dx":0.0183,"nx":112,"ny":82,"refTime":"2023-05-25T18:00:00:Z","depth":0,"parameterNumber":3,"parameterNumberName":"V-component_of_WINDS"},"data":[0.0,0.0,0.0,0.0,0.0,0.0,0.0,0.0,0.0,0.0,0.0,0.0,0.0,0.0,0.0,0.0,0.0,0.0,0.0,0.0,0.0,0.0,0.0,0.0,0.0,0.0,0.0,0.0,0.0,0.0,0.0,0.0,0.0,0.0,0.0,0.0,0.0,0.0,0.0,0.0,0.0,0.0,0.0,0.0,0.0,0.0,0.0,0.0,0.0,0.0,0.0,0.0,0.0,0.0,0.0,0.0,0.0,0.0,0.0,0.0,0.0,0.0,0.0,0.0,0.0,0.0,0.0,0.0,0.0,0.0,0.0,0.0,0.0,0.0,0.0,0.0,0.0,0.0,0.0,0.0,0.0,0.0,0.0,0.0,0.0,0.0,0.0,0.0,0.0,0.0,0.0,4.374,4.7802,4.9901,4.8981,4.7227,4.4109,3.9216,0.0,0.0,0.0,0.0,0.0,0.0,0.0,0.0,0.0,0.0,0.0,0.0,0.0,0.0,0.0,0.0,0.0,0.0,0.0,0.0,0.0,0.0,0.0,0.0,0.0,0.0,0.0,0.0,0.0,0.0,0.0,0.0,0.0,0.0,0.0,0.0,0.0,0.0,0.0,0.0,0.0,0.0,0.0,0.0,0.0,0.0,0.0,0.0,0.0,0.0,0.0,0.0,0.0,0.0,0.0,0.0,0.0,0.0,0.0,0.0,0.0,0.0,0.0,0.0,0.0,0.0,0.0,0.0,0.0,0.0,0.0,0.0,0.0,0.0,0.0,0.0,0.0,0.0,0.0,0.0,0.0,0.0,0.0,0.0,0.0,0.0,0.0,0.0,0.0,0.0,0.0,0.0,0.0,0.0,0.0,0.0,0.0,0.0,0.0,0.0,0.0,0.0,0.0,0.0,4.4447,4.964,5.075,5.0733,4.9812,4.7551,4.4324,4.0,0.0,0.0,0.0,0.0,0.0,0.0,0.0,0.0,0.0,0.0,0.0,0.0,0.0,0.0,0.0,0.0,0.0,0.0,0.0,0.0,0.0,0.0,0.0,0.0,0.0,0.0,0.0,0.0,0.0,0.0,0.0,0.0,0.0,0.0,0.0,0.0,0.0,0.0,0.0,0.0,0.0,0.0,0.0,0.0,0.0,0.0,0.0,0.0,0.0,0.0,0.0,0.0,0.0,0.0,0.0,0.0,0.0,0.0,0.0,0.0,0.0,0.0,0.0,0.0,0.0,0.0,0.0,0.0,0.0,0.0,0.0,0.0,0.0,0.0,0.0,0.0,0.0,0.0,0.0,0.0,0.0,0.0,0.0,0.0,0.0,0.0,0.0,0.0,0.0,0.0,0.0,0.0,0.0,0.0,0.0,0.0,0.0,0.0,0.0,0.0,0.0,0.0,0.0,4.3282,4.6666,5.0939,5.1737,5.1439,5.0118,4.8063,4.4869,4.0221,3.7962,0.0,0.0,0.0,0.0,0.0,0.0,0.0,0.0,0.0,0.0,0.0,0.0,0.0,0.0,0.0,0.0,0.0,0.0,0.0,0.0,0.0,0.0,0.0,0.0,0.0,0.0,0.0,0.0,0.0,0.0,0.0,0.0,0.0,0.0,0.0,0.0,0.0,0.0,0.0,0.0,0.0,0.0,0.0,0.0,0.0,0.0,0.0,0.0,0.0,0.0,0.0,0.0,0.0,0.0,0.0,0.0,0.0,0.0,0.0,0.0,0.0,0.0,0.0,0.0,0.0,0.0,0.0,0.0,0.0,0.0,0.0,0.0,0.0,0.0,0.0,0.0,0.0,0.0,0.0,0.0,0.0,0.0,0.0,0.0,0.0,0.0,0.0,0.0,0.0,0.0,0.0,0.0,0.0,0.0,0.0,0.0,0.0,0.0,0.0,0.0,0.0,0.0,4.6593,4.8416,5.1338,5.2218,5.1928,5.0242,4.8287,4.5156,4.0584,3.8071,0.0,0.0,0.0,0.0,0.0,0.0,0.0,0.0,0.0,0.0,0.0,0.0,0.0,0.0,0.0,0.0,0.0,0.0,0.0,0.0,0.0,0.0,0.0,0.0,0.0,0.0,0.0,0.0,0.0,0.0,0.0,0.0,0.0,0.0,0.0,0.0,0.0,0.0,0.0,0.0,0.0,0.0,0.0,0.0,0.0,0.0,0.0,0.0,0.0,0.0,0.0,0.0,0.0,0.0,0.0,0.0,0.0,0.0,0.0,0.0,0.0,0.0,0.0,0.0,0.0,0.0,0.0,0.0,0.0,0.0,0.0,0.0,0.0,0.0,0.0,0.0,0.0,0.0,0.0,0.0,0.0,0.0,0.0,0.0,0.0,0.0,0.0,0.0,0.0,0.0,0.0,0.0,0.0,0.0,0.0,0.0,0.0,0.0,0.0,0.0,0.0,0.0,4.802,4.9997,5.2433,5.2635,5.1928,5.0242,4.7746,4.4797,4.1332,3.7395,0.0,0.0,0.0,0.0,0.0,0.0,0.0,0.0,0.0,0.0,0.0,0.0,0.0,0.0,0.0,0.0,0.0,0.0,0.0,0.0,0.0,0.0,0.0,0.0,0.0,0.0,0.0,0.0,0.0,0.0,0.0,0.0,0.0,0.0,0.0,0.0,0.0,0.0,0.0,0.0,0.0,0.0,0.0,0.0,0.0,0.0,0.0,0.0,0.0,0.0,0.0,0.0,0.0,0.0,0.0,0.0,0.0,0.0,0.0,0.0,0.0,0.0,0.0,0.0,0.0,0.0,0.0,0.0,0.0,0.0,0.0,0.0,0.0,0.0,0.0,0.0,0.0,0.0,0.0,0.0,0.0,0.0,0.0,0.0,0.0,0.0,0.0,0.0,0.0,0.0,0.0,0.0,0.0,0.0,0.0,0.0,0.0,0.0,0.0,0.0,0.0,0.0,4.9045,5.1505,0.0,5.349,5.2789,5.1092,4.8042,4.4803,4.1483,0.0,0.0,0.0,0.0,0.0,0.0,0.0,0.0,0.0,0.0,0.0,0.0,0.0,0.0,0.0,0.0,0.0,0.0,0.0,0.0,0.0,0.0,0.0,0.0,0.0,0.0,0.0,0.0,0.0,0.0,0.0,0.0,0.0,0.0,0.0,0.0,0.0,0.0,0.0,0.0,0.0,0.0,0.0,0.0,0.0,0.0,0.0,0.0,0.0,0.0,0.0,0.0,0.0,0.0,0.0,0.0,0.0,0.0,0.0,0.0,0.0,0.0,0.0,0.0,0.0,0.0,0.0,0.0,0.0,0.0,0.0,0.0,0.0,0.0,0.0,0.0,0.0,0.0,0.0,0.0,0.0,0.0,0.0,0.0,0.0,0.0,0.0,0.0,0.0,0.0,0.0,0.0,0.0,0.0,0.0,0.0,0.0,0.0,0.0,0.0,0.0,0.0,4.6549,4.9779,5.2279,0.0,5.3608,5.2943,5.1289,4.7868,4.4623,4.1887,0.0,0.0,0.0,0.0,0.0,0.0,0.0,0.0,0.0,0.0,0.0,0.0,0.0,0.0,0.0,0.0,0.0,0.0,0.0,0.0,0.0,0.0,0.0,0.0,0.0,0.0,0.0,0.0,0.0,0.0,0.0,0.0,0.0,0.0,0.0,0.0,0.0,0.0,0.0,0.0,0.0,0.0,0.0,0.0,0.0,0.0,0.0,0.0,0.0,0.0,0.0,0.0,0.0,0.0,0.0,0.0,0.0,0.0,0.0,0.0,0.0,0.0,0.0,0.0,0.0,0.0,0.0,0.0,0.0,0.0,0.0,0.0,0.0,0.0,0.0,0.0,0.0,0.0,0.0,0.0,0.0,0.0,0.0,0.0,0.0,0.0,0.0,0.0,0.0,0.0,0.0,0.0,0.0,0.0,0.0,0.0,0.0,0.0,0.0,0.0,0.0,0.0,4.7616,5.0222,5.2096,5.2733,5.2842,5.2142,5.0446,4.703,4.434,0.0,0.0,0.0,0.0,0.0,0.0,0.0,0.0,0.0,0.0,0.0,0.0,0.0,0.0,0.0,0.0,0.0,0.0,0.0,0.0,0.0,0.0,0.0,0.0,0.0,0.0,0.0,0.0,0.0,0.0,0.0,0.0,0.0,0.0,0.0,0.0,0.0,0.0,0.0,0.0,0.0,0.0,0.0,0.0,0.0,0.0,0.0,0.0,0.0,0.0,0.0,0.0,0.0,0.0,0.0,0.0,0.0,0.0,0.0,0.0,0.0,0.0,0.0,0.0,0.0,0.0,0.0,0.0,0.0,0.0,0.0,0.0,0.0,0.0,0.0,0.0,0.0,0.0,0.0,0.0,0.0,0.0,0.0,0.0,0.0,0.0,0.0,0.0,0.0,0.0,0.0,0.0,0.0,0.0,0.0,0.0,0.0,0.0,0.0,0.0,0.0,0.0,0.0,4.8452,5.2096,5.4312,5.3851,5.42,5.3518,5.1193,4.7861,4.4833,4.2557,0.0,0.0,0.0,0.0,0.0,0.0,0.0,0.0,0.0,0.0,0.0,0.0,0.0,0.0,0.0,0.0,0.0,0.0,0.0,0.0,0.0,0.0,0.0,0.0,0.0,0.0,0.0,0.0,0.0,0.0,0.0,0.0,0.0,0.0,0.0,0.0,0.0,0.0,0.0,0.0,0.0,0.0,0.0,0.0,0.0,0.0,0.0,0.0,0.0,0.0,0.0,0.0,0.0,0.0,0.0,0.0,0.0,0.0,0.0,0.0,0.0,0.0,0.0,0.0,0.0,0.0,0.0,0.0,0.0,0.0,0.0,0.0,0.0,0.0,0.0,0.0,0.0,0.0,0.0,0.0,0.0,0.0,0.0,0.0,0.0,0.0,0.0,0.0,0.0,0.0,0.0,0.0,0.0,0.0,0.0,0.0,0.0,0.0,0.0,0.0,0.0,0.0,4.878,5.2193,5.418,5.3616,5.3882,5.3199,5.0959,4.7919,4.5042,4.2435,0.0,0.0,0.0,0.0,0.0,0.0,0.0,0.0,0.0,0.0,0.0,0.0,0.0,0.0,0.0,0.0,0.0,0.0,0.0,0.0,0.0,0.0,0.0,0.0,0.0,0.0,0.0,0.0,0.0,0.0,0.0,0.0,0.0,0.0,0.0,0.0,0.0,0.0,0.0,0.0,0.0,0.0,0.0,0.0,0.0,0.0,0.0,0.0,0.0,0.0,0.0,0.0,0.0,0.0,0.0,0.0,0.0,0.0,0.0,0.0,0.0,0.0,0.0,0.0,0.0,0.0,0.0,0.0,0.0,0.0,0.0,0.0,0.0,0.0,0.0,0.0,0.0,0.0,0.0,0.0,0.0,0.0,0.0,0.0,0.0,0.0,0.0,0.0,0.0,0.0,0.0,0.0,0.0,0.0,0.0,0.0,0.0,0.0,0.0,0.0,0.0,0.0,4.8992,5.1355,5.2808,5.2699,5.2717,5.1963,5.0128,4.7679,4.5172,4.265,0.0,0.0,0.0,0.0,0.0,0.0,0.0,0.0,0.0,0.0,0.0,0.0,0.0,0.0,0.0,0.0,0.0,0.0,0.0,0.0,0.0,0.0,0.0,0.0,0.0,0.0,0.0,0.0,0.0,0.0,0.0,0.0,0.0,0.0,0.0,0.0,0.0,0.0,0.0,0.0,0.0,0.0,0.0,0.0,0.0,0.0,0.0,0.0,0.0,0.0,0.0,0.0,0.0,0.0,0.0,0.0,0.0,0.0,0.0,0.0,2.6616,0.0,0.0,0.0,0.0,0.0,0.0,0.0,0.0,0.0,0.0,0.0,0.0,0.0,0.0,0.0,0.0,0.0,0.0,0.0,0.0,0.0,0.0,0.0,0.0,0.0,0.0,0.0,0.0,0.0,0.0,0.0,0.0,0.0,0.0,0.0,0.0,0.0,0.0,0.0,0.0,0.0,5.0591,5.3153,5.4355,5.3608,5.4059,5.3411,5.089,4.8954,4.6767,4.4068,4.1379,0.0,0.0,0.0,0.0,0.0,0.0,0.0,0.0,0.0,0.0,0.0,0.0,0.0,0.0,0.0,0.0,0.0,0.0,0.0,0.0,0.0,0.0,0.0,0.0,0.0,0.0,0.0,0.0,0.0,0.0,0.0,0.0,0.0,0.0,0.0,0.0,0.0,0.0,0.0,0.0,0.0,0.0,0.0,0.0,0.0,0.0,0.0,0.0,0.0,0.0,0.0,0.0,0.0,0.0,0.0,0.0,0.0,0.0,0.0,0.0,2.8043,0.0,0.0,0.0,0.0,0.0,0.0,0.0,0.0,0.0,0.0,0.0,0.0,0.0,0.0,0.0,0.0,0.0,0.0,0.0,0.0,0.0,0.0,0.0,0.0,0.0,0.0,0.0,0.0,0.0,0.0,0.0,0.0,0.0,0.0,0.0,0.0,0.0,0.0,0.0,0.0,5.152,5.3416,5.4252,5.3722,5.399,5.3267,5.1012,4.9661,4.7757,4.5042,4.3289,0.0,0.0,0.0,0.0,0.0,0.0,0.0,0.0,0.0,0.0,0.0,0.0,0.0,0.0,0.0,0.0,0.0,0.0,0.0,0.0,0.0,0.0,0.0,0.0,0.0,0.0,0.0,0.0,0.0,0.0,0.0,0.0,0.0,0.0,0.0,0.0,0.0,0.0,0.0,0.0,0.0,0.0,0.0,0.0,0.0,0.0,0.0,0.0,0.0,0.0,0.0,0.0,0.0,3.6338,3.7276,3.8397,3.8626,3.9048,3.9231,3.4623,3.211,3.1278,0.0,0.0,0.0,0.0,0.0,0.0,0.0,0.0,0.0,0.0,0.0,0.0,0.0,0.0,0.0,0.0,0.0,0.0,0.0,0.0,0.0,0.0,0.0,0.0,0.0,4.1396,4.0528,0.0,0.0,0.0,0.0,0.0,0.0,0.0,0.0,0.0,0.0,0.0,0.0,5.2144,5.3483,5.3978,5.3881,5.3832,5.3086,5.1275,5.0367,4.8829,4.6294,4.4986,4.324,0.0,0.0,0.0,0.0,0.0,0.0,0.0,0.0,0.0,0.0,0.0,0.0,0.0,0.0,0.0,0.0,0.0,0.0,0.0,0.0,0.0,0.0,0.0,0.0,0.0,0.0,0.0,0.0,0.0,0.0,0.0,0.0,2.4078,2.3983,0.0,0.0,0.0,0.0,0.0,0.0,0.0,0.0,0.0,0.0,0.0,0.0,0.0,3.6949,3.8443,3.9287,3.9509,3.9061,4.0593,4.1055,4.0593,4.1385,4.1777,4.1848,4.1854,0.0,3.4812,3.3485,0.0,0.0,0.0,0.0,0.0,0.0,0.0,0.0,0.0,0.0,0.0,0.0,0.0,0.0,0.0,0.0,0.0,0.0,0.0,0.0,0.0,0.0,4.3797,4.4821,4.57,4.5883,0.0,4.1903,3.998,4.0551,4.0229,0.0,0.0,0.0,0.0,0.0,0.0,0.0,5.2943,5.4567,5.5505,5.5353,5.5199,5.4538,5.291,5.1951,5.0673,4.8852,4.6578,4.4763,4.3535,4.1101,0.0,0.0,0.0,0.0,0.0,0.0,0.0,0.0,0.0,0.0,0.0,0.0,0.0,0.0,0.0,0.0,0.0,0.0,0.0,0.0,0.0,0.0,0.0,0.0,0.0,0.0,0.0,0.0,0.0,2.5645,2.6421,2.6687,2.7463,2.7702,0.0,0.0,0.0,0.0,0.0,0.0,0.0,0.0,0.0,3.8624,4.0024,4.1181,4.2063,4.3191,4.3877,4.4191,4.5293,4.5868,4.6018,4.6464,4.6643,4.6564,4.6578,4.4899,4.2026,3.8986,3.692,3.557,0.0,0.0,0.0,0.0,3.5971,3.615,3.7038,3.7288,0.0,3.7644,0.0,0.0,0.0,0.0,0.0,0.0,0.0,0.0,0.0,0.0,0.0,4.9554,5.0291,5.0585,5.0578,4.8989,4.6852,0.0,4.3917,4.4057,4.5281,0.0,0.0,0.0,0.0,5.1477,5.4386,5.531,5.5641,5.559,5.559,5.5107,5.3877,5.3411,5.2416,5.0596,4.9479,4.7793,4.5374,4.3816,4.2135,0.0,0.0,0.0,0.0,0.0,0.0,0.0,0.0,0.0,0.0,0.0,0.0,0.0,0.0,0.0,0.0,0.0,0.0,0.0,0.0,0.0,0.0,0.0,0.0,0.0,0.0,0.0,0.0,2.8149,2.9,2.9505,3.0632,3.0946,0.0,0.0,0.0,0.0,0.0,0.0,3.7456,3.9539,4.1268,4.2624,4.4617,4.5719,4.5924,4.7168,4.8078,4.8732,4.9486,5.0064,5.0379,5.104,5.0959,5.0335,5.0206,4.9401,4.7854,4.3822,4.1364,4.0064,3.9245,3.9106,3.9468,4.0078,4.0369,4.0551,4.1769,4.1769,4.1303,4.1518,0.0,4.0416,4.0023,0.0,0.0,0.0,0.0,4.5663,4.9081,5.0554,5.1731,5.4059,5.4612,5.4759,5.5343,5.5012,5.3304,0.0,4.797,4.814,4.9336,0.0,0.0,0.0,0.0,5.3423,5.6082,5.6485,5.6525,5.6472,5.6345,5.5861,5.49,5.4717,5.3862,5.2248,5.1734,5.0338,4.7738,4.6293,4.4542,4.23,0.0,0.0,0.0,0.0,0.0,0.0,0.0,0.0,0.0,0.0,0.0,0.0,0.0,0.0,0.0,0.0,0.0,0.0,0.0,0.0,0.0,0.0,0.0,0.0,0.0,0.0,0.0,0.0,0.0,3.1514,3.351,0.0,0.0,0.0,0.0,3.5791,3.8142,4.0369,4.2255,4.4802,4.659,4.7502,4.9992,5.1267,5.1137,5.1972,5.2053,5.142,5.279,5.2753,5.1559,5.3763,5.3535,5.1536,5.3089,5.2397,4.9901,4.6218,4.4683,4.4498,4.3714,4.3858,4.454,4.4659,4.47,4.47,4.4808,4.4808,4.488,4.5672,4.5513,4.514,4.5407,4.5073,0.0,0.0,4.9009,5.0527,5.3868,5.5354,5.6395,5.8029,5.8396,5.8433,5.8424,5.8258,5.7051,0.0,5.2071,5.1517,5.1542,0.0,5.2526,5.3681,5.5522,5.7108,5.7959,5.8646,5.8951,5.884,5.8029,5.7188,5.6347,5.5598,5.4777,5.3956,5.2391,5.1398,5.1256,4.8098,4.594,4.5094,4.1946,0.0,0.0,0.0,0.0,0.0,0.0,0.0,0.0,0.0,0.0,0.0,0.0,0.0,0.0,0.0,0.0,0.0,0.0,0.0,0.0,0.0,0.0,0.0,0.0,0.0,0.0,0.0,0.0,3.6417,3.7749,0.0,3.776,3.9014,4.0206,4.1056,4.3516,4.5775,4.7493,4.9507,5.1012,5.1777,5.3207,5.3981,5.3981,5.4318,5.4363,5.4159,5.461,5.4619,5.4326,5.5038,5.5001,5.4319,5.4913,5.4613,5.3609,5.2222,5.0003,4.7391,4.647,4.665,4.7536,4.7998,4.854,4.9133,4.9675,4.9582,4.9174,4.8656,4.8009,4.7647,4.831,4.8787,4.9488,5.1417,5.3014,5.4613,5.6923,5.8564,5.9827,6.0943,6.1614,6.1943,6.1812,6.1767,6.1493,6.0646,5.7597,5.5441,5.6373,5.5843,5.5852,5.7571,5.7869,5.8223,5.8983,5.9168,5.9185,5.924,5.8934,5.8376,5.7478,5.7155,5.6385,5.4884,5.4189,5.3174,5.1592,5.0252,4.8388,4.5985,4.4095,4.2089,0.0,0.0,0.0,0.0,0.0,0.0,0.0,0.0,0.0,0.0,0.0,0.0,0.0,0.0,0.0,0.0,0.0,0.0,0.0,0.0,0.0,0.0,0.0,0.0,0.0,0.0,3.913,4.0482,4.2086,4.3002,4.2715,4.399,4.5312,4.6354,4.8452,5.0326,5.2017,5.3792,5.4715,5.459,5.5953,5.6585,5.6246,5.6337,5.6426,5.6515,5.6337,5.6279,5.6233,5.6404,5.6404,5.619,5.6233,5.6086,5.5668,5.5618,5.4012,5.1486,5.0416,5.0371,5.1004,5.1466,5.2055,5.2781,5.3372,5.3324,5.2883,5.2109,5.1563,5.1343,5.2047,5.29,5.3869,5.4914,5.6443,5.8161,5.9881,6.1259,6.2524,6.3643,6.4227,6.4547,6.4456,6.4633,6.4846,6.5059,6.1837,5.9366,6.0331,5.9758,5.9432,6.0345,6.0544,6.057,6.0481,6.0522,6.043,6.0232,5.9926,5.9367,5.8466,5.7837,5.6868,5.533,5.4759,5.3654,5.2034,5.1012,4.9619,4.7583,4.5606,4.3296,4.0728,0.0,0.0,0.0,0.0,0.0,0.0,0.0,0.0,0.0,0.0,0.0,0.0,0.0,0.0,0.0,0.0,0.0,0.0,0.0,0.0,0.0,0.0,0.0,3.7447,4.0147,4.2583,4.3565,4.6445,4.7913,4.6693,4.8822,5.07,5.1668,5.2773,5.4117,5.5698,5.7493,5.7685,5.6012,5.8349,5.9153,5.8116,5.8207,5.8305,5.8393,5.8133,5.7729,5.7211,5.7892,5.7773,5.7074,5.7242,5.6805,5.6029,5.5981,5.6411,5.6993,5.5541,5.5025,5.5098,5.5098,5.5285,5.5514,5.5611,5.5705,5.5834,5.608,5.6243,5.6362,5.6706,5.7379,5.8091,5.8202,5.944,6.1093,6.2707,6.3597,6.4438,6.6045,6.6313,6.6202,6.6202,6.6738,6.7024,6.6304,6.4716,6.3331,6.3124,6.3539,6.3335,6.1762,6.3414,0.0,6.2493,6.2803,6.2819,6.1948,6.0988,6.0084,5.9293,5.7676,5.6277,5.5489,5.3917,5.2921,5.2886,5.046,4.9387,4.9988,4.6288,4.3147,4.0783,0.0,0.0,0.0,0.0,0.0,0.0,0.0,0.0,0.0,0.0,0.0,0.0,0.0,0.0,0.0,0.0,0.0,0.0,0.0,0.0,0.0,0.0,4.33,4.2757,4.5065,4.7527,4.9595,5.0796,5.181,5.2753,5.3595,5.4766,5.6374,5.7433,5.8486,5.9529,6.0048,6.0085,5.9647,6.0182,6.0396,6.0174,5.9627,5.9664,6.0263,5.8954,5.8628,5.9133,5.8634,5.8671,5.9128,5.9128,5.9393,5.9727,5.9597,5.9656,5.9448,5.6565,5.6136,5.7198,5.7161,5.7574,5.8033,5.7168,5.726,5.7714,5.7523,5.7902,5.8539,5.929,5.9703,6.0003,6.0604,6.1994,6.3383,6.3834,6.5324,6.6805,6.7165,6.7626,6.8118,6.8617,6.8865,6.889,6.8581,6.8124,6.7173,6.53,6.509,6.494,6.4296,6.472,0.0,6.3523,6.3401,6.3148,6.2187,6.1227,6.0576,6.025,5.8628,5.7209,5.6313,5.524,5.4011,5.2802,5.197,5.0364,4.791,4.5613,4.38,0.0,0.0,0.0,0.0,0.0,0.0,0.0,0.0,0.0,0.0,0.0,0.0,0.0,0.0,0.0,0.0,0.0,0.0,0.0,0.0,0.0,0.0,4.5249,4.8065,4.9161,4.996,5.1092,5.2963,5.3997,5.5089,5.6507,5.7125,5.8141,5.9937,6.029,6.0821,6.1645,6.172,6.1528,6.1113,6.1396,6.1537,6.1493,6.0759,6.0617,6.1106,5.9727,5.9441,6.005,5.9446,5.9627,0.0,6.0492,6.0747,6.1187,6.11,6.1196,0.0,0.0,0.0,0.0,0.0,5.9079,5.9464,5.9091,5.9371,5.9793,5.9625,5.989,6.0378,6.0942,6.1581,6.2106,6.1881,6.3496,6.5261,6.4885,6.6523,6.8264,6.8137,6.8893,6.9644,6.9694,7.0202,7.0522,7.0189,7.0064,0.0,6.7617,6.6925,6.633,6.5515,6.5904,6.5689,6.403,6.429,6.3984,6.2367,6.1969,6.148,6.0775,5.9006,0.0,0.0,0.0,5.3922,5.2199,5.1918,0.0,0.0,0.0,4.6201,4.4992,0.0,0.0,0.0,4.3144,4.3037,0.0,0.0,0.0,0.0,0.0,0.0,0.0,0.0,0.0,0.0,0.0,0.0,0.0,0.0,0.0,0.0,4.9508,5.243,5.5367,5.4553,5.3995,5.489,5.6356,5.7709,5.8725,5.9478,6.0635,6.2352,6.1842,6.181,6.263,0.0,0.0,0.0,0.0,6.2612,6.239,6.17,6.1416,6.1582,6.0524,6.0236,6.0553,6.0319,6.065,6.1433,6.1433,6.1465,6.1484,6.1484,6.1849,6.2234,6.1191,6.0324,5.9743,5.9893,6.0061,6.0301,6.106,0.0,0.0,6.1839,6.1991,6.2219,6.2219,6.327,6.4134,6.2632,6.4434,6.6612,6.5861,6.7342,6.9033,6.9033,7.0001,7.0735,7.014,7.1005,7.1769,7.113,7.0968,7.0605,6.9804,6.8749,6.7473,6.6036,6.6927,6.688,6.4448,6.5184,6.5022,6.2602,0.0,0.0,6.1064,5.933,5.7891,5.6992,5.5079,5.3228,5.1617,5.1175,5.0239,4.8676,4.9639,4.9447,4.8127,4.9505,5.0538,5.1158,4.7432,4.6419,0.0,0.0,0.0,0.0,0.0,0.0,0.0,0.0,0.0,0.0,0.0,0.0,0.0,0.0,0.0,4.9593,5.2887,5.5525,5.6779,5.7423,5.7983,5.8597,5.8619,5.9115,6.0608,6.0394,6.089,6.2691,6.2653,6.2956,6.3738,6.3817,6.3701,6.3382,6.3488,6.3556,6.3512,6.2606,6.2531,6.3295,0.0,0.0,6.2234,6.14,6.1544,6.2327,6.2412,6.2699,6.3156,6.3245,6.3319,6.3222,6.2271,6.1863,6.1767,6.1143,6.1416,6.2029,6.1591,6.2018,6.2701,6.2818,6.3721,6.4772,6.4772,6.4998,0.0,6.4885,6.5749,6.6762,6.6575,6.8203,6.9892,6.9892,7.0411,7.1069,7.1589,7.1961,7.2109,7.1961,7.1923,7.1612,7.0796,6.9272,6.8097,6.7664,6.7834,6.7598,6.6302,6.5705,6.494,6.3649,6.2907,6.2401,6.195,6.0829,5.9457,5.7855,5.5294,5.362,5.3175,5.2376,5.1981,5.2053,5.1164,5.1164,5.1961,5.2333,5.2857,5.3533,5.1706,5.1701,0.0,0.0,0.0,0.0,0.0,0.0,0.0,0.0,0.0,0.0,0.0,4.2668,0.0,0.0,5.0485,5.2998,5.5424,5.7221,5.808,5.9134,5.9657,5.938,5.9539,6.0142,6.1419,6.1609,6.2213,6.3491,6.3603,6.3753,6.4166,6.4203,6.4162,6.4,6.391,6.3823,6.378,6.3275,6.3052,6.3146,6.2234,6.2135,6.2683,6.2183,6.2444,6.327,6.327,6.3451,6.378,6.378,6.3736,6.3691,6.3557,6.3342,6.3096,6.3096,6.3488,6.4033,6.4037,6.4383,6.4882,6.4923,6.5486,6.6162,6.6162,6.6425,6.6687,6.6274,6.7025,6.7926,6.7513,6.8809,7.0163,7.0116,7.0907,7.1764,7.2123,7.2518,7.2778,7.2778,7.2392,7.1895,7.1487,7.036,6.9332,6.8837,6.8328,6.7709,6.6795,6.6528,6.593,6.4579,6.3962,6.3364,6.2839,6.0992,5.9312,5.7853,5.565,5.4562,5.4879,5.3969,5.3732,5.4486,5.4042,5.4314,5.5378,5.5942,5.681,5.7912,5.7307,5.6737,0.0,0.0,0.0,0.0,0.0,0.0,0.0,3.8435,4.1214,4.2557,4.5112,4.7719,4.9771,5.1738,5.3746,5.5858,5.7258,5.8352,5.9252,6.0116,6.0265,5.9399,6.0151,6.1053,6.1956,6.2519,6.3195,6.4021,6.4059,6.4134,6.4244,6.4284,6.4244,6.4079,6.3958,6.3873,6.378,6.3691,6.3356,6.2774,6.268,6.2768,6.2944,6.2897,6.3233,6.3873,6.378,6.3823,6.3873,6.378,6.3891,6.4115,6.4762,6.4845,6.465,6.5046,6.541,6.5731,6.6368,6.6678,6.68,6.68,6.6913,6.7025,6.7025,6.7476,6.7851,6.7213,6.8077,6.9015,6.8227,6.9378,7.0704,7.0378,7.1514,7.2596,7.2458,7.2927,7.3372,7.341,7.2696,7.2161,7.2108,7.1442,7.0554,6.9591,6.8735,6.7878,6.7016,6.7083,6.6738,6.551,6.5167,6.4713,6.3893,6.1262,5.9291,5.8422,5.6775,5.613,5.6914,5.612,5.617,5.7206,5.7529,5.8083,5.8941,5.9583,6.0706,6.2238,6.2391,6.1105,3.173,3.3346,3.5367,3.6739,3.8466,4.0416,0.0,4.4785,4.6507,4.75,4.9632,5.1654,5.2729,5.44,5.601,5.7218,5.8234,5.925,6.0304,6.0529,6.0567,6.0454,6.1129,6.1994,6.2857,6.2332,6.2294,6.3158,6.3233,6.3493,6.4125,6.4244,6.4203,6.3915,6.4,6.3995,6.378,6.378,6.3742,6.3668,6.3535,6.3587,6.3803,6.3766,6.3798,6.378,6.3691,6.3691,6.378,6.3647,6.4138,6.4935,6.5617,6.6462,6.7217,6.6404,6.6224,6.6481,6.6555,6.6678,6.68,6.68,6.7288,6.7851,6.7851,6.7926,6.7964,6.7889,6.8527,6.9015,6.8227,7.0203,7.2202,7.1397,7.2335,7.3415,7.3313,7.3335,7.3372,7.3252,7.3124,7.2997,7.2889,7.2133,7.1061,6.9547,6.9215,6.8794,6.7915,6.69,6.6353,6.6313,6.6062,6.575,6.5359,6.2903,6.1271,6.1142,5.9522,5.8928,5.9752,5.9624,6.021,6.1557,6.1279,6.1673,6.3059,6.2745,6.3226,6.4562,6.4649,6.3929,3.4805,3.6541,3.8323,3.9455,4.1382,4.3501,4.559,4.7832,4.9898,5.1113,5.3407,5.534,5.5714,5.6878,5.808,0.0,5.9625,6.0265,6.1281,6.1808,6.1958,6.1507,6.256,6.3086,6.2407,6.2895,6.3383,6.3759,6.3796,6.3946,6.4166,6.4284,6.4244,6.4162,6.4042,6.3915,6.3867,6.3736,6.3691,6.3691,6.3602,6.3647,6.3736,6.3736,6.378,6.378,6.378,6.3823,6.3867,6.3736,6.422,6.5084,6.5803,6.6714,6.7643,6.7709,6.7928,6.8103,6.8016,6.8103,6.8189,6.8103,6.8372,6.8715,6.8715,6.8715,6.8715,6.8715,6.894,6.9128,6.879,6.9685,7.0758,7.121,7.1738,7.2373,7.3135,7.3252,7.3145,7.3091,7.2982,7.289,7.2872,7.254,7.1858,7.0643,6.9757,6.8836,6.7973,6.734,6.6774,6.6244,6.6007,6.5658,6.5109,6.3414,6.2413,6.2413,6.1276,6.1024,6.1893,6.1965,6.2687,6.4332,6.4043,6.4657,6.6187,6.5862,6.6235,6.723,6.723,6.6926,3.7978,3.981,4.1641,4.3217,4.5281,4.7385,4.9085,5.1343,5.3309,5.4417,5.6351,5.7884,5.7928,5.8532,5.9323,6.0263,6.0452,6.0942,6.2184,6.2636,6.2674,6.2108,6.2862,6.2899,6.1581,6.3195,6.4284,6.4284,6.4284,6.4284,6.4284,6.451,6.4622,6.4582,6.4603,6.4476,6.4246,6.4071,6.387,6.3602,6.3602,6.3602,6.3602,6.3602,6.3647,6.3817,6.4047,6.4122,6.4159,6.4376,6.4927,6.5754,6.6249,6.6891,6.7626,6.8493,6.8975,6.9072,6.8983,6.9027,6.9109,6.8983,6.9027,6.9153,6.9116,6.931,6.946,6.9235,6.9497,6.9716,6.9266,6.9447,7.0001,7.0965,7.1268,7.1677,7.2902,7.3091,7.2982,7.2927,7.2779,7.2667,7.2667,7.2667,7.2353,7.1431,7.0386,6.9355,6.8325,6.778,6.7195,6.6333,6.6203,6.5892,6.5291,6.4504,6.3956,6.376,6.3434,6.3563,6.4274,6.4584,6.5403,6.6842,6.6822,6.7455,6.8777,6.8404,6.8717,6.9668,6.9327,6.9363,4.1035,4.3274,4.5946,4.9351,5.1404,5.3012,5.4727,5.6331,5.7446,5.7601,5.8308,5.8902,5.8947,5.8984,5.9323,6.0263,6.0413,6.1053,6.2899,6.2523,6.2034,6.1996,6.1281,6.0754,0.0,6.2857,6.4284,6.4284,6.4284,6.4284,6.4284,6.5035,6.5407,6.5282,6.6069,6.6014,6.4972,6.4972,6.4473,6.3602,6.3602,6.3602,6.3602,6.3602,6.3647,6.3854,6.4502,6.4753,6.4828,6.5682,6.6593,6.7431,6.7327,6.7384,6.768,6.8446,6.8791,6.8921,6.8921,6.8921,6.8921,6.8921,6.8921,6.8884,6.8983,6.9589,7.0076,6.9252,7.0188,7.1041,6.9378,7.0079,7.1189,7.0933,7.1515,7.2244,7.2852,7.2982,7.2927,7.2723,7.2723,7.2667,7.2496,7.2496,7.2239,7.1431,7.1284,7.066,6.9082,6.8092,6.7303,6.6845,6.6867,6.6889,6.675,6.6677,6.6374,6.5783,6.6401,6.6895,6.7101,6.8036,6.884,6.9471,6.9795,7.0234,7.0784,6.9945,7.0324,7.1671,7.076,7.0734,4.44,4.6974,4.9407,5.1615,5.3409,5.5057,5.6668,5.7529,5.7941,5.7903,5.8128,5.8203,5.7752,5.764,5.8127,5.9626,6.0266,6.0942,6.2108,6.256,6.2372,6.1281,6.1394,0.0,0.0,0.0,0.0,6.3458,6.3984,6.4284,6.4284,6.4953,6.5361,6.5319,6.5447,6.5315,6.4874,6.4782,6.4244,6.3326,6.3419,6.3465,6.3465,6.3557,6.3647,6.3817,6.3944,6.4353,6.4882,6.4613,6.5274,6.6546,6.65,6.6881,6.7486,6.8257,6.8602,6.865,6.8782,6.8828,6.8921,6.8828,6.8838,6.8937,6.8983,6.9627,7.0263,6.9964,7.0583,7.121,7.0639,7.049,7.0741,7.1665,7.1565,7.1598,7.2741,7.2927,7.2723,7.261,7.2553,7.2553,7.2496,7.2496,7.2239,7.1431,7.0844,7.0274,6.9668,6.9319,6.8966,6.8699,6.8699,6.8699,6.8641,6.8757,6.8763,6.8564,6.884,6.9099,6.9265,6.9577,7.0147,7.1011,7.1066,7.1508,7.2092,7.1684,7.2007,7.2887,7.1927,7.1842,4.7485,5.0065,5.2461,5.4375,5.5685,5.6882,5.8238,5.8313,5.8012,5.7712,5.7449,5.7033,5.6342,5.6158,5.6764,5.8826,5.9512,6.0379,6.2071,6.2598,6.2523,6.1695,6.1582,6.1431,0.0,0.0,0.0,6.3045,6.3834,6.4284,6.4244,6.5212,6.5577,6.5191,6.5874,6.5877,6.5143,6.5086,6.4388,6.3194,6.3289,6.3336,6.3382,6.3511,6.3602,6.3729,6.3944,6.439,6.4882,6.4613,6.5311,6.6537,6.6537,6.6834,6.7391,6.8208,6.832,6.8134,6.8528,6.865,6.8744,6.865,6.8744,6.8884,6.9183,6.9901,7.0612,7.0612,7.1125,7.1589,7.1242,7.0795,7.0709,7.195,7.1687,7.1532,7.2632,7.2723,7.261,7.2553,7.2553,7.2496,7.2553,7.2553,7.2312,7.1835,7.1284,7.0677,7.0014,6.9884,6.9827,6.9581,6.9639,6.9733,6.9733,7.0161,7.0347,7.0054,7.0735,7.1066,7.0789,7.1138,7.1598,7.2133,7.2169,7.2669,7.3664,7.3198,7.3487,7.4529,7.3447,7.3276,5.0403,5.2656,5.5125,5.7594,5.8267,5.8493,5.9351,5.8792,5.7925,5.7154,5.6187,5.5287,0.0,0.0,5.5314,5.7771,5.837,5.9581,6.2673,6.256,6.2372,0.0,0.0,0.0,0.0,0.0,0.0,6.3045,0.0,6.4244,6.4158,6.5694,6.617,6.5158,6.7216,6.7566,6.5779,6.5644,6.482,6.3294,6.3221,6.3279,6.3456,6.3419,6.3465,6.3713,6.4456,6.4828,6.4976,6.5682,6.6462,6.7243,6.7205,6.7168,6.728,6.8097,6.7911,6.7354,6.8171,6.8468,6.8506,6.8506,6.8506,6.8654,6.9618,7.0448,7.1082,7.1119,7.1752,7.2187,7.1218,7.0995,7.113,7.1843,7.1833,7.1857,7.2539,7.261,7.2553,7.2667,7.261,7.2553,7.2667,7.261,7.2496,7.2496,7.2496,7.1888,7.0271,7.0031,6.9973,6.9785,6.9973,7.0124,7.0051,7.1103,7.1379,7.0494,7.2078,7.265,7.18,7.2738,7.3182,7.3037,7.3056,7.3832,7.5346,7.4286,7.4706,7.6369,7.5262,7.4714,5.3682,5.586,5.751,5.8185,5.8895,5.9269,5.8887,5.7711,5.6305,5.4761,5.3286,5.2029,5.1291,5.2191,0.0,5.6261,5.8169,0.0,6.2033,6.2635,0.0,6.222,0.0,6.1581,6.1768,6.2369,0.0,0.0,6.3834,6.4507,6.4982,6.5908,6.6523,6.6797,6.6648,6.6308,6.5718,6.4254,6.397,6.4742,6.3591,6.3431,6.4129,6.3632,6.3799,6.4493,6.4085,6.4976,6.6537,6.4902,6.5134,6.6416,6.5729,6.5506,6.5709,6.6435,6.6574,6.6537,6.7354,6.8023,6.8506,6.8506,6.8554,6.8799,6.9618,7.0448,7.1082,7.1119,7.2112,7.2941,7.2072,7.1849,7.2072,7.28,7.2436,7.2055,7.2797,7.2779,7.261,7.2553,7.2496,7.2496,7.2553,7.261,7.261,7.2496,7.261,7.2463,7.1888,7.2365,7.2475,7.183,7.3031,7.3309,7.2095,7.3554,7.3887,7.2373,7.3424,7.3663,7.2849,7.3643,7.3845,7.3305,7.4384,7.4848,7.4663,7.4752,7.5279,7.6369,7.5345,7.5189,5.6304,5.7921,5.9012,5.9458,5.9114,5.8467,5.7699,5.5951,5.3935,5.1916,5.074,4.977,4.8631,5.0101,5.2395,0.0,0.0,0.0,6.2184,6.32,6.346,0.0,6.3195,0.0,6.2932,6.3646,6.4172,0.0,6.4544,6.4874,6.5234,6.6269,6.6843,6.6816,6.6887,6.6507,6.5607,6.4117,6.3883,6.4853,6.3947,6.4095,6.5064,6.4631,6.4846,6.5348,0.0,6.5496,6.6685,6.5274,6.5506,6.663,6.6091,6.6175,6.6593,6.6982,6.7168,6.7243,6.7688,6.8134,6.8506,6.8506,6.8554,6.8751,6.9569,7.0351,7.102,7.0933,7.2109,7.3119,7.2355,7.234,7.2659,7.3261,7.2791,7.2408,7.298,7.289,7.2723,7.276,7.276,7.2779,7.276,7.2723,7.2667,7.261,7.2904,7.3125,7.3046,7.312,7.301,7.259,7.3513,7.3865,7.3425,7.4423,7.4828,7.4273,7.4735,7.4826,7.4381,7.4789,7.4826,7.4343,7.5125,7.5514,7.5458,7.5621,7.6133,7.7002,7.6383,7.6263,5.8446,5.9273,5.9952,6.0698,5.8992,5.691,5.5943,5.3631,5.1082,4.8859,4.8251,4.7743,4.6396,4.8289,5.1116,5.4287,5.6383,5.8943,6.2674,6.3916,6.4403,6.4284,6.4923,6.511,6.451,6.5073,6.5561,6.5632,6.5624,6.5571,6.5522,6.6694,6.704,6.6229,6.7469,6.7234,6.5359,6.4522,6.4191,6.4291,6.4144,6.4734,6.5864,6.5753,6.5922,6.6239,6.6165,0.0,6.6388,6.6054,6.6462,6.728,6.7057,6.7465,6.8171,6.8171,6.8208,6.8208,6.832,6.8357,6.8357,6.8468,6.8506,6.8654,6.9422,7.0239,7.087,7.0731,7.1902,7.3013,7.2251,7.2516,7.3037,7.3268,7.3054,7.2779,7.3091,7.289,7.2723,7.2927,7.3037,7.3091,7.2982,7.2835,7.2779,7.2723,7.3198,7.3582,7.3582,7.312,7.2847,7.2814,7.2981,7.3332,7.4071,7.4497,7.5031,7.5696,7.5899,7.5899,7.5787,7.5899,7.5845,7.5661,7.5661,7.6068,7.6792,7.6596,7.6943,7.7762,7.7643,7.7463,6.0135,6.0694,6.0724,6.0194,5.8224,5.5799,5.3594,5.0627,4.7834,4.6074,4.5239,4.4734,4.4319,4.7051,5.0321,5.3261,5.6398,5.9587,6.2749,6.3838,6.4324,0.0,6.4397,6.4697,6.5223,6.5411,0.0,0.0,6.688,6.7203,6.7203,6.7328,6.7263,6.695,6.716,6.6433,6.4512,6.4365,6.4241,6.4141,6.3505,6.4132,6.5718,6.5075,6.5615,6.7057,6.6388,0.0,6.7948,6.5868,6.5952,6.7235,6.5803,6.5803,6.6602,6.6546,6.6537,6.6611,6.728,6.7503,6.7614,6.8283,6.8506,6.8605,6.9285,7.0101,7.0717,7.068,7.1849,7.2906,7.2355,7.2569,7.3037,7.3199,7.3091,7.2927,7.2779,7.2667,7.2553,7.2553,7.2667,7.2779,7.2779,7.2945,7.3037,7.2723,7.2927,7.3148,7.3148,7.3955,7.4221,7.3618,7.4286,7.4527,7.4032,7.5439,7.6162,7.5698,7.6401,7.653,7.5824,7.6493,7.653,7.577,7.679,7.7176,7.6792,7.7031,7.7316,7.7643,7.7463,7.7304,6.0728,6.0762,6.0297,5.9533,5.6801,5.3613,5.1109,4.7606,4.4554,4.3323,4.2819,4.2726,4.3161,4.5731,4.8785,5.184,5.4116,5.6974,6.1353,6.2222,6.2897,6.4134,6.466,6.5073,6.5448,6.5899,6.6458,6.7155,6.7845,6.8054,6.7523,6.7794,6.7959,6.7814,6.6901,6.6125,6.5644,6.4304,6.407,6.4816,6.4574,6.5164,6.6396,6.6579,6.712,6.7874,6.7094,0.0,6.8394,6.676,6.6834,6.7895,6.7057,6.6982,6.7412,6.7354,6.7306,6.7332,6.7703,6.7765,6.779,6.8161,6.8358,6.8433,6.8703,6.9614,7.0449,6.999,7.1303,7.265,7.2002,7.23,7.2816,7.3037,7.3037,7.2927,7.2723,7.2779,7.2835,7.2835,7.2945,7.3054,7.3054,7.3145,7.3145,7.2927,7.3204,7.3406,7.3349,7.3991,7.4081,7.3386,7.3737,7.4236,7.4527,7.555,7.6384,7.6829,7.7404,7.7533,7.7125,7.7496,7.7441,7.6866,7.7472,7.7636,7.7229,7.74,7.7524,7.762,7.7463,7.7402,6.1141,6.0795,5.9923,5.9033,5.535,5.125,4.858,4.4858,4.1689,4.0705,4.0819,4.1352,4.2214,4.4505,4.7281,5.0453,5.1954,5.4519,5.9769,6.0754,6.1845,6.4247,6.511,0.0,6.6011,6.665,0.0,6.7972,0.0,0.0,6.7635,6.8134,6.8457,6.8457,6.7037,6.6384,6.6629,6.4611,6.3996,6.4903,6.5152,6.5816,6.6864,6.7592,6.8123,6.8468,6.7837,0.0,0.0,6.7651,6.78,6.8506,6.832,6.8308,6.8457,6.8457,6.8358,6.8259,6.8259,6.8208,6.807,6.8107,6.8158,6.8259,6.8107,6.9163,7.0307,6.952,7.0938,7.252,7.2005,7.2132,7.2553,7.2872,7.2927,7.2872,7.2779,7.2945,7.3091,7.3145,7.3252,7.3357,7.3357,7.3252,7.3145,7.3037,7.3388,7.3587,7.3508,7.3587,7.3479,7.3001,7.3075,7.372,7.4985,7.5531,7.6439,7.7846,7.8127,7.8276,7.8276,7.8221,7.8108,7.7842,7.782,7.7703,7.762,7.762,7.762,7.762,7.762,7.7524,6.2012,6.1599,6.0543,5.9153,5.4477,4.9352,4.6111,4.2737,3.9868,3.829,3.9204,4.0519,4.1296,4.3547,4.6321,4.9418,5.1887,5.4856,5.9022,6.083,6.2595,6.511,0.0,0.0,6.7626,6.7728,6.8009,6.8734,0.0,0.0,6.8247,6.8272,6.8309,6.8309,6.8161,6.7321,6.5817,6.5558,6.4635,6.3025,6.3174,6.4168,6.5866,6.6038,6.6998,6.8506,6.8431,0.0,0.0,6.7651,6.78,6.8431,6.7725,6.7777,6.8309,6.8309,6.8259,6.8121,6.8121,6.807,6.807,6.7952,6.8004,6.807,6.7952,6.9004,7.0293,7.0219,7.1287,7.2553,7.2816,7.2686,7.2553,7.2667,7.261,7.261,7.2927,7.2835,7.2779,7.2982,7.3145,7.3199,7.3199,7.3199,7.3145,7.3037,7.2909,7.2834,7.2777,7.2834,7.2797,7.2723,7.3386,7.4102,7.4845,7.5875,7.686,7.7747,7.7957,7.8127,7.8276,7.7994,7.79,7.8014,7.7762,7.762,7.762,7.762,7.762,7.762,7.762,7.762,5.9777,6.0231,5.9734,5.7203,5.328,4.8998,4.5147,4.1309,3.8345,3.7639,3.8021,3.9067,4.0908,4.2085,4.3999,4.7768,4.8321,5.0174,5.571,5.703,5.9027,6.3416,6.4431,0.0,0.0,0.0,6.8077,6.8754,0.0,0.0,6.8309,6.8309,6.8259,6.8208,6.7627,6.7243,6.7045,6.6086,6.5175,6.431,6.4512,6.4734,6.4967,6.6112,6.7072,6.78,6.7703,0.0,0.0,6.742,6.7518,6.8222,6.7889,6.7963,6.8208,6.8208,6.807,6.8004,6.8004,6.7952,6.7847,6.7794,6.7847,6.792,6.8382,6.9301,7.0294,7.0753,7.1671,7.2496,7.2667,7.261,7.2496,7.2553,7.261,7.2667,7.2779,7.2927,7.3037,7.3091,7.3252,7.3357,7.3357,7.366,7.37,7.3111,7.3277,7.3219,7.2684,7.2667,7.2667,7.261,7.346,7.427,7.4845,7.6006,7.7049,7.7747,7.8051,7.8127,7.8127,7.8014,7.7842,7.7762,7.7643,7.7524,7.7402,7.7524,7.7524,7.7402,7.7524,7.7524,5.7453,5.8211,5.7832,5.5361,5.1798,4.7871,4.3908,4.0127,3.7278,3.6742,3.7007,3.7974,4.0063,4.1026,4.2631,4.6064,4.6176,4.774,5.3306,5.4514,5.6737,6.1874,0.0,6.4541,0.0,6.786,6.8249,6.8613,0.0,0.0,6.8309,6.8309,6.8259,6.8158,6.7502,6.7141,6.7215,6.6058,6.5198,6.4567,6.477,6.4795,6.482,6.61,6.7061,6.7651,0.0,0.0,0.0,6.7529,6.759,6.807,6.807,6.8107,6.8018,6.8018,6.7952,6.7847,6.7847,6.7794,6.7687,6.7687,6.7687,6.7834,6.8678,6.9302,6.9926,7.0734,7.1725,7.2496,7.2496,7.2496,7.2496,7.2496,7.2553,7.2667,7.2723,7.289,7.3091,7.3199,7.3305,7.3432,7.3707,7.4067,7.4201,7.3758,7.3995,7.397,7.3266,7.3067,7.2978,7.2863,7.3771,7.4564,7.4882,7.6286,7.7308,7.7783,7.8051,7.8127,7.8071,7.8014,7.7842,7.7643,7.7584,7.7463,7.7304,7.7463,7.7524,7.7402,7.7524,7.7463,5.5616,5.5662,5.4769,5.4068,5.0024,4.5331,4.2003,3.9169,3.6856,3.5171,3.6151,3.7586,3.8546,4.0617,4.2775,4.455,4.6759,4.9394,5.2682,5.449,5.6968,0.0,6.1528,6.2836,6.6082,6.7775,6.865,6.8506,0.0,0.0,6.8309,6.8309,6.8309,6.8309,6.8121,6.7294,6.5743,6.5557,6.4609,6.2842,6.2842,6.3836,6.5669,6.5706,6.6741,0.0,0.0,0.0,0.0,6.8121,6.807,6.807,6.807,6.8018,6.7899,6.7899,6.7847,6.7687,6.7687,6.7687,6.7687,6.7687,6.7687,6.7834,6.8678,6.8898,6.9082,6.9889,7.1284,7.2496,7.2496,7.2496,7.2496,7.2496,7.2496,7.2553,7.2667,7.2723,7.2779,7.3145,7.3199,7.3511,7.445,7.4384,7.4496,7.5272,7.5095,7.4918,7.4882,7.4184,7.367,7.367,7.4404,7.4918,7.4918,7.6685,7.7783,7.782,7.7957,7.8071,7.8276,7.7994,7.782,7.782,7.7643,7.7463,7.7304,7.7463,7.762,7.762,7.762,7.7463,5.0399,5.0865,5.0269,4.8946,4.6089,4.2786,3.9989,3.7791,3.5991,3.4771,3.5469,3.6738,3.8154,3.9571,4.1606,4.5078,4.66,4.8483,5.1757,5.4535,5.7303,6.0211,6.3574,6.6262,0.0,0.0,6.865,6.8506,0.0,0.0,6.8457,6.8408,6.8358,6.8158,6.7502,6.6883,6.6367,6.575,6.5096,6.453,6.4632,6.5041,6.5706,6.6359,6.6975,0.0,0.0,0.0,0.0,6.7899,6.7847,6.7847,6.7847,6.7794,6.7794,6.7794,6.7741,6.7687,6.7687,6.7687,6.7687,6.7687,6.7687,6.7724,6.7981,6.8458,6.9082,6.9853,7.0881,7.1688,7.1688,7.2092,7.2496,7.2496,7.2553,7.2667,7.2723,7.2779,7.2927,7.3037,7.3145,7.3458,7.4218,7.47,7.5124,7.5383,7.569,7.5721,7.5206,7.4874,7.4448,7.3744,7.5037,7.5662,7.4955,7.6685,7.782,7.782,7.8051,7.8165,7.8071,7.8014,7.79,7.7783,7.7762,7.7643,7.7524,7.7524,7.762,7.762,7.7463,7.7365,4.4889,4.6001,4.5899,4.4586,4.2497,4.0113,3.7589,3.6152,3.5086,3.4128,3.5146,3.6527,3.7601,3.9027,4.1029,4.403,4.5576,4.7335,5.0038,5.3155,5.6294,5.9231,0.0,0.0,0.0,6.8081,6.8602,0.0,0.0,0.0,6.8506,6.8506,6.8408,6.8259,6.7294,6.6639,6.6344,6.5331,6.4861,6.4861,6.4977,6.5459,6.6149,6.6766,0.0,0.0,0.0,0.0,0.0,6.7741,6.7687,6.7687,6.7687,6.7687,6.7687,6.7687,6.7687,6.7687,6.7687,6.7687,6.7687,6.7687,6.7687,6.7687,6.7687,6.8238,6.9009,6.9522,7.022,7.0844,7.0844,7.1431,7.2055,7.2055,7.2333,7.261,7.261,7.2723,7.2816,7.2872,7.3258,7.3794,7.4533,7.5365,7.5994,7.6269,7.6633,7.6722,7.6206,7.5816,7.5294,7.4779,7.5721,7.6184,7.5551,7.6928,7.7842,7.7783,7.8108,7.8221,7.8127,7.8127,7.8014,7.79,7.7842,7.7783,7.762,7.762,7.762,7.762,7.7463,7.7365,0.0,4.0919,4.1463,4.0646,3.9147,3.7263,3.4921,3.4308,0.0,3.3246,3.4979,3.6683,3.6868,3.8826,4.0772,4.1879,4.4149,4.63,4.7947,5.1099,5.4653,0.0,6.2487,0.0,6.4902,6.7094,6.8506,0.0,0.0,0.0,6.8506,6.8468,6.8468,6.8506,6.7333,6.6371,6.5706,6.4572,6.4053,6.4163,6.4315,6.5312,6.6962,6.6962,0.0,0.0,0.0,0.0,0.0,6.7741,6.7687,6.7687,6.7687,6.7687,6.7687,6.7687,6.7687,6.7687,6.7687,6.7687,6.7687,6.7687,6.7687,6.7687,6.7687,6.8201,6.8825,6.8825,6.9412,7.0036,7.0073,7.0697,7.1321,7.1394,7.1982,7.2496,7.2496,7.2496,7.2553,7.2667,7.3499,7.4459,7.5272,7.6161,7.7032,7.7731,7.7703,7.7643,7.782,7.6824,7.6227,7.6405,7.6442,7.6442,7.6369,7.7361,7.7957,7.7783,7.8108,7.8276,7.8276,7.8276,7.8221,7.8014,7.8051,7.7953,7.7694,7.7694,7.7657,7.762,7.7657,7.7537,3.0899,0.0,3.5378,3.5152,3.4255,3.3224,0.0,3.2426,3.2307,3.2052,3.3027,3.4325,3.5615,3.7355,3.9533,4.2305,4.5312,4.7639,4.8781,5.3272,0.0,6.1113,6.4048,6.5794,6.5794,6.7465,6.8506,0.0,0.0,6.8506,6.8506,6.7948,6.7874,6.8506,6.6223,6.5226,6.5706,6.4083,6.386,6.5007,6.5262,6.621,6.7657,6.7862,6.7973,0.0,0.0,0.0,6.7741,6.7741,6.7687,6.7687,6.7687,6.7687,6.7687,6.7687,6.7687,6.7687,6.7687,6.7687,6.7687,6.7687,6.7687,6.7687,6.7687,6.7834,6.7981,6.7872,6.8458,6.9284,6.9851,7.0584,7.1468,7.2092,7.2349,7.2496,7.2496,7.2496,7.2553,7.2667,7.3499,7.4459,7.5272,7.6161,7.7088,7.7846,7.7842,7.7762,7.782,7.7496,7.7008,7.6227,7.6861,7.7068,7.6442,7.7361,7.8014,7.7957,7.8165,7.8276,7.8276,7.8276,7.8276,7.8221,7.8586,7.8707,7.8684,7.848,7.8088,7.762,7.8125,7.799,2.7548,3.001,3.2499,3.2163,3.1927,3.1689,3.1296,3.1199,3.1117,3.1071,3.2376,3.3907,3.5206,3.6779,3.9053,4.2329,4.4712,4.7383,5.0922,5.4652,5.8371,6.1967,6.4233,6.5831,0.0,0.0,0.0,0.0,0.0,6.8554,6.8506,6.8097,6.8011,6.8408,6.6593,6.5829,6.6223,6.4401,6.4251,6.5852,6.6058,6.6602,6.7347,6.7502,6.7317,0.0,0.0,0.0,6.71,6.6733,6.7026,6.765,6.7283,6.7357,6.7687,6.7687,6.7687,6.7687,6.7687,6.7687,6.7687,6.7687,6.7687,6.7687,6.7687,6.7687,6.7687,6.7579,6.7963,6.8531,6.9228,7.0091,7.0954,7.1762,7.2239,7.2496,7.2496,7.2789,7.3046,7.3162,7.3995,7.5013,7.5711,7.6476,7.72,7.7866,7.7957,7.8048,7.8454,7.7961,7.7584,7.7436,7.7547,7.7459,7.7193,7.7641,7.8014,7.8014,7.8071,7.8221,7.8276,7.8276,7.8462,7.8833,7.8957,7.9246,7.9712,7.9388,7.9044,7.8725,7.9044,7.8761,2.6484,2.8915,3.1184,3.0383,3.0724,3.1085,3.0405,3.0323,3.0337,3.0314,3.2379,3.44,3.5309,3.697,3.9286,4.2557,4.4352,0.0,5.3647,5.5806,5.8148,6.193,6.3936,0.0,6.6982,6.8081,0.0,0.0,0.0,6.8602,6.8506,6.8234,6.8148,6.8309,6.7222,6.6766,6.6888,6.5161,6.5022,6.6329,6.6596,6.6758,6.6868,6.6868,6.65,6.5823,0.0,0.0,6.6623,6.5705,6.6256,6.7614,6.6806,6.699,6.7687,6.7687,6.7687,6.7687,6.7687,6.7687,6.7687,6.7687,6.7687,6.7687,6.7687,6.7687,6.7724,6.7834,6.7871,6.8054,6.8807,6.9669,7.0477,7.1284,7.2018,7.2496,7.2496,7.3046,7.356,7.3729,7.4659,7.5621,7.6375,7.694,7.7441,7.796,7.8125,7.8459,7.92,7.8448,7.8086,7.8928,7.8182,7.7799,7.8199,7.8199,7.8237,7.8405,7.8219,7.8127,7.8276,7.8276,7.8685,7.9465,7.929,7.9616,8.0437,8.0284,8.0099,7.9952,8.0099,7.9669,2.512,2.742,2.9191,2.8485,2.8778,2.921,2.9172,2.9648,3.0137,3.0051,3.2118,3.4418,3.5929,3.8161,4.0873,4.4326,4.7992,5.1934,0.0,0.0,5.9454,6.2079,0.0,6.6017,6.6277,0.0,0.0,0.0,0.0,6.8506,6.8506,6.7109,6.6901,6.8272,6.5915,6.5335,6.6736,6.5764,6.5331,6.5485,6.6338,6.7001,6.7557,6.7663,6.7589,6.7337,0.0,6.6769,6.7393,6.5925,6.6256,6.7614,6.6806,6.699,6.7687,6.7687,6.7687,6.7687,6.7687,6.7687,6.7687,6.7687,6.7633,6.7524,6.7524,6.7524,6.7671,6.8367,6.8605,6.8844,6.9538,7.0401,7.1321,7.2129,7.2422,7.2496,7.2496,7.2606,7.2957,7.3941,7.4829,7.5754,7.6829,7.7589,7.8128,7.8276,7.8758,7.9126,7.9274,7.8988,7.8855,7.8965,7.8301,7.8137,7.9014,7.8935,7.929,8.0225,7.9019,7.8276,7.8276,7.8276,7.8685,7.9465,7.9882,8.011,8.0281,8.0651,8.0525,7.9863,8.0561,8.0388,2.4153,2.5832,2.7332,2.7638,2.9318,3.0894,3.0894,3.0858,3.0906,3.1294,3.2716,3.4659,3.7198,3.9416,4.2532,4.7742,0.0,5.4983,5.7769,5.8888,6.0301,0.0,0.0,6.5756,6.6685,0.0,0.0,0.0,0.0,0.0,6.8309,6.7518,6.7382,6.807,6.6441,6.5676,6.5956,6.5588,6.5353,6.5301,6.6161,6.6528,6.6402,6.6896,6.6639,6.5742,0.0,6.6072,6.6366,6.5595,6.6256,6.7614,6.6806,6.699,6.7687,6.7687,6.7687,6.776,6.8201,6.8348,6.8421,6.8752,6.855,6.8128,6.8016,6.8072,6.8238,6.8604,6.8825,6.9192,7.0328,7.0971,7.1505,7.2312,7.2496,7.2496,7.2496,7.2826,7.3435,7.4396,7.5011,7.5789,7.7103,7.7792,7.8165,7.8127,7.9183,7.9941,7.9941,7.9475,7.949,8.0341,7.9246,7.8898,7.9945,7.9903,7.9993,8.0576,7.952,7.8945,7.8945,7.8536,7.8629,7.9389,7.9934,8.0161,8.01,8.1139,8.1232,8.0461,8.1269,8.1232,2.3789,2.5085,2.6512,2.7827,3.0088,3.2114,3.2716,3.2507,3.2418,3.3415,3.4513,3.6168,3.9044,4.2068,4.589,5.1343,5.4904,5.7538,5.9069,5.9998,6.1336,6.3639,6.4419,6.5413,0.0,0.0,0.0,0.0,0.0,0.0,6.807,6.7737,6.7524,6.7605,6.6648,6.5735,6.5044,6.5007,6.5118,6.5301,6.6109,6.6292,6.5888,6.6512,6.5999,6.4677,6.5301,6.5595,6.5595,6.5375,6.6256,6.7614,6.6806,6.699,6.7687,6.7687,6.7687,6.7797,6.8605,6.8844,6.8954,6.9465,6.9133,6.8528,6.8195,6.8325,6.8657,6.884,6.9172,6.9743,7.0991,7.1468,7.1762,7.2349,7.2496,7.2496,7.2496,7.2973,7.367,7.4537,7.5043,7.5748,7.7127,7.7916,7.8311,7.8311,7.9718,8.0851,8.0851,8.0295,8.0406,8.163,8.0326,7.9866,8.0914,8.1058,8.1111,8.1052,8.0056,7.9446,7.9446,7.8666,7.8405,7.892,7.9556,7.9842,7.9719,8.1186,8.1599,8.1012,8.1819,8.1856,2.4424,2.6033,2.7658,2.9305,2.9728,3.0395,3.3022,3.3996,3.4861,3.6577,3.8297,4.0037,4.1899,4.7455,5.2419,5.4346,5.7427,5.9961,6.089,0.0,6.2859,6.4531,6.4791,0.0,0.0,0.0,0.0,0.0,0.0,0.0,6.807,6.6565,6.6022,6.6758,6.5184,6.4237,6.42,6.42,6.4567,6.5301,6.6109,6.6843,6.7504,6.7577,6.7136,6.6329,6.6402,6.6402,6.6366,6.5632,6.6256,6.7614,6.6806,6.699,6.7687,6.7687,6.7687,6.7797,6.8605,6.8752,6.864,6.875,6.858,6.8073,6.731,6.7716,6.8617,6.9289,7.0287,7.1174,7.1284,7.1872,7.2422,7.2496,7.2496,7.2496,7.2496,7.2569,7.2884,7.3844,7.4675,7.5506,7.647,7.8085,7.92,7.92,8.0724,8.188,8.188,8.1843,8.1843,8.1991,8.1174,8.0951,8.1806,8.2586,8.2935,8.2719,8.057,7.9274,7.9274,7.838,7.782,7.7894,7.8588,7.8872,7.8872,8.0341,8.1048,8.1012,8.1819,8.215,2.4369,2.6033,2.7835,3.0067,3.1627,3.3225,3.5469,3.6991,3.8382,4.0056,4.1702,4.375,4.6576,5.0601,5.4316,5.6837,5.926,6.1236,6.2524,6.297,6.3334,6.3882,0.0,0.0,0.0,0.0,0.0,0.0,0.0,0.0,6.7111,6.647,6.6014,6.583,6.4728,6.409,6.409,6.3576,6.3723,6.4567,6.4861,6.5411,6.6219,6.6733,6.6769,6.6512,6.7026,6.6953,6.6512,6.6696,6.7136,6.765,6.7357,6.743,6.7687,6.7687,6.7633,6.7689,6.8476,6.8733,6.8694,6.9034,6.8794,6.8226,6.7738,6.835,6.9216,6.9508,7.0799,7.2055,7.2055,7.2275,7.2496,7.2496,7.2496,7.2496,7.2496,7.2496,7.2753,7.3618,7.4543,7.5595,7.7002,7.8707,7.9712,7.9231,8.1089,8.2208,8.1207,8.1599,8.2177,8.2697,8.2437,8.2304,8.2542,8.2876,8.2964,8.2819,8.1511,8.0474,7.9897,7.9025,7.8278,7.7643,7.8454,7.848,7.7843,7.9947,8.0755,8.0277,8.1599,8.2186,2.4395,2.6009,2.7944,3.0836,3.3284,3.5799,3.8967,4.0317,4.1525,4.3754,4.5551,4.7573,5.0269,5.32,0.0,0.0,6.0646,6.247,6.3498,6.3602,6.3557,6.3419,0.0,0.0,0.0,0.0,0.0,0.0,0.0,0.0,0.0,6.5888,6.5485,6.4934,6.4127,6.3796,6.409,6.3246,6.3356,6.4494,6.42,6.464,6.5705,6.6512,6.6733,6.6549,6.7357,6.7247,6.6549,6.7357,6.7687,6.7687,6.7687,6.7687,6.7687,6.7687,6.7633,6.7671,6.8421,6.8657,6.8674,6.8954,6.8677,6.8262,6.781,6.8641,6.9675,6.9675,7.1076,7.2496,7.2496,7.2496,7.2496,7.2496,7.2679,7.2826,7.2569,7.2716,7.2973,7.3266,7.4301,7.5537,7.6898,7.8786,8.005,7.9755,8.1501,8.2436,8.1363,8.1756,8.2468,8.3047,8.3121,8.3024,8.2904,8.2843,8.2782,8.2633,8.2142,8.139,8.0198,7.9584,7.8859,7.7965,7.8738,7.8787,7.8112,8.0057,8.0718,8.0204,8.1562,8.2186,2.4598,2.6057,2.8153,3.1759,3.4357,3.7582,4.3424,4.3907,4.4126,4.7644,4.9897,5.1528,5.253,5.5511,0.0,5.8872,6.1703,6.378,6.378,6.3691,6.3557,6.3382,0.0,0.0,0.0,0.0,0.0,0.0,0.0,0.0,0.0,6.453,6.409,6.4053,6.3246,6.3209,6.4053,6.3209,6.3649,6.5264,6.4494,6.4934,6.6512,6.732,6.7247,6.6549,6.7357,6.7247,6.6549,6.7357,6.7687,6.7687,6.7687,6.7687,6.7687,6.7687,6.7687,6.7797,6.8476,6.8564,6.8356,6.824,6.8182,6.8037,6.7237,6.8341,6.9884,6.9884,7.1134,7.2496,7.2496,7.2496,7.2496,7.2496,7.312,7.3487,7.2679,7.3156,7.3487,7.2679,7.3817,7.5175,7.5983,7.8272,8.0272,8.1082,8.2054,8.2696,8.2696,8.2696,8.2758,8.2904,8.2867,8.2904,8.2904,8.2819,8.2633,8.2407,8.2407,8.1671,8.0088,7.9889,7.9433,7.8626,7.9396,7.98,7.98,8.0608,8.1012,8.1012,8.1819,8.2186,2.6018,2.7281,2.93,3.3764,3.7161,4.065,4.526,4.5737,4.6471,5.1001,5.2602,5.3609,5.4986,5.6705,0.0,5.8912,6.1259,6.3009,6.2923,6.3275,6.3511,6.3326,0.0,0.0,0.0,0.0,0.0,0.0,0.0,0.0,0.0,6.4237,6.3539,6.2365,6.2071,6.2071,6.2328,6.2071,6.2511,6.3576,6.3906,6.4934,6.6512,6.6733,6.7026,6.7357,6.7577,6.754,6.7357,6.7577,6.7687,6.7687,6.7687,6.7687,6.7687,6.7687,6.7579,6.7359,6.7558,6.7631,6.7518,6.7288,6.7346,6.7425,6.7113,6.794,6.9116,6.9814,7.09,7.1912,7.252,7.2553,7.2642,7.3193,7.3523,7.378,7.4111,7.4404,7.4478,7.4258,7.5184,7.6383,7.7781,7.9312,8.0577,8.1268,8.2362,8.3061,8.3061,8.3061,8.3061,8.3121,8.3121,8.3024,8.2904,8.2819,8.2633,8.2407,8.2279,8.1774,8.0745,8.0645,8.0277,7.9433,7.9653,7.98,7.98,8.0608,8.1012,8.1012,8.1819,8.2186,2.7518,2.9104,3.1292,3.6249,3.9735,4.3061,4.7534,4.9265,5.1001,5.4741,5.5723,5.6254,5.7223,5.8276,0.0,5.914,6.0895,6.2309,6.2561,6.2656,6.2703,6.2771,0.0,0.0,0.0,0.0,0.0,0.0,0.0,0.0,0.0,6.3576,6.3135,6.2058,6.1728,6.1691,6.1972,6.1398,6.1801,6.3319,6.3503,6.4457,6.6035,6.6366,6.6953,6.7687,6.7687,6.7687,6.7687,6.7687,6.7687,6.7687,6.7687,6.7687,6.7687,6.7687,6.7524,6.7322,6.721,6.7154,6.7097,6.6961,6.6983,6.721,6.719,6.8182,6.9394,7.0018,7.1085,7.2097,7.2576,7.261,7.2606,7.312,7.3707,7.4221,7.4404,7.4918,7.5285,7.4955,7.5639,7.6714,7.8099,7.9423,8.0577,8.1366,8.2163,8.2468,8.2097,8.2177,8.2272,8.2156,8.2156,8.2156,8.1941,8.1735,8.1612,8.145,8.159,8.1525,8.1012,8.1305,8.1085,8.0149,8.0571,8.0755,8.0755,8.1232,8.1489,8.1489,8.1966,8.2251,2.8933,3.1193,3.3826,3.8793,4.2132,4.5369,5.0149,5.3649,5.6387,5.8048,5.8665,5.894,5.8982,5.9889,6.0304,5.944,6.0564,6.1793,0.0,6.1773,6.149,0.0,0.0,0.0,0.0,0.0,0.0,0.0,0.0,0.0,0.0,6.2658,6.2485,6.2384,6.1579,6.1506,6.2274,6.081,6.1299,6.3759,6.3025,6.3539,6.5118,6.6072,6.6953,6.7687,6.7687,6.7687,6.7687,6.7687,6.7687,6.7687,6.7687,6.7687,6.7687,6.7687,6.7579,6.7414,6.7266,6.7097,6.7019,6.6983,6.7097,6.7266,6.7414,6.8752,7.0219,7.0293,7.1398,7.2613,7.2686,7.261,7.2496,7.2496,7.3744,7.4698,7.3964,7.5065,7.5983,7.5175,7.5652,7.6557,7.7584,7.9044,8.0395,8.1427,8.1733,8.1556,8.0629,8.0822,8.0916,8.0592,8.0671,8.0671,8.0555,8.0258,8.0051,8.0124,8.0662,8.0938,8.1012,8.1782,8.1791,8.0824,8.1754,8.2186,8.2186,8.2186,8.2186,8.2186,8.2251,8.2316,2.987,3.2511,3.536,3.9495,4.4858,4.9878,5.3093,5.5343,5.6712,5.6673,5.7888,5.8945,5.8984,5.9851,6.0304,5.944,6.0563,6.1379,6.0852,0.0,0.0,0.0,0.0,0.0,0.0,0.0,0.0,0.0,0.0,0.0,6.2768,6.1495,6.0787,6.0701,5.9834,5.9505,5.9786,5.9457,5.9859,0.0,6.1581,6.2352,6.3313,6.5506,6.6953,6.7687,6.7687,6.7687,6.7687,6.7687,6.7633,6.7524,6.7633,6.7633,6.7524,6.7633,6.7524,6.7266,6.721,6.721,6.7154,6.704,6.719,6.7414,6.7506,6.8385,6.9483,7.0109,7.1047,7.2023,7.2539,7.261,7.2496,7.2496,7.3744,7.4845,7.4698,7.5909,7.6827,7.6199,7.6833,7.7666,7.8537,7.9887,8.1139,8.2072,8.2762,8.265,8.1159,8.1587,8.1773,8.1047,8.0972,8.0972,8.0805,8.0634,8.0733,8.112,8.0529,8.0378,8.0744,8.1681,8.2113,8.1864,8.2113,8.2186,8.2186,8.2316,8.2343,8.2343,8.2508,8.2571,3.1362,3.4503,3.8071,4.3649,4.8192,5.1867,5.3922,5.5735,5.6934,5.6663,5.8182,5.9542,5.9661,6.019,6.0304,5.944,5.9927,6.0372,6.0255,0.0,0.0,0.0,0.0,0.0,0.0,0.0,0.0,0.0,0.0,6.1141,6.1532,6.0713,6.0139,5.999,5.9174,5.8773,5.8823,5.8422,5.8872,6.0188,6.0225,6.1103,6.2662,6.4904,6.6366,6.7136,6.7136,6.732,6.7687,6.7687,6.7633,6.7579,6.7687,6.7633,6.7579,6.7687,6.7579,6.7322,6.7322,6.7266,6.721,6.7247,6.7359,6.747,6.7579,6.8345,6.9368,7.0072,7.0991,7.182,7.2502,7.261,7.2496,7.2496,7.345,7.4441,7.4845,7.5579,7.6337,7.6884,7.7054,7.743,7.8475,8.0079,8.1377,8.1896,8.2751,8.2879,8.1604,8.1881,8.1843,8.0825,8.0802,8.0601,7.9978,7.9817,7.9781,7.9941,7.9727,7.9818,8.0351,8.1223,8.1663,8.1469,8.1835,8.2121,8.2316,8.2343,8.2471,8.2659,8.2721,8.288,3.257,3.6405,4.0951,4.7647,5.0591,5.2206,5.3543,5.5397,5.6786,5.6847,5.8433,5.995,6.011,6.0303,6.0154,5.9403,5.9253,5.9363,5.9918,0.0,0.0,0.0,0.0,0.0,0.0,0.0,0.0,0.0,0.0,5.9993,6.0188,5.9883,5.9625,5.9568,5.8754,5.8355,5.8405,5.7715,5.825,5.992,5.9456,6.0172,6.2084,6.4024,6.5411,6.6239,6.6239,6.6733,6.7467,6.7467,6.7577,6.7687,6.7687,6.7687,6.7687,6.7687,6.7633,6.747,6.747,6.7414,6.7266,6.7414,6.7561,6.7524,6.7687,6.8525,6.9569,7.0109,7.1102,7.2041,7.2539,7.2667,7.2553,7.2553,7.3067,7.3729,7.4331,7.4845,7.5588,7.698,7.7024,7.7254,7.8461,8.0106,8.1342,8.1645,8.2423,8.2749,8.192,8.2055,8.1754,8.0493,8.0478,8.0128,7.9091,7.8976,7.8895,7.8627,7.9056,7.9533,7.9939,8.0481,8.0798,8.069,8.1542,8.215,8.2471,8.2534,8.2721,8.3024,8.3024,8.3143,3.1986,3.7213,4.276,4.6725,4.9303,5.1173,5.2132,5.4275,5.5797,5.5387,5.7292,5.9089,5.9171,5.9365,5.944,5.9328,5.9253,5.9176,5.9173,0.0,0.0,0.0,0.0,0.0,0.0,0.0,0.0,0.0,5.9003,5.8725,6.0115,5.8578,5.7942,5.8732,5.7768,5.7319,5.7569,5.746,5.786,5.8819,6.0231,6.0733,6.0554,6.2302,6.3929,6.5291,6.5291,6.582,6.6659,6.6659,6.701,6.7524,6.7633,6.7633,6.7524,6.7633,6.7633,6.747,6.747,6.747,6.747,6.747,6.7579,6.7687,6.7687,6.8823,7.0146,7.0092,7.1398,7.2779,7.2686,7.2816,7.2872,7.2723,7.289,7.3056,7.2847,7.4595,7.6133,7.5902,7.7361,7.8887,7.9828,8.0368,8.093,8.1781,8.2659,8.2896,8.2104,8.2594,8.2443,8.0811,8.066,8.0273,7.9338,7.9902,8.013,7.9785,7.9791,7.9779,7.9633,7.9438,7.9667,8.0526,8.1697,8.2407,8.2633,8.2867,8.3106,8.3355,8.3433,8.3433,3.4437,3.8358,4.2168,4.5798,4.8126,5.0006,5.1698,5.3649,5.5059,5.4979,5.6697,5.8122,5.7904,5.8615,5.899,5.8089,5.8653,5.8989,5.8387,0.0,0.0,0.0,0.0,0.0,0.0,0.0,0.0,0.0,5.7601,5.758,5.8702,5.7837,5.747,5.7796,5.7369,5.7138,5.7289,5.7289,5.752,5.7969,6.0309,6.0957,6.0163,6.1922,6.3057,6.3701,6.4317,6.5144,6.6225,6.6279,6.6499,6.6774,6.6829,6.6883,6.6919,6.7026,6.7266,6.7579,6.7579,6.7579,6.7579,6.7579,6.7633,6.7687,6.7687,6.8272,6.9151,6.9981,7.0863,7.18,7.2669,7.2835,7.2872,7.2835,7.2835,7.2927,7.3369,7.4403,7.5551,7.6452,7.7901,7.9179,7.9666,8.0225,8.0924,8.1972,8.2765,8.338,8.3578,8.3919,8.3701,8.2581,8.2384,8.1952,8.1074,8.0792,8.0575,8.033,8.033,8.0179,7.9829,8.0617,8.1178,8.136,8.1625,8.2154,8.2904,8.3047,8.3281,8.3657,8.3712,8.3712,3.6007,3.8609,4.0828,4.3902,4.6419,4.864,5.0563,5.2555,5.4152,0.0,5.6031,5.7079,5.6138,5.7788,5.8915,5.7713,5.8465,5.899,5.8239,0.0,0.0,0.0,0.0,0.0,0.0,0.0,0.0,0.0,5.642,5.6609,5.7449,5.7338,5.7188,5.7138,5.7304,5.7355,5.7188,5.7456,5.7556,5.7522,6.0091,6.0762,5.9834,6.1592,6.2361,6.2347,6.3291,6.4375,6.5532,6.586,6.6096,6.6316,6.6499,6.6553,6.6512,6.6733,6.7063,6.7393,6.7614,6.7687,6.7687,6.7687,6.7687,6.7724,6.7944,6.8235,6.873,7.0219,7.088,7.1431,7.2687,7.2927,7.2835,7.2982,7.3075,7.3407,7.4423,7.492,7.5655,7.749,7.8566,7.9263,7.9359,7.9991,8.0885,8.2028,8.2755,8.3558,8.4749,8.4901,8.4605,8.3823,8.3702,8.3278,8.2406,8.1944,8.1514,8.1103,8.1339,8.1198,8.0643,8.1846,8.2481,8.2332,8.1822,8.2112,8.3223,8.3281,8.3508,8.3876,8.3876,8.3876,3.4821,3.7256,3.936,4.0514,4.3683,4.6776,4.7772,5.0484,5.2828,5.2972,5.5023,5.6031,5.3808,5.6624,5.9253,5.9178,5.9253,5.9253,5.914,5.914,0.0,0.0,0.0,0.0,0.0,0.0,0.0,0.0,5.5816,5.5848,5.7166,5.6984,5.6881,5.6984,5.7637,5.7726,5.7188,5.805,5.825,5.781,5.9637,6.0052,5.9318,6.1029,6.1716,6.1506,6.2311,6.3291,6.4273,6.5044,6.5815,6.6586,6.732,6.7173,6.6586,6.7357,6.7173,6.6659,6.743,6.7687,6.7687,6.7687,6.7687,6.7834,6.8605,6.9376,7.0202,7.1121,7.2134,7.2871,7.2982,7.3091,7.3145,7.3037,7.3683,7.4569,7.551,7.6452,7.7521,7.8754,7.9273,7.95,7.95,7.9721,8.046,8.1998,8.2309,8.3043,8.4711,8.4901,8.456,8.3688,8.3702,8.3449,8.2575,8.3307,8.3464,8.2627,8.3264,8.3253,8.238,8.2179,8.2308,8.2912,8.2692,8.289,8.3546,8.3675,8.3876,8.4073,8.4073,8.402,3.3337,3.4922,3.6645,3.9053,4.1138,4.3401,4.6414,4.8352,5.0064,5.1809,5.3786,5.5093,5.4787,5.6399,5.7413,5.6324,5.7488,5.8502,5.8353,5.7904,0.0,0.0,0.0,0.0,0.0,0.0,0.0,0.0,0.0,5.562,5.7116,5.6969,5.7081,5.7585,5.7457,5.7325,5.7338,5.8336,5.8531,5.795,5.9366,5.978,5.9384,6.1051,6.1691,6.1532,6.2223,6.2975,6.3832,6.4672,6.5148,6.5513,6.6318,6.6518,6.6353,6.6753,6.7063,6.7283,6.7577,6.7687,6.7687,6.7687,6.7687,6.7834,6.8678,6.9137,6.9723,7.1212,7.2002,7.2479,7.3104,7.3252,7.331,7.3882,7.4731,7.5708,7.6789,7.7765,7.8591,7.9139,7.9359,7.95,7.95,8.0008,8.0809,8.2028,8.2679,8.3672,8.5469,8.5659,8.5781,8.6191,8.6229,8.5887,8.5186,8.4919,8.442,8.3582,8.3815,8.3586,8.2665,8.3563,8.3794,8.3246,8.3627,8.3787,8.3767,8.3784,8.3876,8.411,8.411,8.402,3.2164,3.3398,3.5019,3.7727,3.9283,4.1091,4.4766,4.6382,4.7766,5.0108,5.2132,5.3665,5.4225,5.531,5.5873,5.531,5.6589,5.7603,5.7492,5.6968,0.0,0.0,0.0,0.0,0.0,0.0,0.0,0.0,0.0,0.0,5.6861,5.6812,5.7119,5.7909,5.7513,5.7521,5.7788,5.858,5.871,5.817,5.925,5.9656,5.943,6.0498,6.1176,6.1482,6.1828,6.247,6.3288,6.4074,6.4548,6.4876,6.577,6.6117,6.6262,6.6716,6.7063,6.732,6.7614,6.7687,6.7687,6.7687,6.7687,6.7907,6.8972,6.9412,6.9868,7.1635,7.2277,7.2547,7.3156,7.3305,7.3564,7.4747,7.5589,7.6555,7.7816,7.8591,7.9116,7.9263,7.9585,7.9868,7.9868,8.0594,8.1519,8.2397,8.3095,8.4135,8.5886,8.616,8.651,8.7483,8.7559,8.742,8.6981,8.6223,8.5537,8.5003,8.4701,8.4241,8.3628,8.4301,8.4385,8.3805,8.3915,8.3928,8.3876,8.3876,8.3967,8.411,8.402,8.3822,0.0,0.0,0.0,3.6384,3.8053,4.0012,4.2735,4.4513,4.6073,4.78,5.0128,5.1855,5.1855,5.3207,5.4859,5.6512,5.674,5.6668,5.6705,5.6519,0.0,0.0,0.0,0.0,0.0,0.0,0.0,0.0,5.4749,5.5224,5.6276,5.6492,5.6994,5.7746,5.7927,5.8195,5.8623,5.8921,5.8804,5.843,5.9412,5.9656,5.9394,5.9394,6.0041,6.1157,6.1193,6.1719,6.2676,6.3325,6.4074,6.4876,6.5879,6.6262,6.6335,6.734,6.721,6.6659,6.743,6.7687,6.7687,6.7724,6.7724,6.8017,6.9633,7.022,7.0716,7.2484,7.3091,7.3199,7.3236,7.3342,7.387,7.5506,7.6256,7.7089,7.8591,7.8915,7.9016,7.9263,7.9951,8.0478,8.0516,8.1462,8.2473,8.3085,8.3566,8.4392,8.5924,8.6244,8.6632,8.7364,8.7673,8.7769,8.7731,8.7184,8.6849,8.681,8.5887,8.5349,8.5349,8.4171,8.3869,8.4561,8.3376,8.3209,8.411,8.4073,8.411,8.411,8.3876,8.3564,3.0813,0.0,0.0,0.0,0.0,0.0,0.0,4.228,4.3857,4.6749,4.8752,5.022,5.0858,5.1724,5.2738,5.3824,5.4948,5.5884,5.6406,5.5767,5.5127,0.0,0.0,0.0,0.0,0.0,0.0,0.0,5.3928,5.4403,5.5218,5.6319,5.7199,5.7782,5.852,5.8842,5.8773,5.9469,5.9601,5.9108,6.0092,6.0075,5.9255,5.9748,6.0115,6.0354,6.0835,6.1563,6.2364,6.3111,6.3948,6.4748,6.5715,6.6427,6.703,6.7469,6.754,6.7393,6.7614,6.7687,6.7797,6.8385,6.8568,6.8862,7.0477,7.1121,7.1562,7.2687,7.3199,7.3521,7.4168,7.4472,7.5034,7.688,7.7539,7.7946,7.8989,7.9214,7.9214,7.9165,7.9902,8.0516,8.0455,8.172,8.2885,8.316,8.3919,8.5082,8.6834,8.707,8.7686,8.9137,8.9298,8.9163,8.8683,8.7889,8.7171,8.6561,8.5105,8.422,8.422,8.3202,8.2897,8.3548,8.3163,8.3312,8.411,8.3929,8.3876,8.3876,8.3602,8.3376,0.0,0.0,0.0,0.0,0.0,0.0,3.9263,4.0453,4.1642,0.0,4.5706,4.729,4.8796,4.9669,5.0467,5.1628,5.2529,5.3572,5.5099,5.4679,5.4105,0.0,0.0,0.0,0.0,5.1921,5.1933,5.286,5.3459,5.4311,5.5653,5.695,5.7911,5.8393,5.8988,5.9345,5.9297,5.9969,6.0162,5.9909,6.0812,6.0682,5.959,5.9688,5.9748,5.9874,6.0295,6.0897,6.1642,6.2531,6.333,6.4129,6.5113,6.597,6.6792,6.7432,6.7687,6.7687,6.7687,6.7687,6.776,6.8238,6.8385,6.8641,6.9926,7.068,7.134,7.2206,7.3215,7.4108,7.4695,7.5234,7.6031,7.7528,7.8069,7.8435,7.9218,7.967,7.98,7.9691,8.033,8.1057,8.1332,8.256,8.369,8.408,8.4767,8.5905,8.7609,8.7895,8.8483,8.9773,8.9935,8.9678,8.8927,8.8098,8.7072,8.5811,8.434,8.3377,8.3036,8.1972,8.1894,8.3012,8.256,8.2871,8.3929,8.3929,8.3822,8.3657,8.3376,8.3143,0.0,0.0,0.0,0.0,0.0,0.0,3.8169,3.9024,3.9815,0.0,4.2205,4.3952,4.624,4.7205,4.8199,4.9738,4.986,5.0638,5.3124,5.3256,5.3004,0.0,0.0,0.0,5.203,5.1323,5.1272,5.2342,5.3033,5.4449,5.6772,5.7668,5.8509,5.924,5.9328,5.9553,6.004,6.0286,6.043,6.0562,6.1577,6.1434,6.0249,5.9445,5.9283,5.9579,5.9626,6.0134,6.0883,6.1732,6.2531,6.3329,6.4367,6.5278,6.6135,6.7249,6.7687,6.7687,6.7687,6.7687,6.7687,6.7797,6.7834,6.7981,6.8788,6.9706,7.0642,7.1615,7.3268,7.4844,7.497,7.587,7.6986,7.785,7.8398,7.8889,7.9509,8.0292,8.0849,8.0718,8.1219,8.197,8.2683,8.3613,8.4581,8.5371,8.5787,8.6625,8.8192,8.8615,8.9014,8.9665,8.9839,8.9583,8.8653,8.7829,8.6615,8.4854,8.3634,8.2621,8.1829,8.0718,8.0905,8.2608,8.2054,8.2414,8.3838,8.3967,8.3805,8.3413,8.3202,8.2806,0.0,0.0,0.0,0.0,0.0,0.0,3.7792,3.8686,3.9584,0.0,4.2209,4.3101,4.4377,4.5111,4.6018,4.7679,4.8421,4.9379,5.1146,5.159,5.1734,5.1637,0.0,0.0,5.1772,5.1465,5.1244,5.1405,5.195,5.3203,5.5289,5.5703,5.6958,5.9454,5.845,5.8578,6.0139,6.0188,6.0237,6.0323,6.1789,6.1894,6.0835,6.0034,5.9641,5.9579,5.9183,5.9677,6.081,6.122,6.2076,6.3329,6.4367,6.5278,6.6135,6.7249,6.7687,6.7687,6.7687,6.7687,6.7797,6.8458,6.8678,6.8825,6.9633,7.057,7.1652,7.2733,7.387,7.5007,7.5845,7.6928,7.8078,7.9093,7.9993,8.0612,8.0628,8.1301,8.2048,8.2398,8.2509,8.2646,8.2796,8.3509,8.4478,8.5371,8.5536,8.6241,8.799,8.8267,8.862,8.9362,8.9489,8.9187,8.8356,8.7386,8.6077,8.428,8.2467,8.1147,8.0324,7.9343,7.977,8.1664,8.2932,8.372,8.402,8.3805,8.3657,8.3546,8.3024,8.2758,0.0,0.0,0.0,3.2943,0.0,0.0,0.0,3.6679,3.7469,3.8409,3.8822,3.9555,4.1178,4.2057,4.3148,4.5176,4.6102,4.7057,4.8593,5.0039,5.0809,5.0624,0.0,0.0,5.0901,5.0696,5.0541,5.0436,5.1247,5.275,5.5133,5.5949,5.7463,5.9852,5.8921,5.9029,6.0286,5.9871,6.0005,6.081,6.1565,6.1813,6.1567,6.0715,6.003,5.9579,5.9387,5.9677,6.0336,6.1047,6.187,6.2912,6.4275,6.5113,6.5733,6.7193,6.7687,6.7687,6.7687,6.7687,6.776,6.8164,6.8311,6.8385,6.8788,6.9925,7.1484,7.331,7.4316,7.5221,7.6656,7.7625,7.8435,7.9449,8.0119,8.0623,8.0953,8.1665,8.2452,8.3095,8.3389,8.3524,8.3472,8.381,8.4538,8.5831,8.6034,8.6741,8.8489,8.8768,8.8971,8.9386,8.8994,8.8376,8.7404,8.6004,8.4363,8.2607,8.1009,7.9893,7.9129,7.8664,7.9332,8.1244,8.3051,8.3913,8.3859,8.3657,8.3546,8.3527,8.2941,8.2633,0.0,0.0,0.0,0.0,0.0,3.5034,0.0,0.0,0.0,3.5551,3.5562,3.6276,3.8506,3.9349,4.0473,0.0,0.0,0.0,0.0,4.7769,0.0,4.9586,0.0,0.0,4.9847,4.978,4.9729,4.9694,5.0708,5.238,5.4828,5.6322,5.7923,5.9664,5.9318,5.9402,6.0066,5.9493,5.9774,6.0857,6.123,6.16,6.1877,6.11,6.0394,5.9779,5.9611,5.9699,5.9973,6.0806,6.1609,6.2526,6.4201,6.4948,6.5327,6.7046,6.7687,6.7687,6.7687,6.7687,6.7687,6.7687,6.7687,6.776,6.8108,6.9315,7.1004,7.3387,7.4651,7.5583,7.713,7.8022,7.8716,7.9532,8.0087,8.0634,8.123,8.2134,8.296,8.3549,8.3926,8.4092,8.4125,8.411,8.4636,8.6251,8.653,8.7238,8.8931,8.9173,8.9265,8.9265,8.8404,8.7469,8.6442,8.4648,8.2743,8.0879,7.9776,7.8903,7.8258,7.8573,7.9632,8.1343,8.2964,8.3712,8.3602,8.3546,8.3527,8.3413,8.2941,8.2696,0.0,0.0,0.0,0.0,3.4247,0.0,0.0,0.0,3.5154,3.6113,0.0,3.6425,3.823,0.0,0.0,0.0,0.0,0.0,4.245,4.3715,4.5653,4.8335,4.7931,0.0,0.0,4.9018,4.9118,4.9363,5.0319,5.1513,5.2862,5.4537,5.6291,5.803,5.804,5.8322,5.8981,5.9602,5.9539,5.8965,6.1111,6.1696,6.0955,6.0738,6.0557,6.0431,5.9092,5.9256,6.0303,6.0186,6.096,6.242,6.4327,6.5091,6.5327,6.7046,6.7687,6.7687,6.7687,6.7687,6.7687,6.7687,6.7687,6.7998,6.9539,7.0253,7.0893,7.2934,7.4807,7.6269,7.6808,7.8125,7.9433,7.9772,8.1035,8.2178,8.221,8.3498,8.4635,8.4627,8.4041,8.3661,8.4167,8.4215,8.4636,8.6251,8.6404,8.6949,8.8635,8.8708,8.8613,8.8613,8.7844,8.6964,8.5989,8.4249,8.2378,8.0415,7.9386,7.8551,7.7879,7.9688,8.114,8.2091,8.3098,8.3602,8.3602,8.3489,8.3413,8.3413,8.3024,8.2927,0.0,0.0,0.0,0.0,0.0,0.0,0.0,0.0,3.4032,0.0,0.0,0.0,0.0,0.0,0.0,0.0,4.0527,0.0,0.0,0.0,4.2721,0.0,0.0,0.0,0.0,0.0,0.0,0.0,4.872,5.033,5.1511,5.3566,5.5477,5.7171,5.7507,5.7765,5.7996,5.8224,5.8428,5.8522,5.9905,6.0665,6.081,6.1063,6.1007,6.0521,5.9456,5.9294,5.9817,5.9932,6.0646,6.1834,6.425,6.5197,6.538,6.71,6.7687,6.7687,6.7687,6.7687,6.776,6.8238,6.8385,6.8715,7.0386,7.0716,7.0967,7.3326,7.4755,7.5857,7.7089,7.8069,7.885,7.9524,8.0636,8.1657,8.2103,8.3217,8.4248,8.4656,8.442,8.406,8.3812,8.3615,8.3975,8.5467,8.6049,8.6836,8.8426,8.8592,8.8287,8.7742,8.684,8.5901,8.4926,8.3126,8.1477,8.0174,7.8859,7.8196,7.8485,7.9925,8.1137,8.207,8.3079,8.3489,8.3355,8.347,8.347,8.3297,8.3024,8.2987,3.4099,0.0,0.0,0.0,0.0,0.0,0.0,0.0,0.0,0.0,0.0,0.0,0.0,0.0,3.6644,0.0,0.0,3.9337,0.0,0.0,0.0,0.0,0.0,0.0,0.0,0.0,0.0,0.0,0.0,4.9054,5.0358,5.2485,5.4386,5.5953,5.6744,5.711,5.7011,5.7297,5.7593,5.8042,5.895,5.9745,6.0413,6.0988,6.1004,6.0411,5.9709,5.9439,5.9528,5.9859,6.0522,6.1688,6.4265,6.5301,6.5485,6.71,6.7687,6.7687,6.7633,6.778,6.8037,6.8403,6.8807,6.9449,7.0567,7.0864,7.1299,7.3458,7.4703,7.5708,7.7239,7.8022,7.8606,7.9303,8.0188,8.1065,8.1802,8.2775,8.3701,8.4524,8.4438,8.4022,8.3153,8.2998,8.3425,8.4695,8.5245,8.6181,8.7935,8.7854,8.7474,8.698,8.6078,8.5077,8.404,8.246,8.1119,7.9989,7.8909,7.8675,7.9667,8.0437,8.1259,8.2288,8.3172,8.347,8.318,8.347,8.3413,8.318,8.3024,8.3084,0.0,0.0,0.0,3.3604,0.0,0.0,0.0,0.0,3.3695,0.0,0.0,0.0,0.0,0.0,3.5013,0.0,0.0,0.0,0.0,0.0,0.0,0.0,0.0,0.0,0.0,0.0,0.0,0.0,0.0,0.0,4.9358,5.1005,5.2485,5.3826,5.5293,5.6029,5.6029,5.7329,5.7673,5.7057,5.8645,5.9349,5.9257,6.0048,6.0316,6.0095,5.949,5.9486,5.9866,6.001,6.0783,6.2223,6.4433,6.5301,6.5485,6.71,6.7687,6.7687,6.7524,6.8018,6.8531,6.7762,6.8678,7.0073,6.9978,7.0772,7.1891,7.3008,7.4732,7.6344,7.6733,7.8031,7.9321,7.9453,8.0104,8.0934,8.1802,8.2632,8.3473,8.44,8.3861,8.2971,8.2141,8.2572,8.3301,8.4205,8.3951,8.4573,8.7038,8.625,8.5819,8.656,8.5704,8.4737,8.3797,8.2886,8.1644,7.9874,7.9853,8.037,8.1366,8.1585,8.2112,8.3143,8.3318,8.3355,8.318,8.3355,8.3355,8.318,8.318,8.3355,0.0,0.0,3.446,3.4193,0.0,0.0,0.0,0.0,0.0,0.0,0.0,0.0,0.0,0.0,0.0,0.0,0.0,0.0,0.0,0.0,0.0,0.0,0.0,0.0,0.0,0.0,0.0,0.0,0.0,0.0,0.0,4.9049,5.118,5.2137,5.4062,5.5,5.495,5.6031,5.6428,5.6227,5.7745,5.8502,5.8591,5.9669,5.988,5.9358,5.9238,5.931,5.9434,5.974,6.0508,6.1636,6.3679,6.4772,6.5343,6.71,6.7687,6.7687,6.7633,6.8458,6.9445,6.9265,6.9924,7.0857,7.1427,7.1673,7.2039,7.3729,7.477,7.5783,7.7164,7.7926,7.8538,7.9064,7.9902,8.073,8.1558,8.2385,8.3175,8.4054,8.3928,8.3288,8.1934,8.1833,8.1979,8.2174,8.2947,8.3974,8.5061,8.5324,8.5212,8.47,8.4276,8.3603,8.2598,8.1754,8.0992,8.0414,8.0057,8.032,8.144,8.1538,8.2089,8.318,8.3413,8.3413,8.318,8.3413,8.3413,8.318,8.318,8.3297,3.5845,3.4717,0.0,3.3923,3.402,0.0,3.3846,0.0,0.0,0.0,0.0,0.0,0.0,0.0,0.0,0.0,0.0,0.0,0.0,3.2616,0.0,0.0,0.0,0.0,0.0,0.0,0.0,0.0,0.0,0.0,0.0,0.0,4.9531,5.0814,5.2773,5.3904,5.4157,5.49,5.5455,5.5794,5.6685,5.7513,5.8088,5.8932,5.9143,5.8908,5.8788,5.9023,5.949,5.974,6.0456,6.1777,6.3768,6.4684,6.5164,6.6626,6.7268,6.747,6.7579,6.8348,6.9258,6.9059,6.9958,7.1128,7.1406,7.1765,7.2556,7.4401,7.5202,7.5882,7.7779,7.8278,7.844,7.8966,7.9529,8.0243,8.1318,8.1956,8.2579,8.3651,8.3838,8.3426,8.1986,8.1484,8.1169,8.0779,8.1585,8.2556,8.3581,8.3904,8.394,8.3594,8.3398,8.3008,8.2294,8.1715,8.138,8.1154,8.0772,8.0929,8.1759,8.192,8.256,8.3975,8.3674,8.3731,8.4094,8.3731,8.347,8.3239,8.3239,8.3239]}]]